[[{"header":{"parameterUnit":"m.s-1","parameterCategory":1,"la1":30.6,"la2":29.2853,"lo1":-89.7004,"lo2":-87.6739,"dy":0.0162,"dx":0.0183,"nx":112,"ny":82,"refTime":"2025-08-23T00:00:00:Z","depth":0,"parameterNumber":2,"parameterNumberName":"U-component_of_WINDS"},"data":[0.0,0.0,0.0,0.0,0.0,0.0,0.0,0.0,0.0,0.0,0.0,0.0,0.0,0.0,0.0,0.0,0.0,0.0,0.0,0.0,0.0,0.0,0.0,0.0,0.0,0.0,0.0,0.0,0.0,0.0,0.0,0.0,0.0,0.0,0.0,0.0,0.0,0.0,0.0,0.0,0.0,0.0,0.0,0.0,0.0,0.0,0.0,0.0,0.0,0.0,0.0,0.0,0.0,0.0,0.0,0.0,0.0,0.0,0.0,0.0,0.0,0.0,0.0,0.0,0.0,0.0,0.0,0.0,0.0,0.0,0.0,0.0,0.0,0.0,0.0,0.0,0.0,0.0,0.0,0.0,0.0,0.0,0.0,0.0,0.0,0.0,0.0,0.0,0.0,0.0,0.0,2.295,2.2961,2.314,2.3664,2.425,2.4368,2.3799,0.0,0.0,0.0,0.0,0.0,0.0,0.0,0.0,0.0,0.0,0.0,0.0,0.0,0.0,0.0,0.0,0.0,0.0,0.0,0.0,0.0,0.0,0.0,0.0,0.0,0.0,0.0,0.0,0.0,0.0,0.0,0.0,0.0,0.0,0.0,0.0,0.0,0.0,0.0,0.0,0.0,0.0,0.0,0.0,0.0,0.0,0.0,0.0,0.0,0.0,0.0,0.0,0.0,0.0,0.0,0.0,0.0,0.0,0.0,0.0,0.0,0.0,0.0,0.0,0.0,0.0,0.0,0.0,0.0,0.0,0.0,0.0,0.0,0.0,0.0,0.0,0.0,0.0,0.0,0.0,0.0,0.0,0.0,0.0,0.0,0.0,0.0,0.0,0.0,0.0,0.0,0.0,0.0,0.0,0.0,0.0,0.0,0.0,0.0,0.0,0.0,0.0,0.0,0.0,2.2427,2.2495,2.2049,2.1799,2.189,2.2445,2.2894,2.3122,0.0,0.0,0.0,0.0,0.0,0.0,0.0,0.0,0.0,0.0,0.0,0.0,0.0,0.0,0.0,0.0,0.0,0.0,0.0,0.0,0.0,0.0,0.0,0.0,0.0,0.0,0.0,0.0,0.0,0.0,0.0,0.0,0.0,0.0,0.0,0.0,0.0,0.0,0.0,0.0,0.0,0.0,0.0,0.0,0.0,0.0,0.0,0.0,0.0,0.0,0.0,0.0,0.0,0.0,0.0,0.0,0.0,0.0,0.0,0.0,0.0,0.0,0.0,0.0,0.0,0.0,0.0,0.0,0.0,0.0,0.0,0.0,0.0,0.0,0.0,0.0,0.0,0.0,0.0,0.0,0.0,0.0,0.0,0.0,0.0,0.0,0.0,0.0,0.0,0.0,0.0,0.0,0.0,0.0,0.0,0.0,0.0,0.0,0.0,0.0,0.0,0.0,0.0,2.1799,2.1903,2.1903,2.1394,2.108,2.108,2.159,2.2084,2.2496,2.2371,0.0,0.0,0.0,0.0,0.0,0.0,0.0,0.0,0.0,0.0,0.0,0.0,0.0,0.0,0.0,0.0,0.0,0.0,0.0,0.0,0.0,0.0,0.0,0.0,0.0,0.0,0.0,0.0,0.0,0.0,0.0,0.0,0.0,0.0,0.0,0.0,0.0,0.0,0.0,0.0,0.0,0.0,0.0,0.0,0.0,0.0,0.0,0.0,0.0,0.0,0.0,0.0,0.0,0.0,0.0,0.0,0.0,0.0,0.0,0.0,0.0,0.0,0.0,0.0,0.0,0.0,0.0,0.0,0.0,0.0,0.0,0.0,0.0,0.0,0.0,0.0,0.0,0.0,0.0,0.0,0.0,0.0,0.0,0.0,0.0,0.0,0.0,0.0,0.0,0.0,0.0,0.0,0.0,0.0,0.0,0.0,0.0,0.0,0.0,0.0,0.0,0.0,2.1955,2.1655,2.1721,2.1106,2.0699,2.0699,2.1184,2.1671,2.2077,2.1404,0.0,0.0,0.0,0.0,0.0,0.0,0.0,0.0,0.0,0.0,0.0,0.0,0.0,0.0,0.0,0.0,0.0,0.0,0.0,0.0,0.0,0.0,0.0,0.0,0.0,0.0,0.0,0.0,0.0,0.0,0.0,0.0,0.0,0.0,0.0,0.0,0.0,0.0,0.0,0.0,0.0,0.0,0.0,0.0,0.0,0.0,0.0,0.0,0.0,0.0,0.0,0.0,0.0,0.0,0.0,0.0,0.0,0.0,0.0,0.0,0.0,0.0,0.0,0.0,0.0,0.0,0.0,0.0,0.0,0.0,0.0,0.0,0.0,0.0,0.0,0.0,0.0,0.0,0.0,0.0,0.0,0.0,0.0,0.0,0.0,0.0,0.0,0.0,0.0,0.0,0.0,0.0,0.0,0.0,0.0,0.0,0.0,0.0,0.0,0.0,0.0,0.0,2.2199,2.2132,2.2322,2.1354,2.0699,2.0699,2.1184,2.1671,2.2077,2.1404,0.0,0.0,0.0,0.0,0.0,0.0,0.0,0.0,0.0,0.0,0.0,0.0,0.0,0.0,0.0,0.0,0.0,0.0,0.0,0.0,0.0,0.0,0.0,0.0,0.0,0.0,0.0,0.0,0.0,0.0,0.0,0.0,0.0,0.0,0.0,0.0,0.0,0.0,0.0,0.0,0.0,0.0,0.0,0.0,0.0,0.0,0.0,0.0,0.0,0.0,0.0,0.0,0.0,0.0,0.0,0.0,0.0,0.0,0.0,0.0,0.0,0.0,0.0,0.0,0.0,0.0,0.0,0.0,0.0,0.0,0.0,0.0,0.0,0.0,0.0,0.0,0.0,0.0,0.0,0.0,0.0,0.0,0.0,0.0,0.0,0.0,0.0,0.0,0.0,0.0,0.0,0.0,0.0,0.0,0.0,0.0,0.0,0.0,0.0,0.0,0.0,0.0,2.2061,2.2133,0.0,2.1894,2.1314,2.0978,2.1522,2.1786,2.1557,0.0,0.0,0.0,0.0,0.0,0.0,0.0,0.0,0.0,0.0,0.0,0.0,0.0,0.0,0.0,0.0,0.0,0.0,0.0,0.0,0.0,0.0,0.0,0.0,0.0,0.0,0.0,0.0,0.0,0.0,0.0,0.0,0.0,0.0,0.0,0.0,0.0,0.0,0.0,0.0,0.0,0.0,0.0,0.0,0.0,0.0,0.0,0.0,0.0,0.0,0.0,0.0,0.0,0.0,0.0,0.0,0.0,0.0,0.0,0.0,0.0,0.0,0.0,0.0,0.0,0.0,0.0,0.0,0.0,0.0,0.0,0.0,0.0,0.0,0.0,0.0,0.0,0.0,0.0,0.0,0.0,0.0,0.0,0.0,0.0,0.0,0.0,0.0,0.0,0.0,0.0,0.0,0.0,0.0,0.0,0.0,0.0,0.0,0.0,0.0,0.0,0.0,2.2085,2.2359,2.248,0.0,2.2382,2.187,2.1155,2.1517,2.1668,2.1412,0.0,0.0,0.0,0.0,0.0,0.0,0.0,0.0,0.0,0.0,0.0,0.0,0.0,0.0,0.0,0.0,0.0,0.0,0.0,0.0,0.0,0.0,0.0,0.0,0.0,0.0,0.0,0.0,0.0,0.0,0.0,0.0,0.0,0.0,0.0,0.0,0.0,0.0,0.0,0.0,0.0,0.0,0.0,0.0,0.0,0.0,0.0,0.0,0.0,0.0,0.0,0.0,0.0,0.0,0.0,0.0,0.0,0.0,0.0,0.0,0.0,0.0,0.0,0.0,0.0,0.0,0.0,0.0,0.0,0.0,0.0,0.0,0.0,0.0,0.0,0.0,0.0,0.0,0.0,0.0,0.0,0.0,0.0,0.0,0.0,0.0,0.0,0.0,0.0,0.0,0.0,0.0,0.0,0.0,0.0,0.0,0.0,0.0,0.0,0.0,0.0,0.0,2.2563,2.3163,2.3259,2.2872,2.2754,2.2279,2.1193,2.1116,2.1302,0.0,0.0,0.0,0.0,0.0,0.0,0.0,0.0,0.0,0.0,0.0,0.0,0.0,0.0,0.0,0.0,0.0,0.0,0.0,0.0,0.0,0.0,0.0,0.0,0.0,0.0,0.0,0.0,0.0,0.0,0.0,0.0,0.0,0.0,0.0,0.0,0.0,0.0,0.0,0.0,0.0,0.0,0.0,0.0,0.0,0.0,0.0,0.0,0.0,0.0,0.0,0.0,0.0,0.0,0.0,0.0,0.0,0.0,0.0,0.0,0.0,0.0,0.0,0.0,0.0,0.0,0.0,0.0,0.0,0.0,0.0,0.0,0.0,0.0,0.0,0.0,0.0,0.0,0.0,0.0,0.0,0.0,0.0,0.0,0.0,0.0,0.0,0.0,0.0,0.0,0.0,0.0,0.0,0.0,0.0,0.0,0.0,0.0,0.0,0.0,0.0,0.0,0.0,2.3043,2.3894,2.4346,2.423,2.3851,2.3157,2.2034,2.2071,2.1693,2.0601,0.0,0.0,0.0,0.0,0.0,0.0,0.0,0.0,0.0,0.0,0.0,0.0,0.0,0.0,0.0,0.0,0.0,0.0,0.0,0.0,0.0,0.0,0.0,0.0,0.0,0.0,0.0,0.0,0.0,0.0,0.0,0.0,0.0,0.0,0.0,0.0,0.0,0.0,0.0,0.0,0.0,0.0,0.0,0.0,0.0,0.0,0.0,0.0,0.0,0.0,0.0,0.0,0.0,0.0,0.0,0.0,0.0,0.0,0.0,0.0,0.0,0.0,0.0,0.0,0.0,0.0,0.0,0.0,0.0,0.0,0.0,0.0,0.0,0.0,0.0,0.0,0.0,0.0,0.0,0.0,0.0,0.0,0.0,0.0,0.0,0.0,0.0,0.0,0.0,0.0,0.0,0.0,0.0,0.0,0.0,0.0,0.0,0.0,0.0,0.0,0.0,0.0,2.3132,2.4353,2.5042,2.4813,2.4503,2.385,2.2721,2.2535,2.1946,2.0681,0.0,0.0,0.0,0.0,0.0,0.0,0.0,0.0,0.0,0.0,0.0,0.0,0.0,0.0,0.0,0.0,0.0,0.0,0.0,0.0,0.0,0.0,0.0,0.0,0.0,0.0,0.0,0.0,0.0,0.0,0.0,0.0,0.0,0.0,0.0,0.0,0.0,0.0,0.0,0.0,0.0,0.0,0.0,0.0,0.0,0.0,0.0,0.0,0.0,0.0,0.0,0.0,0.0,0.0,0.0,0.0,0.0,0.0,0.0,0.0,0.0,0.0,0.0,0.0,0.0,0.0,0.0,0.0,0.0,0.0,0.0,0.0,0.0,0.0,0.0,0.0,0.0,0.0,0.0,0.0,0.0,0.0,0.0,0.0,0.0,0.0,0.0,0.0,0.0,0.0,0.0,0.0,0.0,0.0,0.0,0.0,0.0,0.0,0.0,0.0,0.0,0.0,2.3058,2.4657,2.5473,2.4929,2.4879,2.4428,2.3283,2.2696,2.2122,2.1537,0.0,0.0,0.0,0.0,0.0,0.0,0.0,0.0,0.0,0.0,0.0,0.0,0.0,0.0,0.0,0.0,0.0,0.0,0.0,0.0,0.0,0.0,0.0,0.0,0.0,0.0,0.0,0.0,0.0,0.0,0.0,0.0,0.0,0.0,0.0,0.0,0.0,0.0,0.0,0.0,0.0,0.0,0.0,0.0,0.0,0.0,0.0,0.0,0.0,0.0,0.0,0.0,0.0,0.0,0.0,0.0,0.0,0.0,0.0,0.0,2.0466,0.0,0.0,0.0,0.0,0.0,0.0,0.0,0.0,0.0,0.0,0.0,0.0,0.0,0.0,0.0,0.0,0.0,0.0,0.0,0.0,0.0,0.0,0.0,0.0,0.0,0.0,0.0,0.0,0.0,0.0,0.0,0.0,0.0,0.0,0.0,0.0,0.0,0.0,0.0,0.0,0.0,2.3791,2.5263,2.608,2.5485,2.5435,2.4996,2.3888,2.3273,2.2514,2.1561,2.0901,0.0,0.0,0.0,0.0,0.0,0.0,0.0,0.0,0.0,0.0,0.0,0.0,0.0,0.0,0.0,0.0,0.0,0.0,0.0,0.0,0.0,0.0,0.0,0.0,0.0,0.0,0.0,0.0,0.0,0.0,0.0,0.0,0.0,0.0,0.0,0.0,0.0,0.0,0.0,0.0,0.0,0.0,0.0,0.0,0.0,0.0,0.0,0.0,0.0,0.0,0.0,0.0,0.0,0.0,0.0,0.0,0.0,0.0,0.0,0.0,2.1517,0.0,0.0,0.0,0.0,0.0,0.0,0.0,0.0,0.0,0.0,0.0,0.0,0.0,0.0,0.0,0.0,0.0,0.0,0.0,0.0,0.0,0.0,0.0,0.0,0.0,0.0,0.0,0.0,0.0,0.0,0.0,0.0,0.0,0.0,0.0,0.0,0.0,0.0,0.0,0.0,2.4004,2.5452,2.6386,2.6067,2.5778,2.5272,2.444,2.3863,2.306,2.1958,2.1324,0.0,0.0,0.0,0.0,0.0,0.0,0.0,0.0,0.0,0.0,0.0,0.0,0.0,0.0,0.0,0.0,0.0,0.0,0.0,0.0,0.0,0.0,0.0,0.0,0.0,0.0,0.0,0.0,0.0,0.0,0.0,0.0,0.0,0.0,0.0,0.0,0.0,0.0,0.0,0.0,0.0,0.0,0.0,0.0,0.0,0.0,0.0,0.0,0.0,0.0,0.0,0.0,0.0,1.7779,1.8047,1.8439,1.9201,2.0263,2.1496,2.2217,2.2829,2.3266,2.248,0.0,0.0,0.0,0.0,0.0,0.0,0.0,0.0,0.0,0.0,0.0,0.0,0.0,0.0,0.0,0.0,0.0,0.0,0.0,0.0,0.0,0.0,0.0,0.0,2.2863,2.3152,0.0,0.0,0.0,0.0,0.0,0.0,0.0,0.0,0.0,0.0,0.0,0.0,2.428,2.5581,2.6499,2.6499,2.6042,2.5536,2.4992,2.4528,2.3841,2.2797,2.2234,2.1696,0.0,0.0,0.0,0.0,0.0,0.0,0.0,0.0,0.0,0.0,0.0,0.0,0.0,0.0,0.0,0.0,0.0,0.0,0.0,0.0,0.0,0.0,0.0,0.0,0.0,0.0,0.0,0.0,0.0,0.0,0.0,0.0,1.5204,1.5271,0.0,0.0,0.0,0.0,0.0,0.0,0.0,0.0,0.0,0.0,0.0,0.0,0.0,1.7134,1.7514,1.8048,1.8466,1.8793,1.9328,2.0013,2.0837,2.0979,2.1552,2.2514,2.2612,0.0,2.3795,2.3681,0.0,0.0,0.0,0.0,0.0,0.0,0.0,0.0,0.0,0.0,0.0,0.0,0.0,0.0,0.0,0.0,0.0,0.0,0.0,0.0,0.0,0.0,2.429,2.4166,2.4228,2.4188,0.0,2.3002,2.2492,2.2538,2.2804,0.0,0.0,0.0,0.0,0.0,0.0,0.0,2.5385,2.6047,2.6499,2.6499,2.6424,2.6147,2.5548,2.5423,2.5134,2.4515,2.3979,2.3401,2.2807,2.2257,0.0,0.0,0.0,0.0,0.0,0.0,0.0,0.0,0.0,0.0,0.0,0.0,0.0,0.0,0.0,0.0,0.0,0.0,0.0,0.0,0.0,0.0,0.0,0.0,0.0,0.0,0.0,0.0,0.0,1.5379,1.5891,1.5702,1.5855,1.5673,0.0,0.0,0.0,0.0,0.0,0.0,0.0,0.0,0.0,1.6944,1.7271,1.7621,1.7995,1.8272,1.8615,1.9066,1.9172,1.9673,2.0531,2.0892,2.1379,2.1966,2.3112,2.3789,2.4089,2.3599,2.3279,2.3091,0.0,0.0,0.0,0.0,2.3132,2.2925,2.3215,2.3308,0.0,2.2739,0.0,0.0,0.0,0.0,0.0,0.0,0.0,0.0,0.0,0.0,2.4497,2.4497,2.4497,2.4445,2.427,2.3971,2.3597,0.0,2.3677,2.4287,2.4533,0.0,0.0,0.0,0.0,2.5598,2.5598,2.6118,2.6499,2.6499,2.6499,2.626,2.5649,2.5598,2.5372,2.4842,2.4578,2.4327,2.4061,2.3537,2.3,0.0,0.0,0.0,0.0,0.0,0.0,0.0,0.0,0.0,0.0,0.0,0.0,0.0,0.0,0.0,0.0,0.0,0.0,0.0,0.0,0.0,0.0,0.0,0.0,0.0,0.0,0.0,0.0,1.6162,1.6462,1.6272,1.6426,1.6235,0.0,0.0,0.0,0.0,0.0,0.0,1.6741,1.707,1.7356,1.7551,1.7808,1.8057,1.8299,1.851,1.8803,1.9132,1.9223,1.9527,2.0064,2.0639,2.1006,2.1266,2.2769,2.3436,2.3442,2.3654,2.3725,2.3753,2.3851,2.3898,2.394,2.4281,2.4188,2.3981,2.4498,2.4477,2.4168,2.3681,2.3463,2.3256,2.2542,0.0,0.0,0.0,0.0,2.4126,2.4414,2.4497,2.4497,2.4497,2.4497,2.4497,2.4497,2.4497,2.4301,0.0,2.4175,2.476,2.4838,0.0,0.0,0.0,0.0,2.5841,2.5841,2.6223,2.6499,2.6499,2.6499,2.6323,2.5866,2.5841,2.5665,2.5259,2.5231,2.5172,2.5005,2.4619,2.4126,2.3547,0.0,0.0,0.0,0.0,0.0,0.0,0.0,0.0,0.0,0.0,0.0,0.0,0.0,0.0,0.0,0.0,0.0,0.0,0.0,0.0,0.0,0.0,0.0,0.0,0.0,0.0,0.0,0.0,0.0,1.72,1.7027,0.0,0.0,0.0,0.0,1.6807,1.7077,1.7375,1.7704,1.805,1.824,1.8255,1.8269,1.8284,1.8299,1.9115,1.9424,1.9214,2.027,2.0672,2.0493,2.0767,2.092,2.092,2.1014,2.1065,2.1306,2.4458,2.5757,2.5757,2.5761,2.5763,2.5773,2.5794,2.5784,2.5711,2.5304,2.5159,2.5066,2.458,2.4167,2.3857,2.3815,2.3815,0.0,0.0,2.4167,2.4466,2.4487,2.4497,2.4497,2.4497,2.4497,2.4497,2.4497,2.4497,2.4487,0.0,2.4168,2.4168,2.4872,0.0,2.5085,2.5857,2.6251,2.6449,2.6449,2.6474,2.6499,2.6499,2.6499,2.6487,2.6449,2.6449,2.6436,2.6411,2.6411,2.6172,2.5573,2.5523,2.5272,2.4729,2.3622,0.0,0.0,0.0,0.0,0.0,0.0,0.0,0.0,0.0,0.0,0.0,0.0,0.0,0.0,0.0,0.0,0.0,0.0,0.0,0.0,0.0,0.0,0.0,0.0,0.0,0.0,0.0,0.0,1.7266,1.7413,0.0,1.7179,1.7435,1.7574,1.7479,1.7772,1.8006,1.8123,1.8438,1.8613,1.8613,1.8818,1.8953,1.8953,1.925,1.9456,1.9526,1.9757,1.9998,2.0241,2.0344,2.048,2.0694,2.1547,2.1928,2.208,2.3971,2.4555,2.4404,2.5468,2.5897,2.5897,2.5897,2.5897,2.5877,2.5699,2.5647,2.5616,2.5461,2.5109,2.4735,2.4735,2.454,2.4291,2.4291,2.4394,2.4497,2.4497,2.4497,2.4497,2.4497,2.4497,2.4497,2.4497,2.4497,2.4497,2.4497,2.4373,2.4535,2.5361,2.495,2.4928,2.6314,2.6081,2.5921,2.6435,2.6499,2.6499,2.6499,2.6499,2.6499,2.6499,2.6499,2.6499,2.6499,2.6499,2.6399,2.6197,2.6185,2.5904,2.5335,2.4921,2.4177,0.0,0.0,0.0,0.0,0.0,0.0,0.0,0.0,0.0,0.0,0.0,0.0,0.0,0.0,0.0,0.0,0.0,0.0,0.0,0.0,0.0,0.0,0.0,0.0,0.0,0.0,1.732,1.7594,1.7821,1.794,1.783,1.8116,1.8299,1.8306,1.8408,1.8511,1.8628,1.884,1.8975,1.8975,1.9188,1.9305,1.9305,1.9376,1.948,1.9583,1.9583,1.9757,2.0104,2.0189,2.0377,2.0668,2.1573,2.1954,2.2047,2.3111,2.3374,2.3252,2.471,2.5292,2.5338,2.5697,2.5823,2.5872,2.6073,2.6032,2.5897,2.5897,2.5689,2.5428,2.5428,2.5211,2.4973,2.4973,2.4973,2.4973,2.4973,2.4973,2.4973,2.4973,2.486,2.4735,2.4735,2.4611,2.4497,2.4497,2.4497,2.4679,2.5263,2.4898,2.5014,2.6429,2.616,2.6111,2.6934,2.7052,2.6959,2.6788,2.6776,2.67,2.6512,2.6499,2.6499,2.6499,2.6499,2.6499,2.6499,2.6499,2.6311,2.5917,2.5464,2.4452,2.2828,0.0,0.0,0.0,0.0,0.0,0.0,0.0,0.0,0.0,0.0,0.0,0.0,0.0,0.0,0.0,0.0,0.0,0.0,0.0,0.0,0.0,0.0,0.0,1.7331,1.7609,1.793,1.8277,1.8321,1.8445,1.8814,1.8533,1.8613,1.9268,1.9001,1.8975,1.9283,1.9305,1.9305,1.9305,1.9305,1.9305,1.9305,1.955,1.955,1.9305,1.9835,2.0078,2.0078,2.0359,2.0617,2.0873,2.0891,2.0899,2.0968,2.2021,2.2451,2.2552,2.3676,2.4088,2.4245,2.527,2.5669,2.578,2.636,2.6299,2.5939,2.5939,2.5929,2.5918,2.5918,2.5908,2.5875,2.5897,2.5897,2.5875,2.5875,2.5897,2.5897,2.5875,2.5564,2.5232,2.5232,2.4859,2.4538,2.4518,2.4518,2.4518,2.4497,2.4754,2.5271,2.6135,2.6518,0.0,2.795,2.8073,2.786,2.7386,2.7311,2.7085,2.6562,2.6499,2.6499,2.6499,2.6499,2.6499,2.6452,2.6477,2.6473,2.6468,2.5171,2.3795,2.2372,0.0,0.0,0.0,0.0,0.0,0.0,0.0,0.0,0.0,0.0,0.0,0.0,0.0,0.0,0.0,0.0,0.0,0.0,0.0,0.0,0.0,1.7704,1.8035,1.8035,1.8108,1.8291,1.8613,1.8657,1.8877,1.9466,1.9437,1.9459,1.9642,1.9576,1.9459,1.9312,1.9305,1.9305,1.9305,1.9305,1.9305,1.9305,1.9376,1.9376,1.9305,1.9454,1.9532,1.9532,1.999,2.0241,2.0344,2.0737,2.0899,2.0925,2.1224,2.1351,2.1522,2.3377,2.4088,2.4137,2.4433,2.5041,2.5722,2.5894,2.6381,2.6926,2.6926,2.6674,2.6405,2.6405,2.604,2.5647,2.5863,2.575,2.5601,2.5601,2.575,2.5863,2.5669,2.5667,2.5699,2.5699,2.5606,2.542,2.5077,2.5003,2.489,2.4559,2.4325,2.4457,2.5231,2.514,0.0,2.6975,2.7162,2.7336,2.7841,2.7537,2.7236,2.7085,2.6725,2.6499,2.6499,2.6499,2.6245,2.5646,2.5953,2.6021,2.5768,2.5036,2.4443,0.0,0.0,0.0,0.0,0.0,0.0,0.0,0.0,0.0,0.0,0.0,0.0,0.0,0.0,0.0,0.0,0.0,0.0,0.0,0.0,0.0,0.0,1.8467,1.8785,1.8917,1.8679,1.8628,1.8983,1.9137,1.943,1.9908,1.9869,1.9847,1.9952,1.9862,1.9708,1.9518,1.9635,1.9681,1.9681,1.9681,1.9681,1.9681,1.9681,1.9681,1.9681,1.9681,1.9735,1.986,2.0163,2.0453,2.069,2.1013,2.1223,2.1346,2.1177,2.1113,0.0,0.0,0.0,0.0,0.0,2.4097,2.5016,2.4894,2.5552,2.6442,2.6322,2.6414,2.6553,2.6553,2.6252,2.5955,2.6107,2.6048,2.5942,2.6068,2.6197,2.6303,2.6257,2.6218,2.6188,2.6188,2.6043,2.5825,2.5554,2.5335,0.0,2.4828,2.4436,2.4409,2.523,2.5103,2.54,2.6745,2.6932,2.7159,2.7821,2.7607,2.7482,2.7627,2.7135,0.0,0.0,0.0,2.6558,2.5937,2.5845,0.0,0.0,0.0,0.0,0.0,0.0,0.0,0.0,2.3651,2.3938,0.0,0.0,0.0,0.0,0.0,0.0,0.0,0.0,0.0,0.0,0.0,0.0,0.0,0.0,0.0,0.0,1.9386,1.951,1.9803,1.9316,1.9045,1.9327,1.9613,1.9928,2.0232,2.0033,1.9989,2.0239,2.0033,1.9884,1.9847,0.0,0.0,0.0,0.0,2.021,2.021,2.021,2.021,2.021,2.021,2.0312,2.055,2.0577,2.0903,2.141,2.1437,2.1634,2.188,2.1499,2.1331,2.1278,2.1008,2.0873,2.1002,2.2097,2.3136,2.3989,2.3915,0.0,0.0,2.5163,2.5718,2.6496,2.6496,2.6472,2.6448,2.6496,2.6496,2.6554,2.6747,2.6853,2.6938,2.7119,2.687,2.6605,2.6605,2.6274,2.5997,2.5945,2.5625,2.5346,2.5294,2.486,2.4764,2.5537,2.5663,2.5976,2.6833,2.6955,2.7108,2.7505,0.0,0.0,2.7872,2.7412,2.7101,2.7101,2.7017,2.6858,2.6609,2.5773,2.5021,2.4333,2.4367,2.4282,2.4054,2.4095,2.4312,2.4642,2.3946,2.4083,0.0,0.0,0.0,0.0,0.0,0.0,0.0,0.0,0.0,0.0,0.0,0.0,0.0,0.0,0.0,1.9613,1.9879,2.0042,2.0108,2.0006,1.9859,1.9723,1.9752,2.0016,2.0546,2.0546,2.0559,2.0597,2.0574,2.042,2.013,2.0174,2.021,2.021,2.021,2.021,2.021,2.021,2.021,2.021,0.0,0.0,2.0285,2.0496,2.0659,2.0795,2.1066,2.1202,2.1283,2.1187,2.1002,2.077,2.0853,2.0771,2.0719,2.2021,2.2911,2.3592,2.4639,2.5538,2.6269,2.6197,2.6318,2.6496,2.6496,2.6352,0.0,2.6448,2.6496,2.6448,2.6294,2.6578,2.6794,2.6414,2.6426,2.6509,2.6509,2.6615,2.6594,2.6225,2.6233,2.6208,2.5835,2.5056,2.4561,2.4722,2.4743,2.5062,2.5934,2.6048,2.6346,2.7103,2.6814,2.6576,2.6628,2.6151,2.5841,2.5841,2.5237,2.5024,2.5336,2.4625,2.4293,2.4472,2.4837,2.5001,2.4953,2.5326,2.5556,2.5618,2.4709,2.4398,0.0,0.0,0.0,0.0,0.0,0.0,0.0,0.0,0.0,0.0,0.0,1.8503,1.918,0.0,1.9708,2.0164,2.0349,2.0451,2.0451,2.0451,2.0334,2.004,2.0142,2.0369,2.0663,2.0692,2.0692,2.0692,2.0692,2.0619,2.0459,2.0605,2.0692,2.0692,2.0692,2.0692,2.0692,2.0692,2.0692,2.0692,2.0692,2.0692,2.0692,2.0832,2.0992,2.1167,2.1334,2.1466,2.1589,2.1421,2.1154,2.0853,2.0958,2.0705,2.0377,2.1054,2.181,2.2585,2.3119,2.4245,2.5494,2.5343,2.5654,2.6096,2.6096,2.6024,2.5917,2.6072,2.6096,2.6086,2.61,2.6294,2.6472,2.6318,2.64,2.6496,2.6496,2.6602,2.6628,2.6405,2.6393,2.6321,2.6085,2.5578,2.5118,2.4901,2.4848,2.4928,2.5126,2.5137,2.5484,2.637,2.6209,2.6226,2.6651,2.6214,2.5908,2.5908,2.534,2.5225,2.5724,2.5199,2.5007,2.5202,2.544,2.5554,2.5554,2.5794,2.5897,2.5887,2.542,2.5213,0.0,0.0,0.0,0.0,0.0,0.0,0.0,0.0,1.862,1.9001,1.9067,1.925,1.9869,1.9979,2.017,2.07,2.0787,2.0787,2.0787,2.0787,2.0692,2.0429,2.0575,2.0722,2.078,2.0787,2.0787,2.0787,2.0787,2.0787,2.0787,2.1036,2.1211,2.1211,2.1211,2.1211,2.1211,2.1211,2.1211,2.1211,2.1211,2.1211,2.1211,2.1211,2.1354,2.1611,2.1611,2.1725,2.1894,2.1622,2.1312,2.1029,2.1029,2.0658,2.0191,2.0659,2.1304,2.1986,2.2173,2.3327,2.4701,2.4486,2.4996,2.5693,2.5693,2.5693,2.5693,2.5693,2.5732,2.583,2.598,2.6052,2.6149,2.6304,2.6328,2.6328,2.6328,2.6376,2.6424,2.6424,2.6333,2.6256,2.6256,2.6126,2.5855,2.5396,2.5335,2.5201,2.4829,2.4777,2.5047,2.5732,2.5807,2.6103,2.6816,2.6478,2.6221,2.6221,2.5927,2.5937,2.6357,2.607,2.5897,2.5897,2.5991,2.6032,2.6032,2.6125,2.6167,2.6167,2.6167,2.6074,1.7653,1.7692,1.7907,1.8557,1.8487,1.8605,0.0,0.0,1.9698,1.9976,2.0049,2.0159,2.0524,2.059,2.0735,2.1065,2.1131,2.1131,2.1131,2.1131,2.1137,2.1101,2.0846,2.0809,2.113,2.1131,2.1131,2.1131,2.1131,2.1131,2.1131,2.1189,2.1211,2.1211,2.1211,2.1211,2.1211,2.1211,2.1211,2.1211,2.1211,2.1211,2.1211,2.1211,2.1211,2.1268,2.1268,2.1268,2.1289,2.1252,2.1047,2.0753,2.0753,2.0525,2.0463,2.2599,2.3169,2.31,2.4918,2.5557,2.5562,2.5538,2.5611,2.5693,2.5693,2.5693,2.5693,2.5693,2.5868,2.6004,2.5805,2.5917,2.6052,2.583,2.5781,2.5781,2.5781,2.5989,2.6149,2.6149,2.6326,2.6474,2.6474,2.6457,2.63,2.5892,2.5825,2.5815,2.5763,2.573,2.5775,2.5877,2.5899,2.5921,2.6033,2.5981,2.5949,2.5949,2.589,2.5897,2.595,2.5911,2.5897,2.5897,2.6301,2.6519,2.6519,2.6946,2.7154,2.7154,2.7154,2.6708,1.7709,1.8041,1.8407,1.8712,1.8997,1.932,1.9862,1.9884,1.9935,2.0386,2.0495,2.059,2.0919,2.0977,2.105,0.0,2.1211,2.1211,2.1211,2.1211,2.1211,2.1211,2.1086,2.1057,2.1196,2.1211,2.1284,2.1481,2.1313,2.1291,2.1481,2.1313,2.1211,2.1211,2.1211,2.1211,2.1211,2.1211,2.1211,2.1211,2.1401,2.1496,2.1496,2.1496,2.1386,2.1211,2.1211,2.1211,2.1211,2.1211,2.113,2.0977,2.0977,2.1333,2.1819,2.173,2.241,2.3479,2.4329,2.5446,2.642,2.6167,2.6113,2.6074,2.5786,2.5693,2.5693,2.5693,2.5781,2.5844,2.5732,2.5781,2.5854,2.5732,2.5693,2.5693,2.5693,2.5781,2.5868,2.5868,2.6076,2.6269,2.6269,2.64,2.6437,2.6276,2.6164,2.599,2.57,2.5795,2.5897,2.5897,2.5897,2.5897,2.5897,2.5897,2.5897,2.5897,2.6156,2.6301,2.6301,2.656,2.6705,2.6705,2.6915,2.7019,2.7019,2.7192,2.7309,2.7309,2.7309,2.7102,1.7857,1.8357,1.8855,1.9125,1.9542,1.9972,2.0148,2.0192,2.0323,2.0764,2.0904,2.1007,2.1181,2.1284,2.1313,2.1225,2.1211,2.1211,2.1211,2.1211,2.1211,2.1211,2.1211,2.1247,2.1335,2.1262,2.1342,2.1672,2.1481,2.1489,2.1818,2.1606,2.1481,2.1481,2.1481,2.1481,2.1481,2.1481,2.1481,2.1481,2.1715,2.1832,2.1832,2.1832,2.1701,2.1474,2.1386,2.1342,2.1335,2.1247,2.1211,2.1239,2.1575,2.2235,2.2862,2.184,2.2635,2.4263,2.4473,2.5628,2.6937,2.666,2.6562,2.6504,2.6157,2.6069,2.604,2.5923,2.5893,2.5864,2.5713,2.5693,2.5693,2.5693,2.5693,2.5693,2.5693,2.5693,2.5693,2.5693,2.5868,2.598,2.598,2.6159,2.6289,2.6289,2.6225,2.6067,2.5813,2.6016,2.6199,2.6281,2.6281,2.6281,2.6281,2.6281,2.6281,2.6281,2.6602,2.6778,2.6778,2.7133,2.7309,2.7309,2.7309,2.7309,2.7309,2.7309,2.7309,2.7309,2.7309,2.7309,1.8284,1.8533,1.9016,1.9933,2.0181,2.0356,2.102,2.1167,2.1167,2.1189,2.1445,2.1576,2.1269,2.1467,2.1576,2.1262,2.1211,2.1211,2.1211,2.1211,2.1211,2.1211,2.1211,2.1335,0.0,2.1393,2.1342,2.1672,2.1686,2.1825,2.2184,2.2192,2.2154,2.2154,2.2154,2.2154,2.2154,2.2154,2.2154,2.2154,2.2192,2.2169,2.2169,2.2169,2.2192,2.2162,2.1818,2.1679,2.1657,2.1342,2.1211,2.1318,2.2482,2.2982,2.3143,2.4183,2.5106,2.5937,2.666,2.6935,2.6986,2.7002,2.6967,2.6992,2.6957,2.6947,2.6894,2.6484,2.6367,2.6269,2.5825,2.5693,2.5693,2.5693,2.5693,2.5693,2.5693,2.5693,2.5693,2.5693,2.5718,2.5708,2.5708,2.5718,2.5708,2.5708,2.5931,2.6191,2.6432,2.6706,2.6969,2.7244,2.7268,2.7268,2.7268,2.7268,2.7268,2.7268,2.7278,2.7289,2.7289,2.7299,2.7309,2.7309,2.7309,2.7309,2.7309,2.7309,2.7309,2.7309,2.7309,2.7309,1.8562,1.9177,1.9852,2.0393,2.0692,2.0912,2.1159,2.1211,2.1211,2.1211,2.1298,2.1342,2.1233,2.1298,2.1342,2.1225,2.1393,2.1533,2.1533,2.1891,2.2074,2.1876,2.222,0.0,0.0,0.0,0.0,2.2227,2.1928,2.192,2.2447,2.2293,2.2214,2.2214,2.2214,2.2214,2.2214,2.2214,2.2214,2.2184,2.2381,2.2476,2.2476,2.2476,2.2367,2.2176,2.2067,2.2023,2.2015,2.1898,2.2213,2.2688,2.2292,2.2961,2.4181,2.4561,2.5373,2.6334,2.658,2.7182,2.7822,2.7539,2.7467,2.7418,2.71,2.6986,2.6957,2.6846,2.6807,2.6768,2.6596,2.6352,2.6172,2.6172,2.5923,2.5693,2.5693,2.5693,2.5693,2.5693,2.5693,2.5693,2.5693,2.5693,2.5757,2.5941,2.6052,2.6269,2.6699,2.6853,2.6986,2.7262,2.7309,2.7309,2.7309,2.7309,2.7309,2.7309,2.7309,2.7309,2.7309,2.7309,2.7309,2.7309,2.7309,2.7309,2.7309,2.7309,2.7309,2.7309,2.7309,2.7309,1.8931,1.9667,2.0429,2.0641,2.0941,2.1211,2.1211,2.1211,2.1211,2.1211,2.1306,2.135,2.1233,2.1401,2.1518,2.1408,2.1745,2.203,2.203,2.2469,2.2725,2.2535,2.2864,2.3069,0.0,0.0,0.0,2.2724,2.2425,2.2374,2.2746,2.2615,2.2513,2.2513,2.2513,2.2513,2.2513,2.2513,2.2513,2.252,2.2703,2.2767,2.2767,2.2767,2.2689,2.2506,2.2389,2.2337,2.233,2.2228,2.252,2.3035,2.3152,2.3889,2.4988,2.5876,2.66,2.7133,2.7133,2.7655,2.8252,2.8005,2.7917,2.7858,2.7559,2.7471,2.7441,2.7295,2.7246,2.7207,2.7025,2.6816,2.6611,2.6611,2.6371,2.6128,2.5981,2.5942,2.5903,2.5713,2.5693,2.5693,2.5693,2.5693,2.5757,2.5941,2.5965,2.6183,2.6829,2.69,2.6986,2.7262,2.7309,2.7309,2.7309,2.7309,2.7309,2.7309,2.7309,2.7309,2.7309,2.7309,2.7382,2.7513,2.7358,2.7441,2.7772,2.7607,2.7607,2.7772,2.7772,2.7679,1.9349,2.0018,2.0722,2.0722,2.0955,2.1211,2.1211,2.1211,2.1211,2.1211,2.1459,2.1576,0.0,0.0,2.2059,2.1745,2.2235,2.2614,2.2592,2.2914,2.3171,0.0,0.0,0.0,0.0,0.0,0.0,2.3186,0.0,2.3135,2.3135,2.3135,2.3128,2.3106,2.3106,2.3106,2.3106,2.3106,2.3106,2.3106,2.3106,2.3106,2.3106,2.3106,2.3106,2.3091,2.2746,2.2614,2.2599,2.2345,2.231,2.264,2.494,2.5631,2.5629,2.7982,2.8593,2.8269,2.8359,2.833,2.8291,2.8291,2.8291,2.8291,2.8291,2.8291,2.8203,2.7839,2.7721,2.7633,2.7187,2.706,2.7051,2.7051,2.7006,2.6904,2.6504,2.6426,2.6289,2.5835,2.5728,2.5693,2.5693,2.5728,2.5747,2.5747,2.5757,2.6058,2.6767,2.6853,2.6962,2.7238,2.7286,2.7286,2.7309,2.733,2.7317,2.7317,2.7337,2.7372,2.7372,2.7372,2.7555,2.7921,2.7565,2.7772,2.8593,2.8148,2.8158,2.8593,2.8593,2.8355,1.993,2.0495,2.1086,2.1086,2.1152,2.1211,2.1211,2.1211,2.1211,2.1211,2.1276,2.1306,0.0,0.0,0.0,2.1708,2.2425,0.0,2.2621,2.353,0.0,2.353,0.0,2.4529,2.4368,2.4499,0.0,0.0,2.3742,2.3471,2.3471,2.3471,2.3362,2.312,2.3106,2.3106,2.3106,2.3106,2.3106,2.3106,2.3106,2.3106,2.3106,2.3106,2.3106,2.3106,2.3018,2.2981,2.2981,2.2901,2.3832,2.5289,2.503,2.585,2.7214,2.7855,2.8015,2.8052,2.8962,2.8855,2.8291,2.8291,2.8291,2.8291,2.8291,2.8291,2.8271,2.8191,2.8161,2.8105,2.7998,2.7761,2.7526,2.7526,2.7246,2.6957,2.6875,2.6855,2.6728,2.6299,2.5942,2.5693,2.5693,2.5981,2.626,2.6404,2.6729,2.6809,2.6359,2.6294,2.6472,2.6938,2.6986,2.7081,2.7286,2.7562,2.7759,2.7759,2.8079,2.8266,2.8266,2.8266,2.8328,2.8417,2.8328,2.838,2.8593,2.8469,2.8479,2.8593,2.8593,2.8431,2.0159,2.0685,2.1145,2.1035,2.1101,2.1174,2.0999,2.097,2.0926,2.078,2.0868,2.0926,2.078,2.1401,2.1862,0.0,0.0,0.0,2.3098,2.4082,2.4631,0.0,2.4668,0.0,2.4836,2.4983,2.5012,0.0,2.4346,2.3962,2.3823,2.3808,2.3662,2.3332,2.3325,2.3252,2.3106,2.3106,2.3106,2.3106,2.3106,2.3106,2.3106,2.3106,2.3106,2.3106,0.0,2.3106,2.3106,2.3106,2.3816,2.5004,2.5465,2.6279,2.7313,2.8443,2.8738,2.8681,2.9365,2.9285,2.8846,2.8633,2.8437,2.8291,2.8291,2.8291,2.8291,2.8291,2.8291,2.8291,2.8291,2.8142,2.7966,2.7966,2.7754,2.7529,2.7344,2.7305,2.7168,2.6748,2.644,2.6274,2.6274,2.6504,2.6701,2.6807,2.7074,2.7054,2.6561,2.67,2.6947,2.7252,2.7276,2.735,2.7511,2.7736,2.7854,2.7854,2.8099,2.8242,2.8242,2.8242,2.8359,2.8564,2.8334,2.8436,2.8824,2.863,2.864,2.8824,2.8824,2.8645,2.0327,2.0751,2.1137,2.0831,2.097,2.1123,2.0765,2.0692,2.0597,2.0276,2.0437,2.0546,2.0261,2.1233,2.1979,2.1737,0.0,2.3881,2.3691,2.4463,2.4939,2.4697,2.4917,2.5093,2.5093,2.5093,2.5093,2.5093,2.4829,2.4529,2.4199,2.4177,2.3976,2.361,2.3596,2.3435,2.3113,2.3106,2.3106,2.3106,2.3157,2.3149,2.3106,2.3157,2.3149,2.3106,2.3106,0.0,2.3106,2.3106,2.3199,2.3604,2.5859,2.6747,2.7002,2.9219,2.9907,2.9774,2.9774,2.9735,2.9608,2.915,2.876,2.8457,2.8457,2.8418,2.8379,2.8379,2.834,2.8291,2.8291,2.8291,2.8291,2.8291,2.8291,2.8193,2.7848,2.7731,2.7585,2.7178,2.7025,2.6986,2.6986,2.706,2.71,2.71,2.7148,2.7162,2.7162,2.7488,2.7713,2.7738,2.7738,2.7763,2.7789,2.7874,2.7879,2.7879,2.7929,2.796,2.796,2.796,2.8166,2.8558,2.8186,2.8342,2.9105,2.876,2.876,2.9105,2.9105,2.8904,2.0941,2.1123,2.1196,2.1137,2.1167,2.1123,2.0765,2.0692,0.0,0.0,2.0254,2.0276,2.0217,2.0831,2.1452,2.1657,2.2586,2.3449,2.3925,2.4404,2.4763,0.0,2.5056,2.5093,2.5093,2.5093,0.0,0.0,2.5042,2.4866,2.4536,2.4514,2.4243,2.3618,2.3596,2.3435,2.3113,2.3106,2.3106,2.3113,2.3384,2.3369,2.312,2.3391,2.3362,2.3106,2.3106,0.0,2.3106,2.3106,2.3752,2.4795,2.5256,2.666,2.8514,2.8967,2.9771,3.0664,3.0664,3.041,3.0019,2.9618,2.9432,2.9373,2.9373,2.9092,2.8809,2.8809,2.8564,2.8291,2.8291,2.8291,2.8291,2.8291,2.8291,2.8271,2.8203,2.7936,2.7673,2.7594,2.7266,2.6986,2.6986,2.7314,2.7585,2.7585,2.7851,2.8066,2.8066,2.7529,2.7206,2.745,2.7475,2.7551,2.7789,2.8156,2.8367,2.8367,2.8673,2.8874,2.8874,2.8874,2.8914,2.8995,2.8914,2.8955,2.9105,2.9025,2.9025,2.9105,2.9105,2.8943,2.1167,2.1211,2.1211,2.1211,2.1211,2.1079,2.0554,0.0,0.0,0.0,1.9872,1.9938,1.9769,2.0378,2.1064,2.1386,2.2235,2.3084,2.3735,2.4434,2.4851,2.4836,2.513,2.5235,2.5108,2.5093,2.5093,2.5093,2.5093,2.502,2.4866,2.4697,2.4463,2.414,2.3771,2.3515,2.3362,2.3193,2.3106,2.3106,2.3267,2.3347,2.3369,2.3523,2.3603,2.3618,2.3618,0.0,2.3618,2.3618,2.3992,2.4628,2.5133,2.6491,2.8232,2.8725,2.9756,3.0889,3.0889,3.0742,3.0527,3.0351,2.997,2.9598,2.9598,2.9452,2.9258,2.9258,2.9139,2.8906,2.8682,2.8613,2.8564,2.834,2.8291,2.8291,2.8291,2.8161,2.8015,2.8015,2.7822,2.7676,2.7676,2.7851,2.8015,2.8015,2.8191,2.8291,2.8291,2.793,2.7728,2.7849,2.7875,2.7927,2.8041,2.8255,2.841,2.841,2.8572,2.8681,2.8681,2.8681,2.8681,2.8681,2.8681,2.8681,2.8681,2.8681,2.8681,2.8681,2.8681,2.8611,2.1189,2.1211,2.1211,2.1211,2.1211,2.102,2.0269,2.0159,0.0,1.9316,1.9459,1.9627,1.9437,2.0003,2.0691,2.1225,2.1935,2.2747,2.3676,2.4499,2.4946,2.4822,2.522,0.0,2.5122,2.5093,0.0,2.5093,2.5093,2.5093,2.5093,2.4844,2.4675,2.4609,2.4104,2.3771,2.3698,2.3449,2.3318,2.3318,2.3391,2.3515,2.3698,2.3771,2.391,2.4118,2.4118,0.0,0.0,2.4558,2.472,2.5069,2.5802,2.6854,2.8031,2.8769,2.9822,3.0889,3.0889,3.0889,3.0889,3.0889,3.0449,2.9882,2.9882,2.9813,2.9735,2.9735,2.9667,2.952,2.915,2.9062,2.8955,2.8525,2.8428,2.8398,2.831,2.8291,2.8291,2.8291,2.8291,2.8291,2.8291,2.8291,2.8291,2.8291,2.8291,2.8291,2.8291,2.8291,2.833,2.8418,2.834,2.8291,2.8291,2.8291,2.8291,2.8291,2.8291,2.8291,2.8291,2.8291,2.8291,2.8291,2.8291,2.8291,2.8291,2.8291,2.8291,2.8291,2.8291,2.8291,2.113,2.1211,2.1211,2.1211,2.1211,2.0962,2.0045,0.0,1.994,1.9023,1.9122,1.943,1.9693,1.9818,2.0272,2.1452,0.0,2.241,2.4258,2.4587,2.4858,2.5374,0.0,0.0,2.5122,2.5093,2.5093,2.5093,2.5093,2.5093,2.5093,2.5064,2.491,2.4609,2.4543,2.4368,2.4075,2.4005,2.4023,2.3998,2.4324,2.4331,2.4049,2.4382,2.4368,2.4118,2.4118,0.0,0.0,2.6016,2.6774,2.7906,2.7997,2.8615,2.9434,2.9489,3.0106,3.0889,3.0889,3.0889,3.0889,3.0889,3.0869,3.0771,3.0771,3.0478,3.0137,3.0137,2.9891,2.9588,2.9549,2.954,2.9432,2.8965,2.883,2.8733,2.8369,2.8291,2.8291,2.8291,2.8291,2.8291,2.8291,2.8291,2.8291,2.8291,2.8291,2.8291,2.8291,2.8291,2.8437,2.8818,2.8525,2.8291,2.8291,2.8291,2.8291,2.8291,2.8291,2.8291,2.8291,2.8291,2.8291,2.8291,2.8291,2.8291,2.8291,2.8291,2.8291,2.8291,2.8291,2.8291,2.1095,2.1203,2.1459,2.1262,2.1211,2.1006,2.0223,2.0115,1.9991,1.9242,1.921,1.94,1.973,1.9789,2.0214,2.1489,2.1693,0.0,2.3764,2.4184,2.4551,2.5169,2.5249,2.5271,0.0,0.0,2.5093,2.5093,2.5093,2.5093,2.5093,2.5093,2.5027,2.4902,2.4705,2.4543,2.4412,2.4214,2.4118,2.4118,2.4243,2.4346,2.4412,2.4543,2.4639,2.4731,2.5571,0.0,0.0,2.7678,2.8359,2.8817,2.8658,2.9291,3.0253,3.0036,3.0502,3.1269,3.1269,3.1103,3.0889,3.0889,3.0889,3.0889,3.0889,3.0762,3.0615,3.0615,3.0527,3.0331,3.0019,2.9784,2.9559,2.9383,2.9307,2.9189,2.876,2.8672,2.8672,2.8672,2.8672,2.875,2.9014,2.909,2.9002,2.8711,2.8672,2.8672,2.8672,2.8672,2.8828,2.9258,2.8926,2.8779,2.907,2.909,2.8945,2.8682,2.8672,2.8555,2.8301,2.8291,2.8291,2.8291,2.8291,2.8291,2.8291,2.8545,2.8672,2.8672,2.8935,2.8926,2.1071,2.1203,2.1496,2.1269,2.1211,2.0985,2.0239,2.0144,2.0028,1.9411,1.9378,1.9576,1.9994,1.9994,2.0296,2.1503,2.1693,2.2111,2.3288,2.3815,2.4287,2.4749,0.0,2.5034,2.5227,2.5166,2.5093,2.5093,2.5093,2.5093,2.5093,2.5093,2.5093,2.5093,2.4866,2.4749,2.4749,2.4514,2.4404,2.4404,2.4404,2.4529,2.4749,2.5167,2.546,2.5779,2.712,0.0,0.0,2.9402,3.0062,3.0425,3.0222,3.0647,3.1305,3.1077,3.1281,3.1689,3.1562,3.1318,3.1055,3.0928,3.0889,3.0889,3.0889,3.0889,3.0889,3.0889,3.0889,3.081,3.0488,3.0214,2.995,2.9813,2.9784,2.9667,2.9199,2.9111,2.9111,2.9111,2.9111,2.9209,2.954,2.9598,2.9491,2.916,2.9111,2.9111,2.9111,2.9111,2.9277,2.9735,2.9482,2.9365,2.9579,2.9598,2.9412,2.8918,2.8889,2.873,2.831,2.8291,2.835,2.8476,2.8476,2.8545,2.8699,2.8965,2.9111,2.9121,2.9461,2.9364,2.1035,2.1211,2.1211,2.1211,2.1211,2.0955,2.0016,2.0011,2.0028,1.9411,1.9554,1.9979,2.0568,2.0422,2.0524,2.154,2.1693,2.203,2.2981,2.3676,2.4086,2.4126,2.4412,2.4609,2.4609,2.4902,2.5093,2.5093,2.5093,0.0,2.5093,2.5093,2.5093,2.5093,2.5086,2.5086,2.5086,2.5086,2.5086,2.5086,2.5086,2.5086,2.5153,2.646,2.7078,2.7145,0.0,0.0,0.0,3.1281,3.21,3.3355,3.3355,3.3133,3.2793,3.2752,3.2519,3.213,3.167,3.1514,3.1445,3.1025,3.0889,3.0889,3.0889,3.0889,3.0889,3.0889,3.0889,3.0889,3.0889,3.0879,3.0762,3.0303,3.0185,3.0078,2.9686,2.9588,2.9588,2.9588,2.9588,2.9588,2.9598,2.9598,2.9598,2.9588,2.9588,2.9588,2.9588,2.9588,2.9755,3.0146,3.0185,3.0048,2.9627,2.9598,2.9412,2.8918,2.8889,2.873,2.831,2.8291,2.8486,2.8906,2.8889,2.9121,2.9588,2.9588,2.9588,2.9588,2.9598,2.9364,2.016,2.0537,2.1101,2.0627,2.0685,2.0684,1.9957,2.0011,2.0086,1.9723,1.9715,1.9986,2.0603,2.0612,2.0926,2.211,2.233,2.2593,2.334,2.4005,2.4529,2.4756,2.5227,2.5388,0.0,0.0,2.5093,2.5093,2.5093,2.5093,2.5093,2.5093,2.5093,2.5093,2.5093,2.5093,2.5093,2.5093,2.5093,2.5093,2.5093,2.5584,2.6494,2.6961,2.7684,0.0,0.0,0.0,0.0,3.2333,3.2997,3.3386,3.3386,3.3308,3.3223,3.3223,3.2959,3.2578,3.2441,3.2197,3.1973,3.1837,3.1798,3.1739,3.1406,3.1123,3.0957,3.124,3.1113,3.0957,3.124,3.1103,3.0859,3.0703,3.0674,3.0547,3.0098,3.0,3.0,3.0,3.0,3.0098,3.042,3.0497,3.0371,3.0077,3.0,3.0,3.0,3.0,3.0166,3.0625,3.0674,3.0625,3.0517,3.0497,3.0283,2.9824,2.9521,2.9334,2.9197,2.8877,2.8926,2.9355,2.9393,2.9461,2.9598,2.9891,3.0156,3.0469,3.0146,2.9775,1.9709,2.0074,2.0596,2.0276,2.0364,2.0378,1.9906,1.9916,2.0033,1.9952,1.9938,2.0135,2.0758,2.0875,2.1175,2.2125,2.2381,2.2681,2.3318,2.4009,2.4587,2.5042,2.5445,0.0,0.0,2.5093,2.5093,2.5093,2.5093,2.5093,2.5093,2.5093,2.5093,2.5093,2.5093,2.5093,2.5093,2.5618,2.5839,2.588,2.6401,2.7094,2.7899,2.8493,2.9215,0.0,0.0,0.0,0.0,3.3029,3.3386,3.3386,3.3386,3.3386,3.3386,3.3386,3.322,3.3008,3.2851,3.2627,3.2413,3.2247,3.2198,3.2149,3.1846,3.1465,3.1221,3.1641,3.1572,3.1396,3.1494,3.1318,3.1084,3.0928,3.0889,3.081,3.0518,3.0459,3.0459,3.0459,3.0459,3.0547,3.084,3.0889,3.0791,3.0508,3.0459,3.0459,3.0459,3.0459,3.0566,3.0859,3.0889,3.0889,3.0889,3.0889,3.0693,3.0225,2.9951,2.9764,2.9608,2.9307,2.9365,2.9823,2.9843,2.9921,3.0097,3.0332,3.0605,3.0879,3.041,3.0059,0.0,1.9752,1.9855,2.0071,2.0159,2.0093,1.9825,1.9789,0.0,2.0152,2.0232,2.0444,2.1123,2.1247,2.1364,2.1737,2.2052,2.2454,2.3062,2.3727,2.4434,2.5115,2.5173,0.0,2.513,2.51,2.5093,2.5093,2.5093,2.5093,2.5093,2.5093,2.5093,2.5093,2.5093,2.5093,2.5093,2.6435,2.7045,2.6986,2.8361,2.9092,2.9248,3.0669,3.1345,0.0,0.0,0.0,0.0,3.3386,3.3386,3.3386,3.3386,3.3386,3.3386,3.3386,3.3386,3.3369,3.2978,3.2842,3.2773,3.2413,3.2267,3.2247,3.2276,3.1934,3.165,3.212,3.2218,3.211,3.1709,3.1562,3.1426,3.1025,3.0918,3.0889,3.0889,3.0889,3.0889,3.0889,3.0889,3.0889,3.0889,3.0889,3.0889,3.0889,3.0889,3.0889,3.0889,3.0889,3.0889,3.0889,3.0889,3.0889,3.0889,3.0889,3.0703,3.0273,3.0215,3.0039,2.9706,2.9657,2.9843,3.0234,3.0244,3.0459,3.0889,3.0889,3.0889,3.0879,3.0449,3.0225,1.884,0.0,1.9745,1.9569,1.9689,1.9818,0.0,1.9769,2.0115,2.0196,2.0407,2.078,2.1459,2.1584,2.1847,2.2645,2.2842,2.3032,2.3427,2.4287,2.5195,2.6054,2.5944,2.5688,2.5447,2.5232,2.5093,2.5093,2.5093,2.5093,2.5093,2.5093,2.5093,2.5093,2.5093,2.5093,2.5093,2.6435,2.6594,2.5584,2.6961,2.8172,2.9248,3.0669,3.1877,0.0,0.0,0.0,3.3386,3.3386,3.3386,3.3386,3.3386,3.3386,3.3386,3.3386,3.3386,3.3377,3.3279,3.3271,3.322,3.3164,3.291,3.2715,3.3027,3.2607,3.2109,3.2529,3.2452,3.2247,3.2441,3.2012,3.1464,3.1396,3.1123,3.0889,3.0889,3.0889,3.0889,3.0889,3.0889,3.0889,3.0889,3.0889,3.0889,3.0889,3.0889,3.0889,3.0889,3.0889,3.0889,3.0889,3.0889,3.0889,3.0889,3.0889,3.084,3.0732,3.0391,3.0312,3.0566,3.0244,3.0264,3.0723,3.0732,3.0781,3.0889,3.0889,3.0889,3.0889,3.0781,3.0537,1.8902,1.9408,1.9781,1.9725,1.9959,2.0157,1.9981,2.0064,2.0247,2.04,2.0575,2.089,2.1576,2.1693,2.1957,2.2724,2.2855,2.3208,2.4137,2.5012,2.5747,2.642,2.6215,2.5886,0.0,2.5276,2.5093,2.5093,2.5093,2.5093,2.5093,2.5093,2.5093,2.5093,2.5712,2.5712,2.5127,2.7053,2.7385,2.604,2.8056,2.9075,2.9248,3.0669,3.1707,0.0,0.0,0.0,3.3386,3.3386,3.3386,3.3386,3.3386,3.3386,3.3386,3.3386,3.3386,3.3386,3.3386,3.3386,3.3386,3.3386,3.324,3.3125,3.3318,3.3105,3.2793,3.3018,3.292,3.2754,3.2783,3.2451,3.2051,3.1865,3.1641,3.1455,3.1221,3.1182,3.1123,3.0928,3.1045,3.1123,3.0928,3.1055,3.1113,3.0918,3.0889,3.0889,3.0889,3.0889,3.0889,3.0889,3.0889,3.0889,3.0889,3.0889,3.0889,3.0889,3.0654,3.0635,3.0879,3.0644,3.0635,3.0889,3.0889,3.0889,3.0889,3.0889,3.0889,3.0889,3.0889,3.0752,1.932,1.9723,2.0038,2.0108,2.0415,2.0685,2.0634,2.0444,2.0371,2.07,2.0809,2.1036,2.1723,2.184,2.2045,2.2636,2.2738,2.3288,2.4807,2.5454,2.5952,2.6376,2.6142,0.0,2.5522,2.5276,2.5093,2.5093,2.5093,2.5093,2.5093,2.5093,2.5093,2.5093,2.62,2.6234,2.5119,2.7618,2.8271,2.712,2.9524,3.0248,2.9574,3.0766,3.141,3.1675,0.0,0.0,3.3386,3.3386,3.3386,3.3386,3.3386,3.3386,3.3386,3.3386,3.3386,3.3386,3.3386,3.3386,3.3386,3.3386,3.3386,3.3386,3.3386,3.3386,3.3386,3.3386,3.3386,3.3308,3.2978,3.2842,3.2705,3.2384,3.2247,3.2101,3.1699,3.1621,3.1494,3.1064,3.1328,3.1484,3.1064,3.1279,3.1367,3.1035,3.0928,3.0889,3.0889,3.0889,3.0889,3.0889,3.0889,3.0889,3.0889,3.0889,3.0889,3.0889,3.0889,3.0889,3.0889,3.0889,3.0889,3.0889,3.0889,3.0889,3.0889,3.0889,3.0889,3.0889,3.0889,3.0889,1.975,2.0502,2.0801,2.0052,2.0281,2.0619,2.0349,2.0459,2.0714,2.1036,2.1357,2.1737,2.2367,2.2453,2.2689,2.334,2.3449,2.3727,2.4565,2.4763,2.5118,2.5988,0.0,2.5551,2.55,2.5276,2.5093,2.5093,2.5093,2.5093,2.5093,2.5093,2.5093,2.5093,2.5288,2.5322,2.5093,2.6627,2.7311,2.712,2.7535,2.887,3.0992,3.1185,3.1941,3.3092,0.0,3.3386,3.3386,3.3386,3.3386,3.3386,3.3386,3.3386,3.3386,3.3386,3.3386,3.3386,3.3386,3.3386,3.3386,3.3386,3.3386,3.3386,3.3386,3.3386,3.3386,3.3386,3.3386,3.3377,3.3308,3.3066,3.2773,3.2715,3.2452,3.2179,3.212,3.2101,3.1973,3.1504,3.1777,3.1964,3.1494,3.1445,3.1464,3.1435,3.1123,3.0889,3.0889,3.0889,3.0889,3.0889,3.0889,3.0889,3.0889,3.0889,3.0889,3.0889,3.0889,3.0889,3.0889,3.0889,3.0889,3.0889,3.0889,3.0889,3.0889,3.0889,3.0889,3.0889,3.0889,3.0889,1.9557,2.0318,2.0845,2.0391,2.102,2.1679,2.1533,2.1489,2.1554,2.1708,2.1854,2.2096,2.2512,2.2592,2.2804,2.3493,2.3742,2.4027,2.4536,2.4756,2.5034,0.0,0.0,2.5427,2.5293,2.5173,2.5093,2.5093,2.5093,2.5093,2.5093,2.5779,2.5846,2.5127,2.6535,2.6841,2.5873,2.722,2.754,2.6809,2.8557,2.955,2.9865,3.0851,3.1643,3.2301,0.0,3.3386,3.3386,3.3386,3.3386,3.3386,3.3386,3.3386,3.3386,3.3386,3.3386,3.3386,3.3386,3.3386,3.3386,3.3386,3.3386,3.3386,3.3386,3.3386,3.3386,3.3386,3.3386,3.3386,3.3386,3.325,3.3135,3.3135,3.2988,3.2783,3.2559,3.2355,3.2071,3.1601,3.168,3.168,3.125,3.1562,3.1709,3.125,3.1211,3.1152,3.0918,3.0889,3.0889,3.0889,3.0889,3.0889,3.0889,3.0889,3.0889,3.0889,3.0889,3.0889,3.0889,3.0889,3.0889,3.0889,3.0889,3.0889,3.0889,3.0889,3.0889,3.0889,3.0889,3.0889,1.944,2.0098,2.0729,2.0882,2.1657,2.2425,2.2506,2.2286,2.2111,2.2257,2.2286,2.2381,2.2651,2.2864,2.3076,2.3427,2.3823,2.4177,2.4353,2.4653,2.4888,2.4968,2.5227,2.5322,2.5115,2.5093,2.5221,2.5551,2.5584,2.5712,2.604,2.702,2.708,2.5959,2.7974,2.8355,2.6874,2.8258,2.8418,2.7383,2.9599,3.0309,2.9609,3.0778,3.1474,3.1845,3.2924,3.3386,3.3386,3.3386,3.3386,3.3386,3.3386,3.3386,3.3386,3.3386,3.3386,3.3386,3.3386,3.3386,3.3386,3.3386,3.3386,3.3386,3.3386,3.3386,3.3386,3.3386,3.3386,3.3386,3.3386,3.3386,3.3386,3.3386,3.3318,3.3213,3.2988,3.2607,3.2217,3.1875,3.1786,3.168,3.126,3.168,3.1827,3.1133,3.123,3.126,3.0928,3.0889,3.0889,3.0889,3.0889,3.0889,3.0889,3.0889,3.0889,3.0889,3.0889,3.0889,3.0889,3.0889,3.0889,3.0889,3.0889,3.0889,3.0889,3.0889,3.0889,3.0889,3.0889,3.0889,1.9896,2.0415,2.0839,2.1474,2.1693,2.184,2.2147,2.1964,2.1891,2.2476,2.2563,2.2658,2.3018,2.3567,2.3793,2.3237,2.3676,2.3984,2.3706,0.0,2.4302,2.4602,2.4924,2.5115,2.5093,2.5093,2.5611,2.6853,2.6953,2.7543,2.883,2.8994,2.8824,2.8363,2.8547,2.8401,2.7908,2.9297,2.9928,2.9844,2.9142,3.0103,3.2483,3.1658,3.2005,3.326,3.3355,3.3386,3.3386,3.3386,3.3386,3.3386,3.3386,3.3386,3.3386,3.3386,3.3386,3.3386,3.3386,3.3386,3.3386,3.3386,3.3386,3.3386,3.3386,3.3386,3.3386,3.3386,3.3386,3.3386,3.3386,3.3386,3.3386,3.3386,3.3125,3.2939,3.3269,3.3047,3.2744,3.2705,3.2705,3.2568,3.2179,3.1787,3.1543,3.1484,3.1162,3.0928,3.0898,3.0889,3.0889,3.0889,3.0889,3.0889,3.0889,3.0889,3.0889,3.0889,3.0889,3.0889,3.0889,3.0889,3.0889,3.0889,3.0889,3.0889,3.0889,3.0889,3.0889,3.0889,3.0889,3.0889,1.9542,2.0172,2.0758,2.0999,2.1547,2.2081,2.2389,2.2359,2.2366,2.2835,2.2892,0.0,0.0,2.3479,2.3764,2.372,2.3749,2.3808,2.3888,2.383,2.383,2.3947,2.4287,2.4774,2.558,2.5678,2.6217,2.7552,2.788,2.8172,2.8426,2.9506,2.9549,2.8277,2.9914,3.0198,2.8888,3.026,3.0852,3.0604,3.1027,3.1759,3.2812,3.2678,3.2892,3.3386,3.3386,3.3386,3.3386,3.3386,3.3386,3.3386,3.3386,3.3386,3.3386,3.3386,3.3386,3.3386,3.3386,3.3386,3.3386,3.3386,3.3386,3.3386,3.3386,3.3386,3.3386,3.3386,3.3386,3.3386,3.3386,3.3386,3.3386,3.3386,3.3269,3.3191,3.3357,3.3086,3.2793,3.2793,3.2363,3.1943,3.1787,3.1621,3.1426,3.1162,3.1211,3.1182,3.0928,3.0889,3.0889,3.0889,3.0889,3.0889,3.0889,3.0889,3.0889,3.0889,3.0889,3.0889,3.0889,3.0889,3.0889,3.0889,3.0889,3.0889,3.0889,3.0889,3.0889,3.0889,3.0889,3.0889,1.955,2.0142,2.0744,2.0948,2.1533,2.2132,2.2497,2.2592,2.2687,2.304,2.3106,2.3106,2.3106,0.0,0.0,0.0,2.383,2.383,2.4082,2.3888,2.391,2.431,2.4545,2.5221,2.6519,2.6639,2.721,2.8557,2.8918,2.9204,2.9502,3.0674,3.074,2.9364,3.1183,3.1452,2.9901,3.0959,3.1377,3.1103,3.2246,3.2725,3.2617,3.3174,3.3386,3.3386,3.3386,3.3386,3.3386,3.3386,3.3386,3.3386,3.3386,3.3386,3.3386,3.3386,3.3386,3.3386,3.3386,3.3386,3.3386,3.3386,3.3386,3.3386,3.3386,3.3386,3.3386,3.3386,3.3386,3.3386,3.3386,3.3386,3.3386,3.3386,3.3289,3.3262,3.3357,3.3086,3.2832,3.2969,3.2412,3.1875,3.1748,3.1728,3.1582,3.1152,3.1445,3.1621,3.1358,3.1319,3.1319,3.1319,3.1172,3.1094,3.1094,3.0967,3.0889,3.0889,3.0889,3.0889,3.0889,3.0889,3.0889,3.0889,3.1025,3.1094,3.1094,3.123,3.1319,3.1319,3.1319,3.1319,2.0115,2.0444,2.0846,2.1525,2.1693,2.1869,2.2453,2.2592,2.2687,2.304,2.3106,2.3106,2.3106,2.3376,0.0,2.3596,2.3874,2.4118,2.4086,2.4118,2.4558,2.5856,2.5984,2.6519,2.7889,2.8014,2.8611,3.0007,3.0109,3.0912,3.2702,3.2793,3.2638,3.2208,3.2198,3.1798,3.0918,3.1318,3.1523,3.1503,3.2383,3.2609,3.2237,3.3037,3.3386,3.3386,3.3386,3.3386,3.3386,3.3386,3.3386,3.3386,3.3386,3.3386,3.3386,3.3386,3.3386,3.3386,3.3386,3.3386,3.3386,3.3386,3.3386,3.3386,3.3386,3.3386,3.3386,3.3386,3.3386,3.3386,3.3386,3.3386,3.3377,3.3386,3.3105,3.291,3.3299,3.3086,3.292,3.3308,3.3086,3.2666,3.2276,3.2198,3.2052,3.1592,3.1894,3.2198,3.2198,3.2198,3.2198,3.2198,3.1777,3.1484,3.1484,3.1133,3.0889,3.0889,3.0889,3.0889,3.0889,3.0889,3.0889,3.0889,3.1299,3.1484,3.1484,3.1953,3.2198,3.2198,3.2198,3.2198,1.9601,2.0128,2.0744,2.0962,2.1657,2.2366,2.2548,2.2592,2.2687,2.304,2.3106,2.3106,2.3106,2.3376,0.0,2.3903,2.4053,2.4199,2.4426,2.4265,2.4623,2.5984,2.6144,2.6921,2.8922,2.9119,2.9678,3.0989,3.1397,3.1811,3.2353,3.2637,3.2638,3.2208,3.2198,3.2081,3.1827,3.1944,3.2003,3.2013,3.2267,3.2472,3.2627,3.3174,3.3386,3.3386,3.3386,3.3386,3.3386,3.3386,3.3386,3.3386,3.3386,3.3386,3.3386,3.3386,3.3386,3.3386,3.3386,3.3386,3.3386,3.3386,3.3386,3.3369,3.3066,3.3193,3.3328,3.3066,3.2978,3.3047,3.3318,3.2978,3.2685,3.3281,3.3105,3.291,3.3299,3.3086,3.292,3.3308,3.3086,3.2754,3.2627,3.2394,3.2159,3.1992,3.212,3.2198,3.2198,3.2198,3.2198,3.2198,3.1777,3.1484,3.1484,3.1133,3.0889,3.0889,3.0889,3.0889,3.0889,3.0889,3.0889,3.0889,3.1299,3.1484,3.1484,3.1953,3.2198,3.2198,3.2198,3.2198,2.0214,2.0669,2.1203,2.1547,2.2117,2.2621,2.2784,2.2789,2.2871,2.3069,2.3106,2.3106,2.3106,2.3376,0.0,2.406,2.467,2.5257,2.5557,2.5799,2.6472,2.7832,2.7864,2.8532,3.045,3.0613,3.0955,3.1707,3.2052,3.2276,3.2443,3.2656,3.2685,3.2452,3.2452,3.2364,3.2198,3.2364,3.2364,3.2208,3.2531,3.2715,3.2803,3.3057,3.3262,3.3386,3.3386,3.3386,3.3386,3.3386,3.3386,3.3386,3.3386,3.3386,3.3386,3.3386,3.3386,3.3386,3.3386,3.3386,3.3386,3.3386,3.3386,3.3347,3.3115,3.3223,3.3308,3.291,3.292,3.3027,3.2939,3.2666,3.2579,3.3057,3.2851,3.2666,3.3076,3.2969,3.292,3.3308,3.3213,3.2988,3.2822,3.2725,3.2607,3.2472,3.2559,3.2666,3.2666,3.2666,3.2666,3.2666,3.2275,3.2021,3.2021,3.1484,3.1143,3.1143,3.0986,3.0967,3.1133,3.1143,3.1143,3.1143,3.1728,3.2021,3.2031,3.2451,3.2666,3.2666,3.2666,3.2666,2.1313,2.1606,2.1876,2.2791,2.2842,2.2747,2.304,2.3106,2.3106,2.3106,2.3106,2.3106,2.3106,2.3398,2.3799,2.4222,2.5666,2.682,2.7072,2.8112,2.9256,3.0434,3.042,3.0819,3.2135,3.2257,3.2257,3.2257,3.2257,3.2443,3.2832,3.2851,3.2851,3.2851,3.2851,3.2666,3.2316,3.2666,3.2656,3.2325,3.3018,3.3184,3.2851,3.2851,3.3057,3.3386,3.3386,3.3386,3.3386,3.3386,3.3386,3.3386,3.3386,3.3386,3.3386,3.3386,3.3386,3.3386,3.3386,3.3386,3.3386,3.3386,3.3386,3.3386,3.3347,3.3357,3.333,3.2871,3.3037,3.3184,3.2413,3.2452,3.2676,3.2676,3.2383,3.2257,3.2646,3.2705,3.2803,3.3191,3.3279,3.3152,3.2803,3.3057,3.3193,3.2842,3.3115,3.3347,3.3386,3.3386,3.3386,3.3386,3.3047,3.2783,3.2744,3.1992,3.1474,3.1465,3.1133,3.1123,3.1474,3.1484,3.1503,3.1542,3.2383,3.2793,3.2793,3.3213,3.3386,3.3386,3.3386,3.3386,2.04,2.0897,2.1489,2.2206,2.2696,2.3025,2.3091,2.3106,2.3106,2.3106,2.3106,2.3106,2.3106,2.3581,2.4379,2.5559,2.6473,2.7032,2.707,2.8262,2.9234,2.9485,3.0439,3.1485,3.2562,3.2656,3.2656,3.2656,3.2656,3.2842,3.3262,3.3281,3.3281,3.3281,3.3281,3.3242,3.3154,3.3242,3.3242,0.0,3.2998,3.3057,3.3281,3.3281,3.3308,3.3386,3.3386,3.3386,3.3386,3.3386,3.3386,3.3386,3.3386,3.3386,3.3386,3.3386,3.3386,3.3386,3.3386,3.3386,3.3386,3.3386,3.3386,3.3328,3.3027,3.3164,3.324,3.2519,3.2607,3.2812,3.2335,3.1982,3.1787,3.1787,3.1719,3.1777,3.2237,3.2031,3.1914,3.2384,3.2472,3.2443,3.2345,3.2413,3.255,3.2764,3.2871,3.3047,3.3347,3.3386,3.3386,3.3386,3.3047,3.2666,3.2364,3.1826,3.1377,3.1045,3.125,3.1426,3.1514,3.1484,3.168,3.2052,3.2529,3.2793,3.2793,3.3213,3.3386,3.3386,3.3386,3.3386,2.0494,2.1064,2.1635,2.2425,2.2871,2.3106,2.3106,2.3106,2.3106,2.3106,2.3106,2.3106,2.3106,2.4007,2.5015,2.5763,2.7526,2.8743,2.8573,2.9378,2.9944,2.9717,3.0325,3.106,3.1821,3.2442,3.2881,3.3076,3.3096,3.3193,3.3377,3.3386,3.3386,3.3386,3.3386,3.3386,3.3386,3.3386,3.3386,3.3386,3.3203,3.3213,3.3386,3.3386,3.3386,3.3386,3.3386,3.3386,3.3386,3.3386,3.3386,3.3386,3.3386,3.3386,3.3386,3.3386,3.3386,3.3386,3.3386,3.3386,3.3386,3.3386,3.3386,3.3347,3.3164,3.322,3.3259,3.2646,3.2627,3.2656,3.2021,3.1846,3.1728,3.1318,3.1211,3.1338,3.1758,3.168,3.165,3.212,3.2198,3.2198,3.2198,3.2198,3.2345,3.2734,3.2627,3.2646,3.3066,3.3115,3.3115,3.3115,3.3105,3.3008,3.2793,3.2187,3.1738,3.1553,3.1514,3.1611,3.1816,3.2021,3.2236,3.2492,3.2881,3.3096,3.3096,3.331,3.3386,3.3386,3.3386,3.3386,2.0706,2.1408,2.1979,2.282,2.3069,2.3106,2.3106,2.3106,2.3106,2.3106,2.3106,2.3106,2.3106,2.4422,2.5525,2.5517,2.8197,3.013,2.9804,3.0352,3.0622,3.022,3.0408,3.072,3.117,3.2174,3.2969,3.3357,3.3386,3.3357,3.3289,3.331,3.331,3.331,3.331,3.3318,3.3386,3.3386,3.3386,3.3386,3.3386,3.3386,3.3386,3.3386,3.3386,3.3386,3.3386,3.3386,3.3386,3.3386,3.3386,3.3386,3.3386,3.3386,3.3386,3.3386,3.3386,3.3386,3.3386,3.3386,3.3386,3.3386,3.3338,3.333,3.3367,3.3289,3.3135,3.2783,3.2685,3.249,3.1631,3.1728,3.1885,3.1074,3.0889,3.0986,3.1338,3.1435,3.1601,3.1925,3.1983,3.1983,3.1983,3.1983,3.212,3.251,3.2275,3.2237,3.2637,3.2685,3.2715,3.2793,3.3105,3.331,3.331,3.2607,3.2169,3.2091,3.1719,3.168,3.2071,3.2529,3.2793,3.2793,3.3203,3.3386,3.3386,3.3386,3.3386,3.3386,3.3386,3.3386,2.0064,2.1218,2.2213,2.2593,2.2901,2.3106,2.3106,2.3106,2.3106,2.3106,2.3106,2.3106,2.3106,2.4422,2.5549,2.5643,2.7232,2.8438,2.8363,2.9484,3.0247,3.014,3.1183,3.21,3.2496,3.27,3.2969,3.3357,3.3386,3.3262,3.29,3.2881,3.2881,3.2881,3.2881,3.3057,3.3386,3.3386,3.3386,3.3386,3.3386,3.3386,3.3386,3.3386,3.3386,3.3386,3.3386,3.3386,3.3386,3.3386,3.3386,3.3386,3.3386,3.3386,3.3386,3.3386,3.3386,3.3386,3.3386,3.3386,3.3386,3.3386,3.3174,3.2949,3.3279,3.291,3.2355,3.2296,3.2286,3.2091,3.1201,3.1289,3.1484,3.1006,3.0889,3.0908,3.0967,3.126,3.1426,3.1123,3.1055,3.1055,3.1055,3.1055,3.1201,3.1621,3.1641,3.1758,3.2228,3.2286,3.2423,3.2754,3.2842,3.2881,3.2881,3.2472,3.2042,3.1631,3.1513,3.1543,3.1601,3.2373,3.2793,3.2793,3.3203,3.3386,3.3386,3.3386,3.3386,3.3386,3.3386,3.3386,2.0115,2.1057,2.1796,2.2424,2.2702,2.2855,2.3069,2.3106,2.3106,2.3106,2.3106,2.3324,2.4092,2.5376,2.658,2.7357,2.8298,2.8852,2.8599,2.8043,2.7847,2.8294,2.8276,2.8946,3.0837,3.1006,3.1493,3.2655,3.2725,3.2637,3.2482,3.2472,3.2472,3.2472,3.2666,3.2881,3.3066,3.3301,3.3386,3.3386,3.3386,3.3269,3.3066,3.3066,3.3203,3.3386,3.3386,3.3386,3.3386,3.3386,3.3386,3.3386,3.3386,3.3386,3.3386,3.3386,3.3386,3.3386,3.3386,3.3386,3.3386,3.3386,3.3135,3.2832,3.3018,3.2812,3.2501,3.2267,3.2198,3.211,3.1739,3.1562,3.1475,3.1289,3.1426,3.1475,3.0996,3.1035,3.1113,3.0928,3.0889,3.0889,3.0889,3.0889,3.1035,3.1425,3.1318,3.1318,3.1748,3.1807,3.1875,3.206,3.251,3.2695,3.2492,3.2306,3.2013,3.1513,3.1484,3.1484,3.1484,3.2109,3.2472,3.2472,3.3086,3.3386,3.3386,3.3386,3.3386,3.3386,3.3386,3.3269,2.0106,2.0988,2.1634,2.2119,2.2652,2.3048,2.2992,2.3047,2.3106,2.3106,2.3355,2.3969,2.5227,2.6288,2.7315,2.8265,2.8997,2.9299,2.8966,2.7531,2.6884,2.7861,2.7164,2.7483,2.986,3.0088,3.0668,3.2098,3.2198,3.2149,3.2042,3.2032,3.2032,3.2032,3.2305,3.2578,3.2793,3.3213,3.3386,3.3386,3.331,3.3096,3.2793,3.2685,3.2803,3.3105,3.3105,3.3164,3.3262,3.3262,3.333,3.3386,3.3386,3.3386,3.3386,3.3386,3.3386,3.3386,3.3386,3.3386,3.3386,3.3386,3.3135,3.2812,3.292,3.2803,3.2619,3.2413,3.2198,3.2032,3.2032,3.168,3.1357,3.1357,3.1601,3.1729,3.1162,3.0967,3.0889,3.0889,3.0889,3.0889,3.0889,3.0889,3.0996,3.1309,3.1094,3.1006,3.1318,3.1357,3.1396,3.1474,3.209,3.2383,3.2218,3.2101,3.1865,3.1503,3.1416,3.1357,3.1357,3.1777,3.2032,3.2032,3.2725,3.3105,3.3105,3.3213,3.3262,3.3262,3.3338,3.322,1.9649,2.1116,2.2245,2.1474,2.2806,2.4012,2.2882,2.2855,2.3106,2.3106,2.4116,2.5266,2.6168,2.6705,2.7013,2.7103,2.8134,2.8938,2.889,2.879,2.9224,3.0528,3.0645,3.081,3.1356,3.1394,3.1639,3.2169,3.2198,3.2013,3.1572,3.1553,3.1553,3.1553,3.1572,3.1973,3.2793,3.3213,3.3386,3.3386,3.3018,3.2822,3.2783,3.2413,3.2247,3.2257,3.2257,3.2492,3.2832,3.2832,3.3066,3.3386,3.3386,3.3386,3.3386,3.3386,3.3386,3.3386,3.3386,3.3386,3.3386,3.3386,3.3135,3.2871,3.324,3.2832,3.2306,3.2656,3.2178,3.1553,3.1553,3.124,3.0928,3.0928,3.0947,3.1055,3.1406,3.1172,3.0889,3.0889,3.0889,3.0889,3.0889,3.0889,3.0898,3.0918,3.0898,3.0898,3.0918,3.0928,3.1074,3.1445,3.1533,3.1738,3.2159,3.1787,3.1543,3.1484,3.1143,3.0928,3.0928,3.1328,3.1553,3.1553,3.2002,3.2257,3.2267,3.2637,3.2832,3.2832,3.3232,3.3377,1.9356,2.0108,2.0943,2.1711,2.2122,2.2462,2.2931,2.2894,2.2767,2.2767,2.4032,2.546,2.6593,2.7347,2.8104,2.8924,2.8749,2.8606,2.8854,2.8206,2.8155,2.9471,2.8879,2.9092,3.0947,3.0337,3.0246,3.1279,3.1377,3.1279,3.1123,3.1113,3.1113,3.1113,3.1377,3.1934,3.2793,3.3213,3.3386,3.3386,3.2998,3.2656,3.2413,3.1943,3.1601,3.1377,3.1377,3.1894,3.2793,3.2793,3.3037,3.3386,3.3386,3.322,3.3018,3.3018,3.2842,3.2656,3.293,3.3018,3.3066,3.3308,3.3135,3.2822,3.2969,3.2812,3.249,3.209,3.1953,3.1875,3.1592,3.1201,3.0889,3.0889,3.0889,3.0928,3.1084,3.0996,3.0889,3.0889,3.0889,3.0889,3.0889,3.0889,3.0889,3.0889,3.0889,3.0889,3.0889,3.0889,3.0947,3.1103,3.1357,3.1475,3.1357,3.1455,3.1406,3.1133,3.0976,3.0889,3.0889,3.1035,3.1113,3.1113,3.1269,3.1788,3.2609,3.2725,3.2793,3.2803,3.3191,3.3135,1.9019,1.965,2.0416,2.1355,2.1618,2.182,2.2584,2.2935,2.2999,2.2654,2.4277,2.5979,2.6661,2.7482,2.8599,3.018,2.9594,2.9092,2.9504,2.8849,2.8611,2.9471,2.882,2.8977,3.0733,3.0089,2.9932,3.083,3.0889,0.0,3.0245,3.0245,3.0245,3.0245,3.1052,3.1645,3.1901,3.277,3.302,3.2692,3.2624,3.2472,3.2179,3.1572,3.1152,3.0889,3.0889,3.1455,3.2363,3.2363,3.2617,3.2998,3.2998,3.2832,3.2598,3.2744,3.2617,3.2452,3.2695,3.2793,3.2842,3.3115,3.293,3.2607,3.2754,3.2793,3.2676,3.2109,3.2051,3.213,3.1816,3.1318,3.0889,3.0889,3.0889,3.0889,3.0889,3.0889,3.0889,3.0889,3.0889,3.0889,3.0889,3.0889,3.0889,3.0889,3.0889,3.0889,3.0889,3.0889,3.0889,3.0889,3.1143,3.1191,3.0918,3.1143,3.1182,3.0908,3.0889,3.0889,3.0889,3.1025,3.1103,3.1103,3.1103,3.1592,3.2588,3.2588,3.251,3.2383,3.3096,3.2969,0.0,0.0,0.0,2.0337,2.1334,2.2304,2.1829,2.292,2.3754,2.2824,2.4899,2.6799,2.6469,2.7053,2.8309,3.0519,3.0478,3.0342,3.082,3.0889,3.0889,3.0889,3.0889,3.0889,3.0889,3.0859,3.083,3.083,3.0801,3.0245,2.8979,2.895,2.895,2.889,3.0548,3.1008,3.01,3.1808,3.2228,3.1304,3.188,3.2117,3.2067,3.1269,3.0908,3.085,3.0898,3.1123,3.1474,3.1514,3.1777,3.2198,3.2198,3.2189,3.2228,3.2607,3.2744,3.2744,3.2754,3.2764,3.2764,3.2773,3.2531,3.2276,3.2656,3.2783,3.2793,3.2764,3.2471,3.2189,3.2169,3.1543,3.0889,3.0889,3.0889,3.0889,3.0889,3.0889,3.0889,3.0889,3.0889,3.0889,3.0889,3.0889,3.0889,3.0889,3.0889,3.0889,3.0889,3.0889,3.0889,3.0889,3.0889,3.0889,3.0889,3.0889,3.0889,3.0889,3.0889,3.0889,3.0889,3.1279,3.1474,3.1484,3.1484,3.1728,3.2179,3.2189,3.1983,3.1562,3.2772,3.2949,1.8386,0.0,0.0,0.0,0.0,0.0,0.0,2.2127,2.192,2.2895,2.3864,2.4919,2.6168,2.714,2.8331,3.0092,3.0029,3.0038,3.0781,3.0889,3.0889,3.0889,3.0889,3.0889,3.0889,3.002,2.9442,0.0,2.8611,2.8313,2.8861,2.9815,2.9903,2.892,2.9714,3.0153,3.0183,3.0,3.0397,3.1313,3.1156,3.0593,2.9645,3.0797,3.0784,2.9841,3.0595,3.0957,3.1094,3.1396,3.1777,3.2198,3.2198,3.2003,3.1709,3.1826,3.168,3.1465,3.1768,3.1875,3.1924,3.2267,3.2296,3.2218,3.2335,3.2559,3.2666,3.2051,3.2012,3.2052,3.1406,3.1074,3.0889,3.0889,3.0889,3.0889,3.0889,3.0889,3.0889,3.0889,3.0889,3.0889,3.0889,3.0889,3.0889,3.0889,3.0889,3.0889,3.0889,3.0889,3.0889,3.0889,3.0889,3.0889,3.0889,3.0889,3.0889,3.0889,3.0889,3.0889,3.0889,3.1006,3.1211,3.1484,3.1484,3.1542,3.1699,3.2042,3.214,3.1992,3.2384,3.2559,0.0,0.0,0.0,0.0,0.0,0.0,2.1671,2.1783,2.1752,2.2488,2.3676,2.4746,2.5323,2.6143,2.7134,2.8435,2.8329,2.8728,3.0645,3.0889,3.0704,3.0118,3.0059,2.9853,2.9313,2.8582,2.8116,2.8116,2.7435,2.7315,2.8056,2.8849,2.9155,2.892,2.9873,3.0314,3.0152,2.9771,2.9876,3.0443,3.0592,2.995,2.8672,3.0832,3.0628,2.8678,2.9836,3.0251,3.0078,3.0316,3.0901,3.1661,3.1661,3.1484,3.1279,3.1425,3.1367,3.1182,3.1435,3.1484,3.1562,3.1816,3.1777,3.17,3.1846,3.207,3.2158,3.163,3.1699,3.1738,3.1064,3.0889,3.0889,3.0889,3.0889,3.0889,3.0889,3.0889,3.0889,3.0889,3.0889,3.0889,3.0889,3.0889,3.0889,3.0889,3.0889,3.0889,3.0889,3.0889,3.0889,3.0889,3.0889,3.0889,3.0889,3.0889,3.0889,3.0889,3.0889,3.0976,3.1143,3.1152,3.1435,3.2041,3.1699,3.1484,3.1484,3.1953,3.2198,3.2189,3.1837,3.1983,0.0,0.0,0.0,0.0,0.0,0.0,2.0499,2.1551,2.2206,2.179,2.3682,2.5116,2.4253,2.4667,2.5426,2.6353,2.6333,2.7173,3.0052,3.047,3.003,2.884,2.8683,2.8236,2.7103,2.6862,2.6801,2.6801,2.6801,2.6862,2.6983,2.7134,2.7735,2.8861,3.0459,3.0908,3.013,3.0291,3.0079,2.9435,3.0261,2.9932,2.8749,3.1104,3.06,2.785,2.921,2.9446,2.892,2.9078,2.9805,3.0889,3.0889,3.0889,3.0937,3.1309,3.1416,3.1416,3.1416,3.1416,3.1416,3.1416,3.1191,3.0976,3.1396,3.1553,3.1601,3.1611,3.1601,3.1504,3.1133,3.0996,3.0957,3.0957,3.0928,3.0889,3.0889,3.0889,3.0889,3.0889,3.0889,3.0889,3.0889,3.0889,3.0889,3.0889,3.0889,3.0889,3.0889,3.0889,3.0908,3.0957,3.0918,3.0908,3.0957,3.0918,3.0908,3.0957,3.0957,3.1152,3.1572,3.1592,3.1973,3.2773,3.2002,3.1592,3.1592,3.1934,3.2149,3.2179,3.1338,3.1396,0.0,0.0,0.0,0.0,0.0,0.0,2.0609,2.0402,2.031,2.153,2.2042,2.2651,2.3873,2.4491,2.5167,2.6314,2.7297,2.7865,2.7794,2.7774,2.7645,2.7405,2.7375,2.7284,2.7013,2.6073,2.5462,2.5462,2.5462,2.592,2.6961,2.7966,2.8653,2.889,2.9594,3.0032,3.0183,2.9136,2.9376,3.0886,3.0432,2.9824,2.9143,3.1245,3.1268,2.9654,3.067,3.0282,2.8979,3.0059,3.0645,3.0889,3.0889,3.0889,3.0898,3.0986,3.1016,3.1016,3.1016,3.1016,3.1016,3.1016,3.0957,3.0976,3.1396,3.1758,3.214,3.2451,3.2305,3.2052,3.1973,3.166,3.1367,3.1367,3.1133,3.0889,3.0889,3.0889,3.0889,3.0889,3.0889,3.0889,3.0889,3.0889,3.0889,3.0889,3.0889,3.0889,3.0889,3.0889,3.1025,3.1357,3.1094,3.1025,3.1367,3.1084,3.1035,3.1377,3.1367,3.1592,3.2052,3.2071,3.2316,3.2783,3.2325,3.2071,3.2071,3.1777,3.1826,3.2189,3.1641,3.168,0.0,0.0,0.0,1.9261,0.0,0.0,0.0,0.0,1.9838,2.0798,2.137,2.1801,2.2097,2.3444,2.4568,2.4718,2.5532,2.5982,2.5532,2.7468,2.8701,2.8035,2.7937,2.7697,2.7043,2.6407,2.5776,2.5164,2.5102,2.5378,2.602,2.678,2.7817,2.9223,2.984,3.0572,3.1508,3.0311,3.0251,3.1281,3.0178,2.9395,2.8948,3.0679,3.0461,2.8879,3.0051,2.9914,2.895,2.9628,3.0304,3.0889,3.0889,3.0889,3.0889,3.0889,3.0889,3.0889,3.0889,3.0889,3.0889,3.0889,3.0889,3.0928,3.1143,3.1357,3.1602,3.1787,3.1846,3.1846,3.1846,3.1846,3.1787,3.1572,3.1357,3.1143,3.0937,3.0889,3.0889,3.0889,3.0889,3.0889,3.0889,3.0889,3.0889,3.0889,3.0889,3.0889,3.0889,3.0889,3.0976,3.1182,3.1016,3.1064,3.1484,3.1133,3.1064,3.1455,3.1484,3.1709,3.2179,3.2198,3.2198,3.2158,3.2198,3.1993,3.1563,3.1309,3.1318,3.1553,3.1309,3.1435,0.0,0.0,0.0,0.0,0.0,1.9356,0.0,0.0,0.0,0.0,0.0,0.0,0.0,0.0,0.0,2.3087,0.0,0.0,0.0,2.8022,0.0,2.7855,2.7711,2.7353,2.6276,2.6147,2.5755,2.4795,2.467,2.4755,2.5071,2.5366,2.6633,2.9122,2.9891,3.0852,3.1987,3.1461,3.1171,3.1162,3.0232,2.9611,2.9327,3.0482,3.0032,2.8456,2.9501,2.9612,2.906,2.9224,2.9785,3.0548,3.0801,3.0889,3.0889,3.0889,3.0889,3.0889,3.0889,3.0889,3.0889,3.0889,3.0947,3.1016,3.1016,3.1074,3.1133,3.1133,3.1435,3.1758,3.1758,3.2031,3.2228,3.1846,3.1611,3.1396,3.1084,3.0947,3.0889,3.0889,3.0889,3.0889,3.0889,3.0889,3.0889,3.0889,3.0889,3.0889,3.0889,3.0889,3.0918,3.1006,3.0937,3.1094,3.1601,3.1182,3.1103,3.1611,3.1641,3.1836,3.2306,3.2394,3.2246,3.1864,3.2101,3.1895,3.126,3.1016,3.0889,3.0889,3.0889,3.1074,0.0,0.0,0.0,0.0,1.9085,0.0,0.0,0.0,0.0,0.0,0.0,0.0,0.0,0.0,0.0,0.0,0.0,0.0,2.6079,2.8237,2.8066,2.3513,2.3428,2.36,2.3155,2.3094,2.316,2.3333,2.305,2.3527,2.5025,2.5366,2.6197,2.7698,2.8461,2.8921,2.9081,3.0185,3.0759,3.0791,3.1496,3.1838,3.179,3.1952,3.1894,3.1656,3.14,3.0619,2.9584,3.0339,3.0059,2.9255,3.0431,3.0889,3.0889,3.0889,3.0889,3.0889,3.0889,3.0889,3.0889,3.0889,3.1143,3.1416,3.1416,3.1719,3.2052,3.2052,3.2324,3.2646,3.2646,3.2685,3.2715,3.2666,3.207,3.1474,3.1425,3.1152,3.0889,3.0889,3.0889,3.0889,3.0889,3.0889,3.0889,3.0889,3.0889,3.0889,3.0889,3.0889,3.1035,3.1377,3.1113,3.1221,3.2061,3.1387,3.126,3.2071,3.213,3.2316,3.2705,3.3076,3.322,3.3181,3.255,3.2335,3.2578,3.1445,3.0889,3.0889,3.0889,3.0918,0.0,0.0,0.0,0.0,0.0,0.0,0.0,0.0,1.9078,0.0,0.0,0.0,0.0,0.0,0.0,0.0,2.3739,0.0,0.0,0.0,2.714,0.0,0.0,0.0,2.5978,2.5919,2.5458,2.434,2.5266,2.5767,2.5458,2.5668,2.6549,2.8212,2.792,2.8129,2.8943,3.0353,3.1034,3.1066,3.1488,3.1865,3.2168,3.1336,3.114,3.1386,3.0422,3.0129,3.0307,2.992,2.9873,3.0118,3.0674,3.0889,3.0889,3.0889,3.0889,3.0889,3.0889,3.0889,3.0889,3.0889,3.1006,3.1152,3.1152,3.1279,3.1455,3.1455,3.1944,3.2462,3.2462,3.2793,3.3096,3.2851,3.2519,3.2119,3.1621,3.1377,3.1182,3.0937,3.0889,3.0889,3.0889,3.0889,3.0889,3.0889,3.0889,3.0889,3.0889,3.0889,3.0957,3.1133,3.0996,3.1133,3.1738,3.124,3.126,3.2149,3.2423,3.2725,3.3144,3.3299,3.3279,3.3066,3.2715,3.2531,3.2462,3.1641,3.1387,3.1651,3.1152,3.1025,1.9305,0.0,0.0,0.0,0.0,0.0,0.0,0.0,0.0,0.0,0.0,0.0,0.0,0.0,0.0,0.0,0.0,0.0,0.0,2.5837,0.0,0.0,0.0,0.0,0.0,2.7501,2.6739,2.5041,2.6618,2.707,2.5751,2.6262,2.7073,2.8209,2.749,2.7411,2.8073,2.9826,3.068,3.0563,3.1349,3.1809,3.1962,3.0942,3.0711,3.0996,2.9921,3.0058,3.0986,2.9891,3.003,3.0889,3.0889,3.0889,3.0889,3.0889,3.0889,3.0889,3.0889,3.0889,3.0889,3.0889,3.0889,3.0889,3.0889,3.0889,3.0889,3.0889,3.1534,3.2198,3.2198,3.2793,3.3318,3.3037,3.2881,3.2598,3.1855,3.1601,3.1396,3.0976,3.0889,3.0889,3.0889,3.0889,3.0889,3.0889,3.0889,3.0889,3.0889,3.0889,3.0889,3.0889,3.0889,3.1064,3.1484,3.1133,3.126,3.2149,3.2589,3.2978,3.3377,3.3386,3.325,3.2969,3.2851,3.2705,3.254,3.1846,3.1797,3.2355,3.1465,3.123,0.0,0.0,0.0,1.8474,0.0,0.0,0.0,0.0,1.8909,0.0,0.0,0.0,0.0,0.0,0.0,0.0,0.0,0.0,0.0,0.0,0.0,0.0,0.0,0.0,0.0,2.5483,2.5068,0.0,2.5394,2.5898,2.5712,2.7169,2.7639,2.6783,2.697,2.6494,2.5255,2.7916,2.9059,2.8714,3.1455,3.2333,3.1513,3.1483,3.1464,3.1445,3.1006,3.1084,3.1435,3.0996,3.0859,3.0889,3.0889,3.0889,3.0889,3.0889,3.0889,3.0889,3.0889,3.0889,3.0889,3.0889,3.0889,3.0889,3.0889,3.0889,3.0889,3.0889,3.1534,3.2198,3.2198,3.2793,3.3386,3.3377,3.3086,3.2676,3.2276,3.1816,3.1396,3.0976,3.0889,3.0889,3.0889,3.0889,3.0889,3.0889,3.0889,3.0889,3.0889,3.0889,3.0889,3.0889,3.0889,3.1064,3.1484,3.1133,3.126,3.2149,3.2589,3.2978,3.3377,3.3386,3.3386,3.3377,3.2998,3.2988,3.3347,3.2098,3.1953,3.2754,3.1894,3.1474,0.0,0.0,1.9195,1.873,0.0,0.0,0.0,0.0,0.0,0.0,0.0,0.0,0.0,0.0,0.0,0.0,0.0,0.0,0.0,0.0,0.0,0.0,0.0,0.0,0.0,0.0,0.0,0.0,2.6893,0.0,0.0,2.9008,2.896,2.799,2.7383,2.646,2.5119,2.6894,2.8205,2.9018,3.0633,3.1598,3.1934,3.165,3.1367,3.1064,3.0028,3.0165,3.0966,2.9092,2.9342,3.0801,2.9932,3.0118,3.0889,3.0889,3.0889,3.0889,3.0889,3.0889,3.0889,3.0889,3.0889,3.0889,3.0889,3.0889,3.0889,3.0889,3.1299,3.1807,3.212,3.2588,3.3076,3.335,3.331,3.3096,3.2676,3.2461,3.2236,3.1846,3.1504,3.1309,3.1309,3.1074,3.0889,3.0889,3.0889,3.0889,3.0889,3.0889,3.0889,3.0889,3.0889,3.0947,3.1094,3.123,3.1553,3.2159,3.2589,3.2978,3.3377,3.3386,3.3386,3.3386,3.3281,3.325,3.3386,3.2432,3.2246,3.2773,3.1914,3.1484,1.9039,1.9227,0.0,1.8869,1.8628,0.0,1.8738,0.0,0.0,0.0,0.0,0.0,0.0,0.0,0.0,0.0,0.0,0.0,0.0,0.0,0.0,0.0,0.0,0.0,0.0,0.0,2.6513,2.5742,2.7723,0.0,0.0,0.0,3.0385,2.9392,2.8871,2.7644,2.5706,2.7036,2.808,2.8813,2.9829,3.0895,3.1954,3.1494,3.1152,3.083,2.9471,2.9383,3.0059,2.8364,2.8671,3.0147,2.9746,3.0147,3.0889,3.0889,3.0889,3.0889,3.0889,3.0889,3.0889,3.0889,3.0889,3.0889,3.0889,3.0889,3.0889,3.0889,3.1191,3.1582,3.1865,3.2256,3.2676,3.3096,3.3086,3.2939,3.2822,3.2559,3.2266,3.1992,3.1592,3.1299,3.1299,3.1064,3.0889,3.0889,3.0889,3.0889,3.0889,3.0889,3.0889,3.0889,3.0889,3.0889,3.0889,3.1279,3.1641,3.1924,3.248,3.292,3.3193,3.3308,3.3386,3.3386,3.3386,3.3386,3.3386,3.2578,3.2335,3.2579,3.1699,3.1299]},{"header":{"parameterUnit":"m.s-1","parameterCategory":1,"la1":30.6,"la2":29.2853,"lo1":-89.7004,"lo2":-87.6739,"dy":0.0162,"dx":0.0183,"nx":112,"ny":82,"refTime":"2025-08-23T00:00:00:Z","depth":0,"parameterNumber":3,"parameterNumberName":"V-component_of_WINDS"},"data":[0.0,0.0,0.0,0.0,0.0,0.0,0.0,0.0,0.0,0.0,0.0,0.0,0.0,0.0,0.0,0.0,0.0,0.0,0.0,0.0,0.0,0.0,0.0,0.0,0.0,0.0,0.0,0.0,0.0,0.0,0.0,0.0,0.0,0.0,0.0,0.0,0.0,0.0,0.0,0.0,0.0,0.0,0.0,0.0,0.0,0.0,0.0,0.0,0.0,0.0,0.0,0.0,0.0,0.0,0.0,0.0,0.0,0.0,0.0,0.0,0.0,0.0,0.0,0.0,0.0,0.0,0.0,0.0,0.0,0.0,0.0,0.0,0.0,0.0,0.0,0.0,0.0,0.0,0.0,0.0,0.0,0.0,0.0,0.0,0.0,0.0,0.0,0.0,0.0,0.0,0.0,2.4264,2.4038,2.3702,2.3179,2.3753,2.3379,2.1642,0.0,0.0,0.0,0.0,0.0,0.0,0.0,0.0,0.0,0.0,0.0,0.0,0.0,0.0,0.0,0.0,0.0,0.0,0.0,0.0,0.0,0.0,0.0,0.0,0.0,0.0,0.0,0.0,0.0,0.0,0.0,0.0,0.0,0.0,0.0,0.0,0.0,0.0,0.0,0.0,0.0,0.0,0.0,0.0,0.0,0.0,0.0,0.0,0.0,0.0,0.0,0.0,0.0,0.0,0.0,0.0,0.0,0.0,0.0,0.0,0.0,0.0,0.0,0.0,0.0,0.0,0.0,0.0,0.0,0.0,0.0,0.0,0.0,0.0,0.0,0.0,0.0,0.0,0.0,0.0,0.0,0.0,0.0,0.0,0.0,0.0,0.0,0.0,0.0,0.0,0.0,0.0,0.0,0.0,0.0,0.0,0.0,0.0,0.0,0.0,0.0,0.0,0.0,0.0,2.4853,2.4792,2.4247,2.3868,2.3758,2.4335,2.3967,2.228,0.0,0.0,0.0,0.0,0.0,0.0,0.0,0.0,0.0,0.0,0.0,0.0,0.0,0.0,0.0,0.0,0.0,0.0,0.0,0.0,0.0,0.0,0.0,0.0,0.0,0.0,0.0,0.0,0.0,0.0,0.0,0.0,0.0,0.0,0.0,0.0,0.0,0.0,0.0,0.0,0.0,0.0,0.0,0.0,0.0,0.0,0.0,0.0,0.0,0.0,0.0,0.0,0.0,0.0,0.0,0.0,0.0,0.0,0.0,0.0,0.0,0.0,0.0,0.0,0.0,0.0,0.0,0.0,0.0,0.0,0.0,0.0,0.0,0.0,0.0,0.0,0.0,0.0,0.0,0.0,0.0,0.0,0.0,0.0,0.0,0.0,0.0,0.0,0.0,0.0,0.0,0.0,0.0,0.0,0.0,0.0,0.0,0.0,0.0,0.0,0.0,0.0,0.0,2.4184,2.4353,2.4353,2.376,2.336,2.336,2.3952,2.3604,2.1915,2.1369,0.0,0.0,0.0,0.0,0.0,0.0,0.0,0.0,0.0,0.0,0.0,0.0,0.0,0.0,0.0,0.0,0.0,0.0,0.0,0.0,0.0,0.0,0.0,0.0,0.0,0.0,0.0,0.0,0.0,0.0,0.0,0.0,0.0,0.0,0.0,0.0,0.0,0.0,0.0,0.0,0.0,0.0,0.0,0.0,0.0,0.0,0.0,0.0,0.0,0.0,0.0,0.0,0.0,0.0,0.0,0.0,0.0,0.0,0.0,0.0,0.0,0.0,0.0,0.0,0.0,0.0,0.0,0.0,0.0,0.0,0.0,0.0,0.0,0.0,0.0,0.0,0.0,0.0,0.0,0.0,0.0,0.0,0.0,0.0,0.0,0.0,0.0,0.0,0.0,0.0,0.0,0.0,0.0,0.0,0.0,0.0,0.0,0.0,0.0,0.0,0.0,0.0,2.4437,2.4156,2.4123,2.3389,2.2888,2.2888,2.3502,2.3188,2.1506,2.0965,0.0,0.0,0.0,0.0,0.0,0.0,0.0,0.0,0.0,0.0,0.0,0.0,0.0,0.0,0.0,0.0,0.0,0.0,0.0,0.0,0.0,0.0,0.0,0.0,0.0,0.0,0.0,0.0,0.0,0.0,0.0,0.0,0.0,0.0,0.0,0.0,0.0,0.0,0.0,0.0,0.0,0.0,0.0,0.0,0.0,0.0,0.0,0.0,0.0,0.0,0.0,0.0,0.0,0.0,0.0,0.0,0.0,0.0,0.0,0.0,0.0,0.0,0.0,0.0,0.0,0.0,0.0,0.0,0.0,0.0,0.0,0.0,0.0,0.0,0.0,0.0,0.0,0.0,0.0,0.0,0.0,0.0,0.0,0.0,0.0,0.0,0.0,0.0,0.0,0.0,0.0,0.0,0.0,0.0,0.0,0.0,0.0,0.0,0.0,0.0,0.0,0.0,2.4927,2.4934,2.4764,2.3638,2.2888,2.2888,2.3502,2.3188,2.1506,2.0965,0.0,0.0,0.0,0.0,0.0,0.0,0.0,0.0,0.0,0.0,0.0,0.0,0.0,0.0,0.0,0.0,0.0,0.0,0.0,0.0,0.0,0.0,0.0,0.0,0.0,0.0,0.0,0.0,0.0,0.0,0.0,0.0,0.0,0.0,0.0,0.0,0.0,0.0,0.0,0.0,0.0,0.0,0.0,0.0,0.0,0.0,0.0,0.0,0.0,0.0,0.0,0.0,0.0,0.0,0.0,0.0,0.0,0.0,0.0,0.0,0.0,0.0,0.0,0.0,0.0,0.0,0.0,0.0,0.0,0.0,0.0,0.0,0.0,0.0,0.0,0.0,0.0,0.0,0.0,0.0,0.0,0.0,0.0,0.0,0.0,0.0,0.0,0.0,0.0,0.0,0.0,0.0,0.0,0.0,0.0,0.0,0.0,0.0,0.0,0.0,0.0,0.0,2.5128,2.5349,0.0,2.491,2.4224,2.3816,2.43,2.3879,2.2081,0.0,0.0,0.0,0.0,0.0,0.0,0.0,0.0,0.0,0.0,0.0,0.0,0.0,0.0,0.0,0.0,0.0,0.0,0.0,0.0,0.0,0.0,0.0,0.0,0.0,0.0,0.0,0.0,0.0,0.0,0.0,0.0,0.0,0.0,0.0,0.0,0.0,0.0,0.0,0.0,0.0,0.0,0.0,0.0,0.0,0.0,0.0,0.0,0.0,0.0,0.0,0.0,0.0,0.0,0.0,0.0,0.0,0.0,0.0,0.0,0.0,0.0,0.0,0.0,0.0,0.0,0.0,0.0,0.0,0.0,0.0,0.0,0.0,0.0,0.0,0.0,0.0,0.0,0.0,0.0,0.0,0.0,0.0,0.0,0.0,0.0,0.0,0.0,0.0,0.0,0.0,0.0,0.0,0.0,0.0,0.0,0.0,0.0,0.0,0.0,0.0,0.0,2.521,2.5749,2.6032,0.0,2.5832,2.5242,2.4363,2.4643,2.4065,2.2222,0.0,0.0,0.0,0.0,0.0,0.0,0.0,0.0,0.0,0.0,0.0,0.0,0.0,0.0,0.0,0.0,0.0,0.0,0.0,0.0,0.0,0.0,0.0,0.0,0.0,0.0,0.0,0.0,0.0,0.0,0.0,0.0,0.0,0.0,0.0,0.0,0.0,0.0,0.0,0.0,0.0,0.0,0.0,0.0,0.0,0.0,0.0,0.0,0.0,0.0,0.0,0.0,0.0,0.0,0.0,0.0,0.0,0.0,0.0,0.0,0.0,0.0,0.0,0.0,0.0,0.0,0.0,0.0,0.0,0.0,0.0,0.0,0.0,0.0,0.0,0.0,0.0,0.0,0.0,0.0,0.0,0.0,0.0,0.0,0.0,0.0,0.0,0.0,0.0,0.0,0.0,0.0,0.0,0.0,0.0,0.0,0.0,0.0,0.0,0.0,0.0,0.0,2.5985,2.6912,2.7113,2.6312,2.6233,2.5714,2.4433,2.4318,2.358,0.0,0.0,0.0,0.0,0.0,0.0,0.0,0.0,0.0,0.0,0.0,0.0,0.0,0.0,0.0,0.0,0.0,0.0,0.0,0.0,0.0,0.0,0.0,0.0,0.0,0.0,0.0,0.0,0.0,0.0,0.0,0.0,0.0,0.0,0.0,0.0,0.0,0.0,0.0,0.0,0.0,0.0,0.0,0.0,0.0,0.0,0.0,0.0,0.0,0.0,0.0,0.0,0.0,0.0,0.0,0.0,0.0,0.0,0.0,0.0,0.0,0.0,0.0,0.0,0.0,0.0,0.0,0.0,0.0,0.0,0.0,0.0,0.0,0.0,0.0,0.0,0.0,0.0,0.0,0.0,0.0,0.0,0.0,0.0,0.0,0.0,0.0,0.0,0.0,0.0,0.0,0.0,0.0,0.0,0.0,0.0,0.0,0.0,0.0,0.0,0.0,0.0,0.0,2.6861,2.8163,2.8855,2.8621,2.8174,2.7354,2.6027,2.5842,2.4982,2.3081,0.0,0.0,0.0,0.0,0.0,0.0,0.0,0.0,0.0,0.0,0.0,0.0,0.0,0.0,0.0,0.0,0.0,0.0,0.0,0.0,0.0,0.0,0.0,0.0,0.0,0.0,0.0,0.0,0.0,0.0,0.0,0.0,0.0,0.0,0.0,0.0,0.0,0.0,0.0,0.0,0.0,0.0,0.0,0.0,0.0,0.0,0.0,0.0,0.0,0.0,0.0,0.0,0.0,0.0,0.0,0.0,0.0,0.0,0.0,0.0,0.0,0.0,0.0,0.0,0.0,0.0,0.0,0.0,0.0,0.0,0.0,0.0,0.0,0.0,0.0,0.0,0.0,0.0,0.0,0.0,0.0,0.0,0.0,0.0,0.0,0.0,0.0,0.0,0.0,0.0,0.0,0.0,0.0,0.0,0.0,0.0,0.0,0.0,0.0,0.0,0.0,0.0,2.7324,2.8926,2.9877,2.9636,2.9234,2.8455,2.7108,2.6678,2.5667,2.3739,0.0,0.0,0.0,0.0,0.0,0.0,0.0,0.0,0.0,0.0,0.0,0.0,0.0,0.0,0.0,0.0,0.0,0.0,0.0,0.0,0.0,0.0,0.0,0.0,0.0,0.0,0.0,0.0,0.0,0.0,0.0,0.0,0.0,0.0,0.0,0.0,0.0,0.0,0.0,0.0,0.0,0.0,0.0,0.0,0.0,0.0,0.0,0.0,0.0,0.0,0.0,0.0,0.0,0.0,0.0,0.0,0.0,0.0,0.0,0.0,0.0,0.0,0.0,0.0,0.0,0.0,0.0,0.0,0.0,0.0,0.0,0.0,0.0,0.0,0.0,0.0,0.0,0.0,0.0,0.0,0.0,0.0,0.0,0.0,0.0,0.0,0.0,0.0,0.0,0.0,0.0,0.0,0.0,0.0,0.0,0.0,0.0,0.0,0.0,0.0,0.0,0.0,2.754,2.9385,3.0357,2.9743,2.9683,2.9144,2.7809,2.7078,2.5901,2.4078,0.0,0.0,0.0,0.0,0.0,0.0,0.0,0.0,0.0,0.0,0.0,0.0,0.0,0.0,0.0,0.0,0.0,0.0,0.0,0.0,0.0,0.0,0.0,0.0,0.0,0.0,0.0,0.0,0.0,0.0,0.0,0.0,0.0,0.0,0.0,0.0,0.0,0.0,0.0,0.0,0.0,0.0,0.0,0.0,0.0,0.0,0.0,0.0,0.0,0.0,0.0,0.0,0.0,0.0,0.0,0.0,0.0,0.0,0.0,0.0,3.4231,0.0,0.0,0.0,0.0,0.0,0.0,0.0,0.0,0.0,0.0,0.0,0.0,0.0,0.0,0.0,0.0,0.0,0.0,0.0,0.0,0.0,0.0,0.0,0.0,0.0,0.0,0.0,0.0,0.0,0.0,0.0,0.0,0.0,0.0,0.0,0.0,0.0,0.0,0.0,0.0,0.0,2.8353,3.0074,3.1046,3.0372,3.0313,2.9789,2.85,2.7767,2.6772,2.5301,2.3781,0.0,0.0,0.0,0.0,0.0,0.0,0.0,0.0,0.0,0.0,0.0,0.0,0.0,0.0,0.0,0.0,0.0,0.0,0.0,0.0,0.0,0.0,0.0,0.0,0.0,0.0,0.0,0.0,0.0,0.0,0.0,0.0,0.0,0.0,0.0,0.0,0.0,0.0,0.0,0.0,0.0,0.0,0.0,0.0,0.0,0.0,0.0,0.0,0.0,0.0,0.0,0.0,0.0,0.0,0.0,0.0,0.0,0.0,0.0,0.0,3.5285,0.0,0.0,0.0,0.0,0.0,0.0,0.0,0.0,0.0,0.0,0.0,0.0,0.0,0.0,0.0,0.0,0.0,0.0,0.0,0.0,0.0,0.0,0.0,0.0,0.0,0.0,0.0,0.0,0.0,0.0,0.0,0.0,0.0,0.0,0.0,0.0,0.0,0.0,0.0,0.0,2.8607,3.0299,3.1376,3.1031,3.0687,3.0118,2.9159,2.847,2.7512,2.6168,2.4939,0.0,0.0,0.0,0.0,0.0,0.0,0.0,0.0,0.0,0.0,0.0,0.0,0.0,0.0,0.0,0.0,0.0,0.0,0.0,0.0,0.0,0.0,0.0,0.0,0.0,0.0,0.0,0.0,0.0,0.0,0.0,0.0,0.0,0.0,0.0,0.0,0.0,0.0,0.0,0.0,0.0,0.0,0.0,0.0,0.0,0.0,0.0,0.0,0.0,0.0,0.0,0.0,0.0,4.0828,4.0774,4.0577,4.02,4.0092,4.0111,3.8096,3.7253,3.7189,3.5976,0.0,0.0,0.0,0.0,0.0,0.0,0.0,0.0,0.0,0.0,0.0,0.0,0.0,0.0,0.0,0.0,0.0,0.0,0.0,0.0,0.0,0.0,0.0,0.0,3.6589,3.6429,0.0,0.0,0.0,0.0,0.0,0.0,0.0,0.0,0.0,0.0,0.0,0.0,2.8936,3.0419,3.1511,3.1511,3.1002,3.0432,2.9817,2.9264,2.8412,2.7198,2.6497,2.5827,0.0,0.0,0.0,0.0,0.0,0.0,0.0,0.0,0.0,0.0,0.0,0.0,0.0,0.0,0.0,0.0,0.0,0.0,0.0,0.0,0.0,0.0,0.0,0.0,0.0,0.0,0.0,0.0,0.0,0.0,0.0,0.0,3.7631,3.7856,0.0,0.0,0.0,0.0,0.0,0.0,0.0,0.0,0.0,0.0,0.0,0.0,0.0,4.0488,4.1261,4.1882,4.2531,4.3156,4.3732,4.3788,4.338,4.3312,4.3051,4.2622,4.2305,0.0,3.8033,3.7851,0.0,0.0,0.0,0.0,0.0,0.0,0.0,0.0,0.0,0.0,0.0,0.0,0.0,0.0,0.0,0.0,0.0,0.0,0.0,0.0,0.0,0.0,3.8967,3.8768,3.8868,3.8662,0.0,3.5505,3.3901,3.3612,3.272,0.0,0.0,0.0,0.0,0.0,0.0,0.0,3.0253,3.0972,3.1511,3.1511,3.1421,3.1092,3.0447,3.0298,2.9953,2.9249,2.8577,2.7889,2.724,2.6554,0.0,0.0,0.0,0.0,0.0,0.0,0.0,0.0,0.0,0.0,0.0,0.0,0.0,0.0,0.0,0.0,0.0,0.0,0.0,0.0,0.0,0.0,0.0,0.0,0.0,0.0,0.0,0.0,0.0,3.8065,3.9333,3.8925,3.9242,3.8852,0.0,0.0,0.0,0.0,0.0,0.0,0.0,0.0,0.0,4.1224,4.2019,4.2804,4.3579,4.3908,4.4188,4.4378,4.4758,4.4711,4.428,4.4111,4.3834,4.3521,4.2901,4.1834,4.0439,3.9617,3.908,3.8669,0.0,0.0,0.0,0.0,3.6973,3.6688,3.7198,3.7301,0.0,3.639,0.0,0.0,0.0,0.0,0.0,0.0,0.0,0.0,0.0,0.0,3.9299,3.9299,3.9299,3.9216,3.8888,3.7899,3.6818,0.0,3.5435,3.4686,3.3307,0.0,0.0,0.0,0.0,3.0507,3.0507,3.1091,3.1511,3.1511,3.1511,3.1227,3.0567,3.0507,3.0238,2.9638,2.9324,2.9024,2.8738,2.8081,2.741,0.0,0.0,0.0,0.0,0.0,0.0,0.0,0.0,0.0,0.0,0.0,0.0,0.0,0.0,0.0,0.0,0.0,0.0,0.0,0.0,0.0,0.0,0.0,0.0,0.0,0.0,0.0,0.0,3.994,4.0682,4.0338,4.0591,4.0121,0.0,0.0,0.0,0.0,0.0,0.0,4.137,4.2185,4.2891,4.3507,4.4077,4.4693,4.5291,4.5458,4.5464,4.5348,4.5564,4.5519,4.5264,4.4962,4.4792,4.4647,4.3856,4.3503,4.3344,4.1281,4.0428,4.0275,3.8779,3.8199,3.8265,3.8811,3.8662,3.8331,3.9252,3.9219,3.8629,3.7897,3.7549,3.7172,3.6075,0.0,0.0,0.0,0.0,3.8609,3.9166,3.9299,3.9299,3.9299,3.9299,3.9299,3.9299,3.9299,3.8984,0.0,3.7584,3.7013,3.5349,0.0,0.0,0.0,0.0,3.0762,3.0762,3.1182,3.1511,3.1511,3.1511,3.1301,3.0792,3.0762,3.0553,3.0103,3.0102,2.9998,2.9832,2.934,2.8785,2.8124,0.0,0.0,0.0,0.0,0.0,0.0,0.0,0.0,0.0,0.0,0.0,0.0,0.0,0.0,0.0,0.0,0.0,0.0,0.0,0.0,0.0,0.0,0.0,0.0,0.0,0.0,0.0,0.0,0.0,4.2638,4.2076,0.0,0.0,0.0,0.0,4.1469,4.2266,4.3073,4.3888,4.4675,4.5146,4.5182,4.5218,4.5254,4.5291,4.5864,4.6179,4.6245,4.6688,4.6981,4.706,4.6918,4.685,4.685,4.6786,4.6763,4.6482,4.2847,4.1321,4.1321,4.1226,4.1179,4.1196,4.1229,4.1212,4.1096,4.0544,4.0312,4.0163,3.9431,3.8722,3.8133,3.8066,3.8066,0.0,0.0,3.8676,3.9249,3.9282,3.9299,3.9299,3.9299,3.9299,3.9299,3.9299,3.9299,3.9282,0.0,3.8629,3.7936,3.7267,0.0,3.4017,3.3433,3.2273,3.1451,3.1451,3.1481,3.1511,3.1511,3.1511,3.1496,3.1451,3.1451,3.1436,3.1406,3.1406,3.1122,3.0477,3.0417,3.0118,2.9503,2.8214,0.0,0.0,0.0,0.0,0.0,0.0,0.0,0.0,0.0,0.0,0.0,0.0,0.0,0.0,0.0,0.0,0.0,0.0,0.0,0.0,0.0,0.0,0.0,0.0,0.0,0.0,0.0,0.0,4.2801,4.3099,0.0,4.252,4.3154,4.3498,4.3262,4.3987,4.4566,4.4856,4.5635,4.6069,4.6069,4.6576,4.6838,4.6838,4.7054,4.7117,4.7067,4.7331,4.7399,4.7254,4.7209,4.7172,4.71,4.6672,4.6495,4.6358,4.4612,4.3622,4.3079,4.1866,4.1394,4.1394,4.1394,4.1394,4.1361,4.1127,4.1044,4.0994,4.0746,4.0183,3.9633,3.9633,3.9272,3.8921,3.8921,3.9086,3.9299,3.9299,3.9299,3.9299,3.9299,3.9299,3.9299,3.9299,3.9299,3.9299,3.9299,3.91,3.8698,3.8045,3.6602,3.519,3.4216,3.2936,3.1938,3.1539,3.1511,3.1511,3.1511,3.1511,3.1511,3.1511,3.1511,3.1511,3.1511,3.1511,3.1391,3.1152,3.1137,3.0837,3.0193,2.9699,2.8845,0.0,0.0,0.0,0.0,0.0,0.0,0.0,0.0,0.0,0.0,0.0,0.0,0.0,0.0,0.0,0.0,0.0,0.0,0.0,0.0,0.0,0.0,0.0,0.0,0.0,0.0,4.28,4.3616,4.4178,4.4403,4.4132,4.4838,4.5291,4.5309,4.5562,4.5816,4.6106,4.6631,4.6892,4.6892,4.7417,4.7707,4.7707,4.7657,4.7615,4.7572,4.7572,4.7479,4.7291,4.7276,4.7216,4.7111,4.6661,4.6483,4.6417,4.5852,4.5324,4.4727,4.3288,4.2723,4.2696,4.2504,4.245,4.2375,4.1929,4.161,4.1394,4.1394,4.111,4.0743,4.0743,4.0395,4.0014,4.0014,4.0014,4.0014,4.0014,4.0014,4.0014,4.0014,3.9832,3.968,3.968,3.9481,3.9299,3.9299,3.9299,3.9161,3.8717,3.7484,3.6226,3.5232,3.3939,3.2862,3.2242,3.2168,3.2093,3.1854,3.1839,3.175,3.1525,3.1511,3.1511,3.1511,3.1511,3.1511,3.1511,3.1511,3.1286,3.0852,3.0822,3.0162,2.886,0.0,0.0,0.0,0.0,0.0,0.0,0.0,0.0,0.0,0.0,0.0,0.0,0.0,0.0,0.0,0.0,0.0,0.0,0.0,0.0,0.0,0.0,0.0,4.2964,4.3652,4.4449,4.5236,4.5345,4.5653,4.6494,4.587,4.6069,4.7616,4.7029,4.6892,4.7652,4.7707,4.7707,4.7707,4.7707,4.7707,4.7707,4.7565,4.7565,4.7707,4.7446,4.7302,4.7302,4.7245,4.7133,4.702,4.6991,4.7009,4.6957,4.6429,4.6223,4.6174,4.5541,4.5303,4.5241,4.4721,4.4516,4.4316,4.3015,4.2088,4.1461,4.1461,4.1444,4.1428,4.1428,4.1411,4.1409,4.1394,4.1394,4.1409,4.1409,4.1394,4.1394,4.1409,4.0912,4.0428,4.0428,3.9879,3.9365,3.9332,3.9332,3.9332,3.9299,3.8209,3.7116,3.6513,3.5311,0.0,3.3607,3.353,3.3275,3.2602,3.2512,3.2243,3.1585,3.1511,3.1511,3.1511,3.1511,3.1511,3.1524,3.1554,3.1584,3.1613,3.1538,3.147,3.14,0.0,0.0,0.0,0.0,0.0,0.0,0.0,0.0,0.0,0.0,0.0,0.0,0.0,0.0,0.0,0.0,0.0,0.0,0.0,0.0,0.0,4.3888,4.4639,4.4639,4.482,4.5273,4.6069,4.6178,4.6721,4.8105,4.8033,4.8087,4.854,4.8377,4.8087,4.7725,4.7707,4.7707,4.7707,4.7707,4.7707,4.7707,4.7657,4.7657,4.7707,4.7625,4.7593,4.7593,4.7381,4.7254,4.7209,4.7059,4.7009,4.6998,4.6842,4.6784,4.6684,4.5695,4.5303,4.5276,4.5117,4.4828,4.444,4.4069,4.3528,4.2986,4.2986,4.2636,4.2206,4.2206,4.1927,4.1596,4.1439,4.151,4.1624,4.1624,4.151,4.1439,4.1582,4.1377,4.1127,4.1127,4.0978,4.068,4.018,4.0111,3.9928,3.9398,3.8553,3.775,3.7143,3.6282,0.0,3.4295,3.4147,3.3908,3.3291,3.2781,3.2422,3.2243,3.178,3.1511,3.1511,3.1511,3.1697,3.2134,3.2664,3.338,3.4312,3.3834,3.3566,0.0,0.0,0.0,0.0,0.0,0.0,0.0,0.0,0.0,0.0,0.0,0.0,0.0,0.0,0.0,0.0,0.0,0.0,0.0,0.0,0.0,0.0,4.5707,4.6421,4.6747,4.6232,4.6106,4.691,4.729,4.8015,4.9275,4.9101,4.9047,4.9383,4.9083,4.8703,4.8232,4.8521,4.8713,4.8713,4.8713,4.8713,4.8713,4.8713,4.8713,4.8713,4.8713,4.8692,4.862,4.8453,4.8331,4.823,4.8111,4.8019,4.7943,4.7634,4.7491,0.0,0.0,0.0,0.0,0.0,4.532,4.4842,4.491,4.4538,4.4061,4.4133,4.369,4.3171,4.3171,4.2944,4.2667,4.2551,4.261,4.2698,4.2644,4.2542,4.2453,4.2482,4.2161,4.1858,4.1858,4.1626,4.1278,4.0895,4.0594,0.0,3.9829,3.9153,3.8454,3.7803,3.7348,3.6743,3.5776,3.566,3.5315,3.4395,3.394,3.3487,3.2961,3.2303,0.0,0.0,0.0,3.2325,3.3198,3.3911,0.0,0.0,0.0,0.0,0.0,0.0,0.0,0.0,3.5522,3.5448,0.0,0.0,0.0,0.0,0.0,0.0,0.0,0.0,0.0,0.0,0.0,0.0,0.0,0.0,0.0,0.0,4.7906,4.8214,4.8938,4.7808,4.7138,4.7761,4.8467,4.9246,5.0155,4.9582,4.9474,5.0173,4.9582,4.9137,4.9047,0.0,0.0,0.0,0.0,5.0101,5.0101,5.0101,5.0101,5.0101,5.0101,5.0038,4.992,4.9909,4.9773,4.9536,4.9524,4.946,4.9287,4.8644,4.8334,4.8144,4.7324,4.702,4.6963,4.6393,4.584,4.5355,4.5394,0.0,0.0,4.4759,4.4488,4.4097,4.4097,4.4112,4.4126,4.4097,4.4097,4.4085,4.3969,4.3927,4.3852,4.3717,4.3159,4.268,4.268,4.2149,4.1655,4.1572,4.1058,4.0611,4.0528,3.9832,3.9107,3.849,3.8407,3.8195,3.7575,3.7487,3.7014,3.5764,0.0,0.0,3.3925,3.3216,3.2839,3.2839,3.2883,3.3465,3.4678,3.5352,3.5984,3.6546,3.6641,3.7258,3.8447,3.8513,3.8907,3.9484,3.6918,3.6385,0.0,0.0,0.0,0.0,0.0,0.0,0.0,0.0,0.0,0.0,0.0,0.0,0.0,0.0,0.0,4.8467,4.9202,4.9684,4.9847,4.9593,4.9231,4.8739,4.8811,4.9463,5.0934,5.0934,5.0886,5.1061,5.0923,5.0542,4.9901,5.001,5.0101,5.0101,5.0101,5.0101,5.0101,5.0101,5.0101,5.0101,0.0,0.0,5.0049,4.9942,4.9875,4.9818,4.9704,4.9647,4.9612,4.9462,4.9031,4.8344,4.7392,4.7066,4.7088,4.6429,4.5953,4.5563,4.5028,4.4569,4.421,4.4253,4.4181,4.4097,4.4097,4.4184,0.0,4.4126,4.4097,4.4126,4.4196,4.407,4.3939,4.4124,4.398,4.3793,4.3793,4.3591,4.3238,4.2639,4.229,4.1891,4.1295,4.0147,3.9258,3.9134,3.9121,3.8871,3.8224,3.8123,3.7846,3.709,3.6527,3.612,3.5863,3.522,3.4842,3.4842,3.5258,3.5863,3.6692,3.7337,3.7995,3.8692,3.9269,3.972,3.9981,4.0531,4.0848,4.0947,3.9304,3.8669,0.0,0.0,0.0,0.0,0.0,0.0,0.0,0.0,0.0,0.0,0.0,4.5798,4.7399,0.0,4.8703,4.9908,5.0445,5.0698,5.0698,5.0698,5.0408,4.9601,4.9854,5.0416,5.1224,5.1296,5.1296,5.1296,5.1296,5.1115,5.0716,5.1079,5.1296,5.1296,5.1296,5.1296,5.1296,5.1296,5.1296,5.1296,5.1296,5.1296,5.1296,5.1239,5.1153,5.1102,5.1032,5.0956,5.0861,5.0466,4.9837,4.9052,4.8561,4.7904,4.7216,4.6875,4.6507,4.6114,4.5805,4.5241,4.4662,4.468,4.4547,4.4358,4.4358,4.44,4.444,4.4372,4.4358,4.4341,4.431,4.4196,4.4112,4.4181,4.4155,4.4097,4.4097,4.4056,4.3881,4.3514,4.3017,4.2534,4.2152,4.1133,4.0246,3.9898,3.9862,3.9605,3.8876,3.8799,3.8548,3.7924,3.7561,3.7238,3.6936,3.6288,3.5906,3.5906,3.6784,3.7618,3.8318,3.927,3.997,4.0332,4.0713,4.0895,4.0895,4.1229,4.1394,4.1378,4.068,4.0348,0.0,0.0,0.0,0.0,0.0,0.0,0.0,0.0,4.5371,4.6882,4.7192,4.7645,4.9101,4.9372,4.9843,5.1314,5.1531,5.1531,5.1531,5.1531,5.1296,5.0644,5.1006,5.1368,5.1513,5.1531,5.1531,5.1531,5.1531,5.1531,5.1531,5.2147,5.2498,5.2498,5.2498,5.2498,5.2498,5.2498,5.2498,5.2498,5.2498,5.2498,5.2498,5.2498,5.244,5.2335,5.2335,5.2287,5.2132,5.1484,5.0745,4.9996,4.9996,4.9113,4.7784,4.7371,4.702,4.6683,4.6357,4.5721,4.5083,4.5156,4.492,4.4615,4.4615,4.4615,4.4615,4.4615,4.457,4.4514,4.4381,4.4338,4.4281,4.4212,4.4198,4.4198,4.4198,4.4169,4.414,4.414,4.3557,4.3056,4.3056,4.2425,4.1628,4.0741,4.0594,4.0379,3.9782,3.9699,3.9506,3.897,3.8897,3.8699,3.8208,3.7682,3.7361,3.7361,3.8394,3.9233,3.9774,4.0823,4.1394,4.1394,4.1543,4.161,4.161,4.1759,4.1825,4.1825,4.1825,4.1676,4.2685,4.2711,4.3298,4.5502,4.5615,4.5904,0.0,0.0,4.8601,4.9521,4.9702,4.9974,5.0879,5.1042,5.1321,5.222,5.2383,5.2383,5.2383,5.2383,5.2317,5.2226,5.1676,5.1586,5.2299,5.2383,5.2383,5.2383,5.2383,5.2383,5.2383,5.2444,5.2498,5.2498,5.2498,5.2498,5.2498,5.2498,5.2498,5.2498,5.2498,5.2498,5.2498,5.2498,5.2498,5.2475,5.2475,5.2475,5.2445,5.2355,5.1848,5.1124,5.1124,5.0563,4.9554,4.7647,4.7046,4.6971,4.5186,4.4603,4.4668,4.4682,4.464,4.4615,4.4615,4.4615,4.4615,4.4615,4.4468,4.4367,4.4528,4.444,4.4338,4.4514,4.4542,4.4542,4.4542,4.4398,4.4281,4.4281,4.4085,4.3951,4.3951,4.387,4.3234,4.1536,4.1278,4.1262,4.1179,4.1177,4.1149,4.1062,4.1047,4.1033,4.0962,4.088,4.0831,4.0831,4.0984,4.1095,4.1177,4.1316,4.1394,4.1394,4.204,4.2388,4.2388,4.3019,4.335,4.335,4.335,4.2638,4.3422,4.4236,4.5204,4.624,4.6946,4.7743,4.9083,4.9137,4.9264,5.0535,5.0807,5.1042,5.1858,5.2002,5.21,0.0,5.2498,5.2498,5.2498,5.2498,5.2498,5.2498,5.219,5.2118,5.2462,5.2498,5.2679,5.3168,5.2752,5.2697,5.3168,5.2752,5.2498,5.2498,5.2498,5.2498,5.2498,5.2498,5.2498,5.2498,5.2969,5.3204,5.3204,5.3204,5.2933,5.2498,5.2498,5.2498,5.2498,5.2498,5.2299,5.2002,5.2002,5.1583,5.0785,4.9311,4.8403,4.7807,4.6985,4.6322,4.5819,4.5379,4.5229,4.5162,4.4719,4.4615,4.4615,4.4615,4.4542,4.4483,4.457,4.4542,4.4499,4.457,4.4615,4.4615,4.4615,4.4542,4.4468,4.4468,4.4324,4.421,4.421,4.4155,4.3836,4.3089,4.2539,4.205,4.1632,4.1481,4.1394,4.1394,4.1394,4.1394,4.1394,4.1394,4.1394,4.1394,4.1808,4.204,4.204,4.2454,4.2686,4.2686,4.2969,4.3135,4.3135,4.3464,4.3598,4.3598,4.3598,4.3267,4.4268,4.5436,4.6667,4.7337,4.8369,4.9354,4.9789,4.9897,5.0223,5.1393,5.1821,5.2075,5.2426,5.2679,5.2752,5.2534,5.2498,5.2498,5.2498,5.2498,5.2498,5.2498,5.2498,5.2589,5.2806,5.2625,5.2824,5.3639,5.3168,5.3186,5.4001,5.3476,5.3168,5.3168,5.3168,5.3168,5.3168,5.3168,5.3168,5.3168,5.3748,5.4037,5.4037,5.4037,5.3711,5.315,5.2933,5.2824,5.2806,5.2589,5.2498,5.2486,5.2328,5.1988,5.1501,5.0605,4.9525,4.8465,4.8096,4.7447,4.6716,4.6177,4.6007,4.5906,4.5362,4.521,4.5159,4.4956,4.4905,4.4855,4.4649,4.4615,4.4615,4.4615,4.4615,4.4615,4.4615,4.4615,4.4615,4.4615,4.4468,4.4381,4.4381,4.4298,4.4243,4.4243,4.3645,4.301,4.2434,4.2195,4.2081,4.2007,4.2007,4.2007,4.2007,4.2007,4.2007,4.2007,4.252,4.2802,4.2802,4.3317,4.3598,4.3598,4.3598,4.3598,4.3598,4.3598,4.3598,4.3598,4.3598,4.3598,4.5254,4.587,4.7065,4.9412,5.0028,5.0463,5.2027,5.2389,5.2389,5.2444,5.3078,5.3403,5.2643,5.3132,5.3403,5.2625,5.2498,5.2498,5.2498,5.2498,5.2498,5.2498,5.2498,5.2806,0.0,5.2951,5.2824,5.3639,5.3675,5.4019,5.4822,5.484,5.4834,5.4834,5.4834,5.4834,5.4834,5.4834,5.4834,5.4834,5.484,5.487,5.487,5.487,5.484,5.4768,5.4001,5.3657,5.3603,5.2824,5.2498,5.2434,5.186,5.1619,5.1525,5.0916,4.9877,4.8589,4.7301,4.683,4.68,4.6769,4.6766,4.6752,4.675,4.6733,4.6583,4.5872,4.5669,4.55,4.4787,4.4615,4.4615,4.4615,4.4615,4.4615,4.4615,4.4615,4.4615,4.4615,4.4601,4.4584,4.4584,4.4601,4.4584,4.4584,4.4409,4.4188,4.4045,4.3902,4.3741,4.3547,4.3532,4.3532,4.3532,4.3532,4.3532,4.3532,4.3549,4.3565,4.3565,4.3582,4.3598,4.3598,4.3598,4.3598,4.3598,4.3598,4.3598,4.3598,4.3598,4.3598,4.5943,4.7464,4.9213,5.0553,5.1296,5.1839,5.2371,5.2498,5.2498,5.2498,5.2715,5.2824,5.2552,5.2715,5.2824,5.2534,5.2951,5.3295,5.3295,5.4182,5.4635,5.4146,5.4997,0.0,0.0,0.0,0.0,5.51,5.4273,5.4255,5.5558,5.5178,5.4894,5.4894,5.4894,5.4894,5.4894,5.4894,5.4894,5.4907,5.5395,5.5631,5.5631,5.5631,5.5359,5.4888,5.4617,5.4508,5.449,5.42,5.3544,5.2728,5.2918,5.2183,5.0982,5.0778,5.0202,4.9462,4.9019,4.8598,4.8189,4.7699,4.7515,4.743,4.6938,4.68,4.675,4.6498,4.643,4.6363,4.6123,4.57,4.5331,4.5331,4.4956,4.4615,4.4615,4.4615,4.4615,4.4615,4.4615,4.4615,4.4615,4.4615,4.4556,4.4426,4.4338,4.421,4.3998,4.3927,4.3822,4.3628,4.3598,4.3598,4.3598,4.3598,4.3598,4.3598,4.3598,4.3598,4.3598,4.3598,4.3598,4.3598,4.3598,4.3598,4.3598,4.3598,4.3598,4.3598,4.3598,4.3598,4.6783,4.8677,5.0644,5.1169,5.1912,5.2498,5.2498,5.2498,5.2498,5.2498,5.2733,5.2842,5.2552,5.2969,5.3259,5.2987,5.382,5.4526,5.4526,5.5613,5.6247,5.5776,5.6591,5.7098,0.0,0.0,0.0,5.6331,5.5504,5.5377,5.6386,5.5975,5.5721,5.5721,5.5721,5.5721,5.5721,5.5721,5.5721,5.574,5.6192,5.644,5.644,5.644,5.6156,5.5703,5.5414,5.5287,5.5269,5.5015,5.4368,5.3536,5.3485,5.2496,5.1092,5.0648,5.0094,4.9585,4.9585,4.9318,4.8934,4.8445,4.8293,4.8191,4.7733,4.7581,4.753,4.7276,4.7192,4.7124,4.6868,4.6447,4.6092,4.6092,4.5734,4.5311,4.5058,4.499,4.4922,4.4649,4.4615,4.4615,4.4615,4.4615,4.4556,4.4426,4.4412,4.4284,4.3942,4.3898,4.3822,4.3628,4.3598,4.3598,4.3598,4.3598,4.3598,4.3598,4.3598,4.3598,4.3598,4.3598,4.3714,4.3977,4.3729,4.3861,4.4391,4.4126,4.4126,4.4391,4.4391,4.4242,4.7815,4.9546,5.1368,5.1368,5.1948,5.2498,5.2498,5.2498,5.2498,5.2498,5.3114,5.3403,0.0,0.0,5.4599,5.382,5.5033,5.606,5.6005,5.6802,5.7351,0.0,0.0,0.0,0.0,0.0,0.0,5.7387,0.0,5.7261,5.7261,5.7261,5.7243,5.7188,5.7188,5.7188,5.7188,5.7188,5.7188,5.7188,5.7188,5.7188,5.7188,5.7188,5.7188,5.7152,5.6386,5.606,5.6024,5.5305,5.4961,5.4741,5.356,5.2625,5.1756,5.0611,4.9774,4.9149,4.912,4.9069,4.9001,4.9001,4.9001,4.9001,4.9001,4.9001,4.8849,4.8157,4.7954,4.7802,4.709,4.687,4.6853,4.6853,4.6834,4.6599,4.5906,4.5771,4.5534,4.4804,4.4618,4.4615,4.4615,4.4618,4.4651,4.4651,4.4668,4.4516,4.4002,4.3927,4.3837,4.3643,4.3613,4.3613,4.3598,4.3631,4.3663,4.3663,4.3696,4.3698,4.3698,4.3698,4.4044,4.4736,4.406,4.4391,4.5813,4.5101,4.5118,4.5813,4.5813,4.5432,4.9329,5.0807,5.219,5.219,5.2353,5.2498,5.2498,5.2498,5.2498,5.2498,5.2661,5.2733,0.0,0.0,0.0,5.3729,5.5504,0.0,5.6078,5.8239,0.0,5.8239,0.0,6.0616,6.0217,6.0543,0.0,0.0,5.8764,5.8094,5.8094,5.8094,5.7822,5.7224,5.7188,5.7188,5.7188,5.7188,5.7188,5.7188,5.7188,5.7188,5.7188,5.7188,5.7188,5.7188,5.6971,5.688,5.688,5.6681,5.5723,5.4388,5.4529,5.3518,5.2001,5.1705,5.1463,5.1264,5.0801,4.9916,4.9001,4.9001,4.9001,4.9001,4.9001,4.9001,4.8968,4.8766,4.8715,4.868,4.8494,4.8022,4.7616,4.7616,4.7192,4.675,4.6549,4.6515,4.6295,4.5551,4.499,4.4615,4.4615,4.5058,4.537,4.5219,4.5662,4.557,4.4361,4.4196,4.4112,4.3852,4.3822,4.3763,4.3613,4.4108,4.4423,4.4423,4.4937,4.5235,4.5235,4.5235,4.5334,4.5532,4.5334,4.5417,4.5813,4.5615,4.5631,4.5813,4.5813,4.5776,4.9974,5.1278,5.2419,5.2063,5.2226,5.2408,5.2057,5.1984,5.1876,5.1513,5.1731,5.1876,5.1513,5.2969,5.411,0.0,0.0,0.0,5.717,5.9511,6.0869,0.0,6.096,0.0,6.1376,6.1738,6.1811,0.0,6.0163,5.9307,5.8963,5.8927,5.8565,5.775,5.7732,5.755,5.7188,5.7188,5.7188,5.7188,5.7188,5.7188,5.7188,5.7188,5.7188,5.7188,0.0,5.7188,5.7188,5.7188,5.6536,5.5507,5.5318,5.433,5.2961,5.2386,5.1979,5.1676,5.1313,5.066,4.9899,4.9593,4.9255,4.9001,4.9001,4.9001,4.9001,4.9001,4.9001,4.9001,4.9001,4.8682,4.8377,4.8377,4.8071,4.7682,4.7361,4.7293,4.7056,4.6329,4.5853,4.5565,4.5565,4.5906,4.6131,4.6024,4.6366,4.6332,4.5489,4.5271,4.5125,4.4964,4.495,4.4905,4.4783,4.515,4.5398,4.5398,4.5797,4.603,4.603,4.603,4.6165,4.6498,4.618,4.6347,4.6979,4.6663,4.668,4.6979,4.6979,4.686,5.039,5.1441,5.2317,5.164,5.1984,5.2281,5.1477,5.1296,5.1061,5.0264,5.0662,5.0934,5.0227,5.2552,5.4399,5.3802,0.0,5.9108,5.8637,6.0453,6.163,6.1032,6.1575,6.201,6.201,6.201,6.201,6.201,6.1358,6.0616,5.9801,5.9747,5.9343,5.8438,5.8402,5.8003,5.7206,5.7188,5.7188,5.7188,5.7315,5.7297,5.7188,5.7315,5.7297,5.7188,5.7188,0.0,5.7188,5.7188,5.715,5.6984,5.5932,5.4992,5.4083,5.2985,5.2128,5.1505,5.1505,5.1438,5.1218,5.049,4.9813,4.9289,4.9289,4.9221,4.9154,4.9154,4.9086,4.9001,4.9001,4.9001,4.9001,4.9001,4.9001,4.8832,4.8174,4.7971,4.7718,4.7073,4.6868,4.68,4.68,4.687,4.6938,4.6938,4.7022,4.7105,4.7105,4.6666,4.6351,4.6336,4.6336,4.6321,4.6305,4.6391,4.6456,4.6456,4.654,4.659,4.659,4.659,4.6876,4.7529,4.691,4.7227,4.8499,4.7864,4.7864,4.8499,4.8499,4.8164,5.1912,5.2281,5.2462,5.2317,5.2389,5.2281,5.1477,5.1296,0.0,0.0,5.0209,5.0264,5.0119,5.164,5.3096,5.3603,5.5903,5.8039,5.9216,6.0308,6.1195,0.0,6.1919,6.201,6.201,6.201,0.0,0.0,6.1883,6.1448,6.0634,6.0579,5.991,5.8456,5.8402,5.8003,5.7206,5.7188,5.7188,5.7206,5.7876,5.784,5.7224,5.7895,5.7822,5.7188,5.7188,0.0,5.7188,5.7188,5.6902,5.6434,5.6229,5.5425,5.434,5.4122,5.364,5.3112,5.3112,5.2672,5.1995,5.1235,5.0914,5.0812,5.0812,5.0388,4.9898,4.9898,4.9475,4.9001,4.9001,4.9001,4.9001,4.9001,4.9001,4.8968,4.8849,4.8326,4.787,4.7735,4.7225,4.68,4.68,4.731,4.7718,4.7718,4.824,4.8612,4.8612,4.7502,4.665,4.6484,4.647,4.6424,4.6305,4.6859,4.7211,4.7211,4.7779,4.8114,4.8114,4.8114,4.8181,4.8315,4.8181,4.8248,4.8499,4.8365,4.8365,4.8499,4.8499,4.8528,5.2389,5.2498,5.2498,5.2498,5.2498,5.2172,5.0952,0.0,0.0,0.0,4.9184,4.9347,4.8931,5.0517,5.2136,5.2933,5.5033,5.7134,5.8746,6.038,6.1412,6.1376,6.21,6.2458,6.2046,6.201,6.201,6.201,6.201,6.1829,6.1448,6.1032,6.0453,5.9656,5.8836,5.8202,5.7822,5.7406,5.7188,5.7188,5.7587,5.7786,5.784,5.822,5.842,5.8456,5.8456,0.0,5.8456,5.8456,5.8282,5.7932,5.7203,5.6328,5.5409,5.467,5.4027,5.3501,5.3501,5.3247,5.2875,5.2503,5.1844,5.1201,5.1201,5.0947,5.0676,5.0676,5.0406,5.0067,4.9678,4.956,4.9475,4.9086,4.9001,4.9001,4.9001,4.8715,4.8462,4.8462,4.8189,4.7936,4.7936,4.824,4.8462,4.8462,4.8766,4.9001,4.9001,4.8376,4.7906,4.7813,4.7798,4.7767,4.7723,4.8028,4.8231,4.8231,4.8566,4.8751,4.8751,4.8751,4.8751,4.8751,4.8751,4.8751,4.8751,4.8751,4.8751,4.8751,4.8751,4.8815,5.2444,5.2498,5.2498,5.2498,5.2498,5.2027,5.0245,4.9974,0.0,4.7808,4.8087,4.8503,4.8033,4.951,5.1212,5.2534,5.4291,5.6301,5.8601,6.0543,6.1648,6.134,6.2422,0.0,6.2082,6.201,0.0,6.201,6.201,6.201,6.201,6.1394,6.0978,6.0815,5.9566,5.8836,5.8655,5.8039,5.7713,5.7713,5.7895,5.8202,5.8655,5.8836,5.918,5.9602,5.9602,0.0,0.0,5.938,5.9313,5.906,5.7953,5.702,5.6145,5.5045,5.4147,5.3501,5.3501,5.3501,5.3501,5.3501,5.2672,5.1691,5.1691,5.1573,5.1438,5.1438,5.1319,5.1066,5.049,5.0338,5.0152,4.9407,4.9238,4.9187,4.9035,4.9001,4.9001,4.9001,4.9001,4.9001,4.9001,4.9001,4.9001,4.9001,4.9001,4.9001,4.9001,4.9001,4.9069,4.9221,4.9086,4.9001,4.9001,4.9001,4.9001,4.9001,4.9001,4.9001,4.9001,4.9001,4.9001,4.9001,4.9001,4.9001,4.9001,4.9001,4.9001,4.9001,4.9001,4.9001,5.2299,5.2498,5.2498,5.2498,5.2498,5.1882,4.9535,0.0,4.943,4.7083,4.7254,4.8015,4.8666,4.8974,5.0097,5.3096,0.0,5.5468,5.9946,6.076,6.143,6.2802,0.0,0.0,6.2082,6.201,6.201,6.201,6.201,6.201,6.201,6.1937,6.1557,6.0815,6.0652,6.0217,5.9493,5.9416,5.9366,5.9398,6.0109,6.0127,5.9524,6.0254,6.0217,5.9602,5.9602,0.0,0.0,5.8691,5.8328,5.7774,5.7642,5.677,5.5577,5.546,5.4593,5.3501,5.3501,5.3501,5.3501,5.3501,5.3399,5.3298,5.3298,5.279,5.2198,5.2198,5.1708,5.1184,5.1116,5.11,5.0914,5.0168,4.9998,4.9829,4.9137,4.9001,4.9001,4.9001,4.9001,4.9001,4.9001,4.9001,4.9001,4.9001,4.9001,4.9001,4.9001,4.9001,4.9255,4.9915,4.9407,4.9001,4.9001,4.9001,4.9001,4.9001,4.9001,4.9001,4.9001,4.9001,4.9001,4.9001,4.9001,4.9001,4.9001,4.9001,4.9001,4.9001,4.9001,4.9001,5.1723,5.248,5.3114,5.2625,5.2498,5.1991,5.0053,4.9865,4.9557,4.7627,4.7471,4.7942,4.8757,4.8902,4.9952,5.3186,5.3693,0.0,5.8818,5.9765,6.067,6.2295,6.2494,6.2549,0.0,0.0,6.201,6.201,6.201,6.201,6.201,6.201,6.1847,6.1539,6.105,6.0652,6.0326,5.9837,5.9602,5.9602,5.991,6.0163,6.0326,6.0652,6.0887,6.1019,6.0608,0.0,0.0,5.961,5.9289,5.9003,5.8515,5.772,5.6823,5.6341,5.5311,5.416,5.416,5.3873,5.3501,5.3501,5.3501,5.3501,5.3501,5.3281,5.3027,5.3027,5.2807,5.2469,5.1995,5.1522,5.1133,5.0829,5.076,5.0557,4.9813,4.9661,4.9661,4.9661,4.9661,4.9796,5.0253,5.0322,5.017,4.9729,4.9661,4.9661,4.9661,4.9661,4.9932,5.0676,5.0101,4.9847,5.0288,5.0322,5.0135,4.9678,4.9661,4.9458,4.9018,4.9001,4.9001,4.9001,4.9001,4.9001,4.9001,4.9441,4.9661,4.9661,5.0118,5.0101,5.1585,5.248,5.3204,5.2643,5.2498,5.2021,5.0173,4.9938,4.9648,4.8043,4.7888,4.8377,4.9409,4.9409,5.0234,5.3222,5.3693,5.4725,5.7641,5.8945,6.0018,6.1159,0.0,6.1865,6.244,6.2191,6.201,6.201,6.201,6.201,6.201,6.201,6.201,6.201,6.1448,6.1159,6.1159,6.0579,6.0308,6.0308,6.0308,6.0616,6.1159,6.0946,6.1183,6.1664,6.1001,0.0,0.0,5.9869,5.9562,5.9312,5.8757,5.8096,5.7432,5.6867,5.5928,5.4888,5.4668,5.4245,5.3788,5.3568,5.3501,5.3501,5.3501,5.3501,5.3501,5.3501,5.3501,5.3365,5.2807,5.2266,5.181,5.1573,5.1522,5.1319,5.0574,5.0422,5.0422,5.0422,5.0422,5.0591,5.11,5.1201,5.1015,5.0507,5.0422,5.0422,5.0422,5.0422,5.071,5.1438,5.1065,5.0862,5.1167,5.1201,5.088,5.015,5.01,4.9763,4.9035,4.9001,4.9103,4.9323,4.9323,4.9441,4.9645,5.0168,5.0422,5.0439,5.0964,5.0795,5.2063,5.2498,5.2498,5.2498,5.2498,5.1864,4.9463,4.9528,4.9648,4.8043,4.8322,4.9372,5.0988,5.0626,5.0879,5.3313,5.3693,5.4526,5.688,5.8601,5.9615,5.962,6.0326,6.0815,6.0815,6.1539,6.201,6.201,6.201,0.0,6.201,6.201,6.201,6.201,6.1992,6.1992,6.1992,6.1992,6.1992,6.1992,6.1992,6.1992,6.1964,6.1311,6.0998,6.0968,0.0,0.0,0.0,5.8909,5.8511,5.7918,5.7918,5.746,5.6799,5.68,5.6325,5.5581,5.4854,5.4583,5.4465,5.3737,5.3501,5.3501,5.3501,5.3501,5.3501,5.3501,5.3501,5.3501,5.3501,5.3484,5.3281,5.2486,5.2283,5.2097,5.1353,5.1184,5.1184,5.1184,5.1184,5.1184,5.1201,5.1201,5.1201,5.1184,5.1184,5.1184,5.1184,5.1184,5.1472,5.2215,5.2283,5.1979,5.1252,5.1201,5.088,5.015,5.01,4.9763,4.9035,4.9001,4.934,5.0067,5.01,5.0439,5.1184,5.1184,5.1184,5.1184,5.1201,5.0795,4.9278,5.0832,5.2226,5.1133,5.1278,5.1194,4.9318,4.9528,4.9793,4.8739,4.8721,4.9391,5.0995,5.1097,5.1876,5.481,5.5269,5.5921,5.7768,5.9416,6.0616,6.1177,6.244,6.2838,0.0,0.0,6.201,6.201,6.201,6.201,6.201,6.201,6.201,6.201,6.201,6.201,6.201,6.201,6.201,6.201,6.201,6.1766,6.1297,6.1093,6.0747,0.0,0.0,0.0,0.0,5.8405,5.81,5.79,5.79,5.7764,5.7543,5.7543,5.7087,5.6427,5.619,5.5767,5.531,5.5073,5.5006,5.4904,5.4397,5.3907,5.3619,5.411,5.389,5.3619,5.411,5.3873,5.345,5.3179,5.3129,5.2909,5.2131,5.1961,5.1961,5.1961,5.1961,5.2131,5.2689,5.2757,5.2604,5.203,5.1961,5.1961,5.1961,5.1961,5.2249,5.3044,5.3129,5.3044,5.279,5.2757,5.2452,5.1657,5.1133,5.0744,5.0508,5.0016,5.0101,5.0845,5.0846,5.0964,5.1201,5.1708,5.2232,5.2773,5.2215,5.1572,4.8175,4.9608,5.0977,5.0264,5.0481,5.0517,4.9191,4.9293,4.9582,4.9383,4.9347,4.9836,5.1459,5.1749,5.2491,5.4762,5.5395,5.6138,5.7713,5.933,6.076,6.1883,6.2879,0.0,0.0,6.201,6.201,6.201,6.201,6.201,6.201,6.201,6.201,6.201,6.201,6.201,6.201,6.1752,6.1618,6.1622,6.1358,6.1034,6.0605,6.0328,5.9982,0.0,0.0,0.0,0.0,5.8082,5.79,5.79,5.79,5.79,5.79,5.79,5.7612,5.7171,5.69,5.6511,5.6071,5.5783,5.5699,5.5614,5.5158,5.4499,5.4076,5.4803,5.4685,5.438,5.4549,5.4245,5.3839,5.3568,5.3501,5.3365,5.2858,5.2756,5.2756,5.2756,5.2756,5.2909,5.3416,5.3501,5.3331,5.2841,5.2756,5.2756,5.2756,5.2756,5.2942,5.345,5.3501,5.3501,5.3501,5.3501,5.3162,5.235,5.1877,5.1488,5.1218,5.076,5.0862,5.159,5.1624,5.1759,5.2063,5.2536,5.301,5.3484,5.2672,5.2063,0.0,4.8811,4.9065,4.9756,4.9974,4.9811,4.8992,4.8902,0.0,4.9956,5.0155,5.068,5.2281,5.2589,5.2878,5.3802,5.4581,5.5577,5.708,5.8728,6.038,6.2064,6.2209,0.0,6.21,6.2028,6.201,6.201,6.201,6.201,6.201,6.201,6.201,6.201,6.201,6.201,6.201,6.1343,6.1013,6.106,6.039,6.0063,5.9966,5.923,5.8875,0.0,0.0,0.0,0.0,5.79,5.79,5.79,5.79,5.79,5.79,5.79,5.79,5.7797,5.712,5.6884,5.6765,5.6071,5.5817,5.5783,5.5834,5.531,5.482,5.5564,5.5733,5.5547,5.4921,5.4668,5.4431,5.3737,5.3551,5.3501,5.3501,5.3501,5.3501,5.3501,5.3501,5.3501,5.3501,5.3501,5.3501,5.3501,5.3501,5.3501,5.3501,5.3501,5.3501,5.3501,5.3501,5.3501,5.3501,5.3501,5.3179,5.2435,5.2334,5.2029,5.1387,5.1302,5.1624,5.2367,5.2384,5.2756,5.3501,5.3501,5.3501,5.3484,5.2739,5.235,4.6631,0.0,4.8793,4.8359,4.8731,4.8974,0.0,4.8931,4.9865,5.0064,5.059,5.1513,5.3114,5.3422,5.4074,5.6047,5.6536,5.7007,5.7985,6.0018,6.2263,6.4486,6.4215,6.3581,6.2983,6.2354,6.201,6.201,6.201,6.201,6.201,6.201,6.201,6.201,6.201,6.201,6.201,6.1343,6.1253,6.1766,6.1093,6.0501,5.9966,5.923,5.8633,0.0,0.0,0.0,5.79,5.79,5.79,5.79,5.79,5.79,5.79,5.79,5.79,5.7883,5.7714,5.7628,5.7612,5.7442,5.7002,5.6664,5.7205,5.6478,5.5615,5.6342,5.6139,5.5783,5.619,5.5446,5.4566,5.438,5.3907,5.3501,5.3501,5.3501,5.3501,5.3501,5.3501,5.3501,5.3501,5.3501,5.3501,5.3501,5.3501,5.3501,5.3501,5.3501,5.3501,5.3501,5.3501,5.3501,5.3501,5.3501,5.3416,5.323,5.2638,5.2503,5.2942,5.2384,5.2418,5.3213,5.323,5.3315,5.3501,5.3501,5.3501,5.3501,5.3315,5.2892,4.6711,4.796,4.8884,4.8822,4.9401,4.989,4.9456,4.9738,5.0191,5.0572,5.1006,5.1785,5.3403,5.3693,5.4345,5.6331,5.6657,5.7442,5.9742,6.1811,6.3726,6.5392,6.4885,6.407,0.0,6.2462,6.201,6.201,6.201,6.201,6.201,6.201,6.201,6.201,6.1692,6.1692,6.1996,6.1031,6.0882,6.1533,6.0511,6.0028,5.9966,5.923,5.8703,0.0,0.0,0.0,5.79,5.79,5.79,5.79,5.79,5.79,5.79,5.79,5.79,5.79,5.79,5.79,5.79,5.79,5.7646,5.7374,5.7781,5.734,5.6799,5.7188,5.7019,5.6731,5.6782,5.6207,5.5513,5.5192,5.4803,5.4414,5.4076,5.4008,5.3907,5.3568,5.3771,5.3907,5.3568,5.3788,5.389,5.3551,5.3501,5.3501,5.3501,5.3501,5.3501,5.3501,5.3501,5.3501,5.3501,5.3501,5.3501,5.3501,5.3095,5.3061,5.3484,5.3078,5.3061,5.3501,5.3501,5.3501,5.3501,5.3501,5.3501,5.3501,5.3501,5.3264,4.7743,4.8739,4.9517,4.9847,5.0608,5.1278,5.1151,5.068,5.0499,5.1314,5.1586,5.2147,5.3766,5.4055,5.4562,5.6114,5.6368,5.7641,6.1304,6.3001,6.4233,6.5283,6.4704,0.0,6.3269,6.2462,6.201,6.201,6.201,6.201,6.201,6.201,6.201,6.201,6.1444,6.143,6.1978,6.0777,6.0454,6.1001,5.9787,5.9446,5.9806,5.918,5.884,5.872,0.0,0.0,5.79,5.79,5.79,5.79,5.79,5.79,5.79,5.79,5.79,5.79,5.79,5.79,5.79,5.79,5.79,5.79,5.79,5.79,5.79,5.79,5.79,5.7764,5.712,5.6884,5.6647,5.602,5.5783,5.553,5.4905,5.4769,5.4549,5.3805,5.4262,5.4532,5.3805,5.4177,5.4397,5.3754,5.3568,5.3501,5.3501,5.3501,5.3501,5.3501,5.3501,5.3501,5.3501,5.3501,5.3501,5.3501,5.3501,5.3501,5.3501,5.3501,5.3501,5.3501,5.3501,5.3501,5.3501,5.3501,5.3501,5.3501,5.3501,5.3501,4.8959,5.0825,5.1484,4.9553,5.0198,5.1115,5.0445,5.0716,5.135,5.2147,5.286,5.3802,5.5359,5.5661,5.6156,5.7768,5.8039,5.8728,6.0706,6.1195,6.2168,6.4323,0.0,6.3341,6.3214,6.2462,6.201,6.201,6.201,6.201,6.201,6.201,6.201,6.201,6.1909,6.1895,6.201,6.1239,6.0894,6.1001,6.0772,6.0105,5.9062,5.896,5.8598,5.8046,0.0,5.79,5.79,5.79,5.79,5.79,5.79,5.79,5.79,5.79,5.79,5.79,5.79,5.79,5.79,5.79,5.79,5.79,5.79,5.79,5.79,5.79,5.79,5.7883,5.7764,5.7273,5.6765,5.6664,5.6139,5.5665,5.5564,5.553,5.531,5.4566,5.504,5.5293,5.4549,5.4533,5.4566,5.4448,5.3907,5.3501,5.3501,5.3501,5.3501,5.3501,5.3501,5.3501,5.3501,5.3501,5.3501,5.3501,5.3501,5.3501,5.3501,5.3501,5.3501,5.3501,5.3501,5.3501,5.3501,5.3501,5.3501,5.3501,5.3501,5.3501,4.8405,5.0289,5.1593,5.047,5.2027,5.3741,5.3379,5.327,5.3349,5.3729,5.4092,5.4689,5.5806,5.6005,5.6531,5.8148,5.8764,5.947,6.0634,6.1177,6.1865,0.0,0.0,6.3033,6.2603,6.2209,6.201,6.201,6.201,6.201,6.201,6.1664,6.1636,6.1996,6.13,6.0911,6.0861,6.0164,5.9997,6.0391,6.0039,5.9512,5.8852,5.8871,5.8737,5.8423,0.0,5.79,5.79,5.79,5.79,5.79,5.79,5.79,5.79,5.79,5.79,5.79,5.79,5.79,5.79,5.79,5.79,5.79,5.79,5.79,5.79,5.79,5.79,5.79,5.79,5.7663,5.7391,5.7391,5.7137,5.6782,5.6393,5.5969,5.5479,5.4735,5.4871,5.4871,5.4126,5.4668,5.4921,5.4126,5.4059,5.3957,5.3551,5.3501,5.3501,5.3501,5.3501,5.3501,5.3501,5.3501,5.3501,5.3501,5.3501,5.3501,5.3501,5.3501,5.3501,5.3501,5.3501,5.3501,5.3501,5.3501,5.3501,5.3501,5.3501,5.3501,4.8116,4.9745,5.1387,5.1767,5.3687,5.5504,5.5703,5.516,5.4725,5.5088,5.516,5.5395,5.615,5.6591,5.7116,5.7985,5.8963,5.9747,6.0181,6.0923,6.1503,6.1702,6.244,6.2675,6.2064,6.201,6.1937,6.178,6.1766,6.1692,6.1533,6.1045,6.0912,6.1249,6.0248,5.9616,5.9399,5.8666,5.8589,5.9144,5.8964,5.8691,5.8347,5.8733,5.8806,5.8651,5.8119,5.79,5.79,5.79,5.79,5.79,5.79,5.79,5.79,5.79,5.79,5.79,5.79,5.79,5.79,5.79,5.79,5.79,5.79,5.79,5.79,5.79,5.79,5.79,5.79,5.79,5.79,5.79,5.7781,5.7526,5.7137,5.6478,5.5801,5.5209,5.5125,5.4871,5.4143,5.4803,5.5056,5.3923,5.4093,5.4143,5.3568,5.3501,5.3501,5.3501,5.3501,5.3501,5.3501,5.3501,5.3501,5.3501,5.3501,5.3501,5.3501,5.3501,5.3501,5.3501,5.3501,5.3501,5.3501,5.3501,5.3501,5.3501,5.3501,5.3501,4.9322,5.0608,5.1658,5.315,5.3693,5.4055,5.4816,5.4363,5.4182,5.5631,5.5933,5.6168,5.6971,5.8329,5.8891,5.7514,5.8601,5.9361,5.8673,0.0,6.0054,6.0797,6.1593,6.2064,6.201,6.201,6.1734,6.1119,6.1075,6.0789,6.019,6.0111,5.9759,5.9049,5.8938,5.8554,5.7859,5.719,5.6885,5.6951,5.821,5.8137,5.6977,5.8307,5.8564,5.7972,5.7918,5.79,5.79,5.79,5.79,5.79,5.79,5.79,5.79,5.79,5.79,5.79,5.79,5.79,5.79,5.79,5.79,5.79,5.79,5.79,5.79,5.79,5.79,5.79,5.79,5.79,5.79,5.79,5.7374,5.7053,5.7697,5.7239,5.6714,5.6647,5.6647,5.641,5.5665,5.5057,5.4634,5.4532,5.3974,5.3568,5.3518,5.3501,5.3501,5.3501,5.3501,5.3501,5.3501,5.3501,5.3501,5.3501,5.3501,5.3501,5.3501,5.3501,5.3501,5.3501,5.3501,5.3501,5.3501,5.3501,5.3501,5.3501,5.3501,5.3501,4.8369,4.9927,5.1459,5.2057,5.3331,5.4653,5.5414,5.5341,5.5444,5.6518,5.6748,0.0,0.0,5.8112,5.8818,5.8709,5.8782,5.8927,5.9126,5.8981,5.8981,5.9271,6.0018,6.0368,5.9989,5.9947,5.967,5.9001,5.9365,5.9313,5.8607,5.8618,5.8465,5.8136,5.7311,5.672,5.6391,5.5733,5.5161,5.4718,5.6627,5.7294,5.6833,5.7832,5.8137,5.79,5.79,5.79,5.79,5.79,5.79,5.79,5.79,5.79,5.79,5.79,5.79,5.79,5.79,5.79,5.79,5.79,5.79,5.79,5.79,5.79,5.79,5.79,5.79,5.79,5.79,5.79,5.79,5.79,5.7697,5.7561,5.7849,5.7306,5.6799,5.6799,5.6055,5.5327,5.5057,5.4769,5.4431,5.3974,5.4059,5.4008,5.3568,5.3501,5.3501,5.3501,5.3501,5.3501,5.3501,5.3501,5.3501,5.3501,5.3501,5.3501,5.3501,5.3501,5.3501,5.3501,5.3501,5.3501,5.3501,5.3501,5.3501,5.3501,5.3501,5.3501,4.8387,4.9854,5.1423,5.193,5.3295,5.478,5.577,5.6005,5.6241,5.7025,5.7188,5.7188,5.7188,0.0,0.0,0.0,5.8981,5.8981,5.9511,5.9126,5.8717,5.851,5.8983,5.9059,5.8444,5.8369,5.8104,5.7433,5.7842,5.7939,5.7436,5.7462,5.736,5.709,5.6184,5.5451,5.4928,5.472,5.4346,5.3873,5.5852,5.6681,5.6494,5.7459,5.79,5.79,5.79,5.79,5.79,5.79,5.79,5.79,5.79,5.79,5.79,5.79,5.79,5.79,5.79,5.79,5.79,5.79,5.79,5.79,5.79,5.79,5.79,5.79,5.79,5.79,5.79,5.79,5.79,5.79,5.773,5.7611,5.7849,5.7306,5.6867,5.7103,5.6139,5.5209,5.4989,5.4955,5.4702,5.3957,5.4465,5.4769,5.4245,5.4177,5.4177,5.4177,5.3991,5.3856,5.3856,5.3636,5.3501,5.3501,5.3501,5.3501,5.3501,5.3501,5.3501,5.3501,5.3737,5.3856,5.3856,5.4093,5.4177,5.4177,5.4177,5.4177,4.9865,5.068,5.1676,5.3277,5.3693,5.4128,5.5661,5.6005,5.6241,5.7025,5.7188,5.7188,5.7188,5.7858,0.0,5.8402,5.909,5.9602,5.9615,5.9602,5.938,5.8762,5.8706,5.8444,5.7738,5.7677,5.7384,5.6733,5.6701,5.6712,5.6784,5.6799,5.646,5.5716,5.5699,5.5006,5.3551,5.4245,5.46,5.4634,5.6089,5.6409,5.5767,5.7222,5.79,5.79,5.79,5.79,5.79,5.79,5.79,5.79,5.79,5.79,5.79,5.79,5.79,5.79,5.79,5.79,5.79,5.79,5.79,5.79,5.79,5.79,5.79,5.79,5.79,5.79,5.79,5.79,5.7883,5.79,5.734,5.7002,5.7747,5.7306,5.7019,5.7764,5.7306,5.6579,5.5834,5.5699,5.5445,5.4718,5.5243,5.5699,5.5699,5.5699,5.5699,5.5699,5.504,5.46,5.46,5.3923,5.3501,5.3501,5.3501,5.3501,5.3501,5.3501,5.3501,5.3501,5.4211,5.46,5.46,5.5344,5.5699,5.5699,5.5699,5.5699,4.8514,4.9818,5.1423,5.1882,5.3687,5.5444,5.5897,5.6005,5.6241,5.7025,5.7188,5.7188,5.7188,5.7858,0.0,5.9162,5.9439,5.9801,6.0362,5.9964,5.9353,5.8706,5.8635,5.798,5.6307,5.6161,5.589,5.5264,5.5706,5.6011,5.6038,5.6528,5.646,5.5716,5.5699,5.5496,5.5056,5.5259,5.5361,5.5378,5.5817,5.6172,5.6511,5.7459,5.79,5.79,5.79,5.79,5.79,5.79,5.79,5.79,5.79,5.79,5.79,5.79,5.79,5.79,5.79,5.79,5.79,5.79,5.79,5.7797,5.7273,5.7492,5.7798,5.7273,5.712,5.7239,5.7781,5.712,5.6613,5.7645,5.734,5.7002,5.7747,5.7306,5.7019,5.7764,5.7306,5.6731,5.6511,5.6037,5.5631,5.5412,5.5564,5.5699,5.5699,5.5699,5.5699,5.5699,5.504,5.46,5.46,5.3923,5.3501,5.3501,5.3501,5.3501,5.3501,5.3501,5.3501,5.3501,5.4211,5.46,5.46,5.5344,5.5699,5.5699,5.5699,5.5699,4.9952,5.1158,5.248,5.3415,5.4828,5.6078,5.6391,5.6494,5.6609,5.7098,5.7188,5.7188,5.7188,5.7858,0.0,5.9457,5.965,5.9956,6.0762,5.9958,5.9023,5.8351,5.801,5.7227,5.5718,5.5584,5.5417,5.5058,5.5445,5.5834,5.6122,5.6562,5.6613,5.6139,5.6139,5.5986,5.5699,5.5986,5.5986,5.5716,5.6274,5.6664,5.6816,5.7256,5.7611,5.79,5.79,5.79,5.79,5.79,5.79,5.79,5.79,5.79,5.79,5.79,5.79,5.79,5.79,5.79,5.79,5.79,5.79,5.7832,5.7357,5.7543,5.7764,5.7002,5.7019,5.7205,5.7053,5.6579,5.6358,5.7256,5.69,5.6579,5.7289,5.7103,5.7019,5.7764,5.7526,5.7137,5.685,5.6681,5.6478,5.6172,5.6393,5.6579,5.6579,5.6579,5.6579,5.6579,5.5902,5.5463,5.5463,5.4532,5.394,5.394,5.367,5.3636,5.3923,5.394,5.394,5.394,5.4955,5.5463,5.548,5.6207,5.6579,5.6579,5.6579,5.6579,5.2752,5.3476,5.4146,5.641,5.6536,5.6301,5.7025,5.7188,5.7188,5.7188,5.7188,5.7188,5.7188,5.7913,5.872,5.9391,5.9739,6.0151,6.0894,5.9774,5.8677,5.8075,5.7287,5.6541,5.5871,5.58,5.58,5.58,5.58,5.6122,5.6867,5.69,5.69,5.69,5.69,5.6579,5.5902,5.6579,5.6562,5.5919,5.7188,5.7476,5.69,5.69,5.7256,5.79,5.79,5.79,5.79,5.79,5.79,5.79,5.79,5.79,5.79,5.79,5.79,5.79,5.79,5.79,5.79,5.79,5.79,5.79,5.7832,5.7849,5.7729,5.6934,5.7222,5.7476,5.6071,5.6139,5.6596,5.6596,5.6089,5.58,5.6545,5.6647,5.6816,5.7561,5.7714,5.7494,5.6816,5.7256,5.7492,5.6884,5.7357,5.7832,5.79,5.79,5.79,5.79,5.7239,5.6782,5.6714,5.5412,5.4583,5.4499,5.3923,5.3907,5.4583,5.46,5.4634,5.4702,5.6089,5.6799,5.6799,5.7526,5.79,5.79,5.79,5.79,5.0572,5.1803,5.3186,5.4961,5.6174,5.6989,5.7152,5.7188,5.7188,5.7188,5.7188,5.7188,5.7188,5.8365,5.9221,5.887,5.9899,6.0805,6.098,6.0264,5.969,5.9545,5.8865,5.7913,5.6684,5.6562,5.6562,5.6562,5.6562,5.6884,5.7611,5.7645,5.7645,5.7645,5.7645,5.7577,5.7425,5.7577,5.7577,0.0,5.7154,5.7256,5.7645,5.7645,5.7764,5.79,5.79,5.79,5.79,5.79,5.79,5.79,5.79,5.79,5.79,5.79,5.79,5.79,5.79,5.79,5.79,5.79,5.79,5.7798,5.7205,5.7442,5.7646,5.6325,5.6478,5.6833,5.5936,5.5395,5.5057,5.5057,5.4938,5.504,5.5767,5.548,5.5277,5.602,5.6172,5.6122,5.5953,5.6071,5.6308,5.6748,5.6934,5.7239,5.7832,5.79,5.79,5.79,5.7239,5.6579,5.5986,5.5124,5.4346,5.3771,5.4126,5.4431,5.4583,5.46,5.4871,5.5445,5.6342,5.6799,5.6799,5.7526,5.79,5.79,5.79,5.79,5.0723,5.2136,5.3548,5.5504,5.6609,5.7188,5.7188,5.7188,5.7188,5.7188,5.7188,5.7188,5.7188,5.7959,5.8488,5.812,5.8862,5.9343,5.8991,5.8922,5.8768,5.8401,5.8022,5.7654,5.726,5.6978,5.6951,5.7289,5.7323,5.7492,5.7883,5.79,5.79,5.79,5.79,5.79,5.79,5.79,5.79,5.79,5.7509,5.7526,5.79,5.79,5.79,5.79,5.79,5.79,5.79,5.79,5.79,5.79,5.79,5.79,5.79,5.79,5.79,5.79,5.79,5.79,5.79,5.79,5.79,5.7832,5.7442,5.7612,5.768,5.6545,5.6511,5.6562,5.5463,5.5158,5.4955,5.4245,5.4059,5.4279,5.5006,5.4871,5.482,5.5564,5.5699,5.5699,5.5699,5.5699,5.5953,5.6697,5.6511,5.6545,5.7273,5.7357,5.7357,5.7357,5.734,5.7171,5.6799,5.575,5.4972,5.4583,5.4583,5.4752,5.5108,5.5463,5.5835,5.6206,5.6951,5.7323,5.7323,5.7695,5.79,5.79,5.79,5.79,5.1249,5.2987,5.4399,5.6482,5.7098,5.7188,5.7188,5.7188,5.7188,5.7188,5.7188,5.7188,5.7188,5.7361,5.7499,5.7481,5.7653,5.7573,5.695,5.7235,5.729,5.6686,5.6519,5.6727,5.7483,5.7085,5.7103,5.7849,5.79,5.7849,5.773,5.7695,5.7695,5.7695,5.7695,5.7781,5.79,5.79,5.79,5.79,5.79,5.79,5.79,5.79,5.79,5.79,5.79,5.79,5.79,5.79,5.79,5.79,5.79,5.79,5.79,5.79,5.79,5.79,5.79,5.79,5.79,5.79,5.7815,5.7729,5.7866,5.773,5.7391,5.6782,5.6613,5.6275,5.4786,5.4955,5.5158,5.3822,5.3501,5.367,5.4279,5.4516,5.4735,5.5225,5.5327,5.5327,5.5327,5.5327,5.5564,5.6308,5.5902,5.5767,5.6528,5.6613,5.6664,5.6799,5.734,5.7695,5.7695,5.6478,5.5648,5.5513,5.4938,5.4871,5.5479,5.6342,5.6799,5.6799,5.7509,5.79,5.79,5.79,5.79,5.79,5.79,5.79,4.9738,5.2516,5.4979,5.5921,5.6681,5.7188,5.7188,5.7188,5.7188,5.7188,5.7188,5.7188,5.7188,5.7361,5.7467,5.7425,5.7576,5.7666,5.7594,5.7094,5.6738,5.6684,5.6184,5.6093,5.6857,5.6853,5.7103,5.7849,5.79,5.7611,5.6985,5.6951,5.6951,5.6951,5.6951,5.7256,5.79,5.79,5.79,5.79,5.79,5.79,5.79,5.79,5.79,5.79,5.79,5.79,5.79,5.79,5.79,5.79,5.79,5.79,5.79,5.79,5.79,5.79,5.79,5.79,5.79,5.79,5.7459,5.707,5.7714,5.7002,5.5969,5.5868,5.5851,5.5513,5.4042,5.4194,5.4532,5.3704,5.3501,5.3534,5.3636,5.4143,5.4431,5.3907,5.3788,5.3788,5.3788,5.3788,5.4042,5.4769,5.4803,5.5006,5.575,5.5851,5.6088,5.6731,5.6884,5.6951,5.6951,5.6172,5.5428,5.4786,5.4651,5.4634,5.4735,5.6072,5.6799,5.6799,5.7509,5.79,5.79,5.79,5.79,5.79,5.79,5.79,4.9865,5.2118,5.3947,5.5589,5.6277,5.6657,5.7098,5.7188,5.7188,5.7188,5.7188,5.71,5.6758,5.6496,5.6199,5.5781,5.6142,5.6321,5.5902,5.6554,5.6781,5.6057,5.6022,5.6053,5.6063,5.6081,5.6235,5.6631,5.6681,5.6528,5.6189,5.6172,5.6172,5.6172,5.6579,5.6951,5.7273,5.7679,5.79,5.79,5.79,5.7697,5.7273,5.7273,5.7509,5.79,5.79,5.79,5.79,5.79,5.79,5.79,5.79,5.79,5.79,5.79,5.79,5.79,5.79,5.79,5.79,5.79,5.7391,5.6867,5.7188,5.6833,5.6223,5.5817,5.5699,5.5547,5.4904,5.4668,5.4515,5.4194,5.4431,5.4515,5.3687,5.3754,5.389,5.3568,5.3501,5.3501,5.3501,5.3501,5.3754,5.4499,5.4245,5.4245,5.4989,5.5091,5.5209,5.553,5.6308,5.663,5.6206,5.5885,5.5378,5.4651,5.46,5.46,5.46,5.5615,5.6172,5.6172,5.7306,5.79,5.79,5.79,5.79,5.79,5.79,5.7697,4.9764,5.1302,5.2473,5.4575,5.5454,5.5988,5.6729,5.7043,5.7188,5.7188,5.7087,5.6726,5.5921,5.5581,5.5236,5.4734,5.4969,5.503,5.4477,5.5674,5.6206,5.505,5.5311,5.5502,5.5283,5.5271,5.5398,5.5666,5.5699,5.5614,5.5428,5.5411,5.5411,5.5411,5.5953,5.6427,5.6799,5.7526,5.79,5.79,5.7695,5.7323,5.6799,5.6613,5.6816,5.734,5.734,5.7442,5.7611,5.7611,5.7729,5.79,5.79,5.79,5.79,5.79,5.79,5.79,5.79,5.79,5.79,5.79,5.7391,5.6833,5.7019,5.6816,5.6426,5.6071,5.5699,5.5411,5.5411,5.4871,5.4313,5.4313,5.4735,5.4887,5.3974,5.3636,5.3501,5.3501,5.3501,5.3501,5.3501,5.3501,5.3687,5.4228,5.3856,5.3704,5.4245,5.4313,5.438,5.4583,5.5581,5.6089,5.5733,5.553,5.5192,5.4634,5.4414,5.4313,5.4313,5.504,5.5411,5.5411,5.6681,5.734,5.734,5.7526,5.7611,5.7611,5.7815,5.7612,4.8558,4.9747,5.0855,5.2327,5.3973,5.539,5.593,5.6657,5.7188,5.7188,5.6727,5.5925,5.4556,5.4905,5.5385,5.534,5.4846,5.4425,5.4407,5.4504,5.4317,5.3685,5.3618,5.3906,5.4584,5.4652,5.4939,5.5648,5.5699,5.5378,5.4685,5.4651,5.4651,5.4651,5.4685,5.5378,5.6799,5.7526,5.79,5.79,5.7188,5.685,5.6782,5.6071,5.5783,5.58,5.58,5.6206,5.6867,5.6867,5.7273,5.79,5.79,5.79,5.79,5.79,5.79,5.79,5.79,5.79,5.79,5.79,5.7391,5.6934,5.7646,5.6867,5.5885,5.6562,5.5733,5.4651,5.4651,5.411,5.3568,5.3568,5.3602,5.3788,5.4397,5.3991,5.3501,5.3501,5.3501,5.3501,5.3501,5.3501,5.3518,5.3551,5.3518,5.3518,5.3551,5.3568,5.3822,5.4533,5.4685,5.4972,5.5631,5.5057,5.4634,5.46,5.394,5.3568,5.3568,5.4262,5.4651,5.4651,5.5429,5.58,5.5817,5.6528,5.6867,5.6867,5.756,5.7883,4.7833,4.8771,4.9714,5.0916,5.2354,5.3567,5.3941,5.527,5.644,5.644,5.636,5.6029,5.5132,5.4478,5.3916,5.348,5.3574,5.3872,5.4338,5.4765,5.4813,5.4139,5.4457,5.4499,5.394,5.4241,5.4426,5.4313,5.4279,5.4177,5.3907,5.389,5.389,5.389,5.4346,5.531,5.6799,5.7526,5.79,5.79,5.7154,5.6562,5.6071,5.5327,5.4735,5.4279,5.4279,5.5243,5.6799,5.6799,5.7222,5.79,5.79,5.7612,5.7188,5.7188,5.6884,5.6562,5.7036,5.7188,5.7273,5.7764,5.7391,5.685,5.7103,5.6833,5.6275,5.5581,5.5344,5.5209,5.4718,5.4042,5.3501,5.3501,5.3501,5.3568,5.3839,5.3687,5.3501,5.3501,5.3501,5.3501,5.3501,5.3501,5.3501,5.3501,5.3501,5.3501,5.3501,5.3501,5.3602,5.3873,5.4313,5.4515,5.4313,5.4482,5.4397,5.3923,5.3653,5.3501,5.3501,5.3754,5.389,5.389,5.416,5.4989,5.6409,5.6681,5.6799,5.6816,5.7561,5.7391,4.7001,4.7735,4.8537,5.0006,5.1083,5.2036,5.2964,5.4279,5.5438,5.5896,5.5999,5.5791,5.5121,5.3863,5.2879,5.2737,5.2844,5.3233,5.3987,5.4473,5.4598,5.4139,5.4488,5.4427,5.3568,5.3865,5.393,5.3534,5.3501,0.0,5.38,5.38,5.38,5.38,5.433,5.5296,5.6745,5.7263,5.7772,5.8227,5.7008,5.6172,5.5665,5.4685,5.3957,5.3501,5.3501,5.4482,5.6055,5.6055,5.6494,5.7154,5.7154,5.6867,5.6461,5.6714,5.6494,5.6139,5.663,5.6799,5.6884,5.7357,5.7036,5.6478,5.6731,5.6799,5.6596,5.5615,5.5513,5.5581,5.5108,5.4245,5.3501,5.3501,5.3501,5.3501,5.3501,5.3501,5.3501,5.3501,5.3501,5.3501,5.3501,5.3501,5.3501,5.3501,5.3501,5.3501,5.3501,5.3501,5.3501,5.3501,5.394,5.4025,5.3551,5.394,5.4008,5.3534,5.3501,5.3501,5.3501,5.3737,5.3873,5.3873,5.3873,5.4718,5.6444,5.6444,5.6308,5.6089,5.7323,5.7103,0.0,0.0,0.0,4.9479,5.0185,5.0915,5.3026,5.367,5.4225,5.5616,5.5597,5.5098,5.4346,5.3095,5.248,5.333,5.279,5.2553,5.3382,5.3501,5.3501,5.3501,5.3501,5.3501,5.3501,5.3517,5.3534,5.3534,5.3551,5.38,5.4359,5.4375,5.4375,5.4407,5.4548,5.5298,5.6684,5.6797,5.7547,5.8875,5.678,5.5768,5.5752,5.4228,5.3534,5.3568,5.3518,5.3907,5.4583,5.4583,5.504,5.5699,5.5699,5.5682,5.575,5.6478,5.6714,5.6714,5.6731,5.6748,5.6748,5.6765,5.6274,5.5834,5.6562,5.6782,5.6799,5.6748,5.6241,5.5682,5.5648,5.4566,5.3501,5.3501,5.3501,5.3501,5.3501,5.3501,5.3501,5.3501,5.3501,5.3501,5.3501,5.3501,5.3501,5.3501,5.3501,5.3501,5.3501,5.3501,5.3501,5.3501,5.3501,5.3501,5.3501,5.3501,5.3501,5.3501,5.3501,5.3501,5.3501,5.4177,5.4583,5.46,5.46,5.4955,5.5665,5.5682,5.5327,5.4668,5.6834,5.707,4.5508,0.0,0.0,0.0,0.0,0.0,0.0,5.0587,5.2354,5.3532,5.3599,5.3591,5.4101,5.305,5.2247,5.2584,5.2012,5.1962,5.3315,5.3501,5.3501,5.3501,5.3501,5.3501,5.3501,5.3881,5.4155,0.0,5.4598,5.4753,5.4422,5.3995,5.3946,5.4391,5.494,5.568,5.6617,5.7707,5.8469,5.8892,5.7757,5.7461,5.7868,5.5416,5.455,5.496,5.3939,5.3619,5.3856,5.438,5.504,5.5699,5.5699,5.5361,5.4921,5.5124,5.4871,5.4499,5.5023,5.5209,5.5294,5.5817,5.5868,5.5733,5.5936,5.6393,5.6579,5.5513,5.5446,5.5445,5.4397,5.3822,5.3501,5.3501,5.3501,5.3501,5.3501,5.3501,5.3501,5.3501,5.3501,5.3501,5.3501,5.3501,5.3501,5.3501,5.3501,5.3501,5.3501,5.3501,5.3501,5.3501,5.3501,5.3501,5.3501,5.3501,5.3501,5.3501,5.3501,5.3501,5.3501,5.3704,5.4059,5.46,5.46,5.4702,5.4905,5.5428,5.5597,5.5412,5.602,5.6393,0.0,0.0,0.0,0.0,0.0,0.0,4.8889,4.9949,5.1323,5.2899,5.302,5.3068,5.392,5.294,5.2263,5.2989,5.2448,5.2297,5.3348,5.3501,5.3584,5.3849,5.3881,5.3996,5.4269,5.4614,5.4811,5.4811,5.5177,5.5236,5.4841,5.4473,5.4332,5.4391,5.4876,5.5614,5.6633,5.7803,5.8715,5.9346,5.8301,5.8151,5.8704,5.6199,5.5397,5.5906,5.4808,5.4155,5.3916,5.4342,5.4618,5.4769,5.4769,5.4532,5.4177,5.4499,5.4329,5.4008,5.4448,5.46,5.4668,5.5108,5.504,5.4837,5.5158,5.5547,5.57,5.4854,5.4905,5.4972,5.3805,5.3501,5.3501,5.3501,5.3501,5.3501,5.3501,5.3501,5.3501,5.3501,5.3501,5.3501,5.3501,5.3501,5.3501,5.3501,5.3501,5.3501,5.3501,5.3501,5.3501,5.3501,5.3501,5.3501,5.3501,5.3501,5.3501,5.3501,5.3501,5.3653,5.394,5.3957,5.4448,5.5497,5.4905,5.46,5.46,5.5344,5.5699,5.5682,5.5073,5.5327,0.0,0.0,0.0,0.0,0.0,0.0,5.0342,5.0389,5.0617,5.2768,5.2803,5.2657,5.3296,5.2523,5.2203,5.3511,5.3325,5.3187,5.3662,5.3718,5.3898,5.4455,5.4516,5.4749,5.534,5.5458,5.5487,5.5487,5.5487,5.5458,5.5399,5.5325,5.5026,5.4422,5.4598,5.5331,5.6667,5.7422,5.848,5.9853,5.8363,5.8116,5.8862,5.6696,5.5993,5.6475,5.574,5.5018,5.4391,5.4329,5.3978,5.3501,5.3501,5.3501,5.3585,5.4228,5.4482,5.4482,5.4482,5.4482,5.4482,5.4482,5.4025,5.3653,5.438,5.4651,5.4735,5.482,5.4803,5.4566,5.3923,5.3687,5.3619,5.3619,5.3568,5.3501,5.3501,5.3501,5.3501,5.3501,5.3501,5.3501,5.3501,5.3501,5.3501,5.3501,5.3501,5.3501,5.3501,5.3501,5.3534,5.3619,5.3551,5.3534,5.3619,5.3551,5.3534,5.3619,5.3619,5.3957,5.4685,5.4718,5.5378,5.6765,5.5429,5.4718,5.4718,5.531,5.5614,5.5665,5.4279,5.438,0.0,0.0,0.0,0.0,0.0,0.0,4.7754,4.7992,4.8582,4.9888,4.9579,4.9346,5.0263,5.0704,5.0895,5.0752,5.2089,5.36,5.4844,5.5029,5.5072,5.5192,5.5207,5.5251,5.5385,5.5833,5.6114,5.6114,5.6114,5.5904,5.5432,5.4887,5.4532,5.4407,5.5005,5.5745,5.6617,5.7338,5.8202,5.9095,5.7613,5.7908,5.967,5.6953,5.6048,5.6587,5.533,5.4629,5.4359,5.3881,5.3618,5.3501,5.3501,5.3501,5.3518,5.367,5.3721,5.3721,5.3721,5.3721,5.3721,5.3721,5.3619,5.3653,5.438,5.5006,5.5597,5.6207,5.5953,5.5445,5.531,5.4837,5.4397,5.4397,5.3923,5.3501,5.3501,5.3501,5.3501,5.3501,5.3501,5.3501,5.3501,5.3501,5.3501,5.3501,5.3501,5.3501,5.3501,5.3501,5.3737,5.4313,5.3856,5.3737,5.4329,5.3839,5.3754,5.4346,5.4397,5.4718,5.5445,5.5479,5.5902,5.6782,5.5919,5.5479,5.5479,5.504,5.5124,5.5682,5.4803,5.4871,0.0,0.0,0.0,4.7598,0.0,0.0,0.0,0.0,4.8565,4.9521,4.9149,4.8895,4.9704,4.9991,5.0232,5.068,5.2348,5.3866,5.4598,5.457,5.4551,5.4874,5.4903,5.5024,5.537,5.5676,5.5992,5.627,5.6298,5.6174,5.5879,5.5909,5.5641,5.496,5.6047,5.6674,5.6696,5.7765,5.8501,5.8909,5.8516,5.8717,5.9352,5.7548,5.669,5.6526,5.5491,5.4809,5.4375,5.4075,5.3767,5.3501,5.3501,5.3501,5.3501,5.3501,5.3501,5.3501,5.3501,5.3501,5.3501,5.3501,5.3501,5.3568,5.394,5.4313,5.4667,5.5057,5.5158,5.5158,5.5158,5.5158,5.5057,5.4685,5.4313,5.394,5.3585,5.3501,5.3501,5.3501,5.3501,5.3501,5.3501,5.3501,5.3501,5.3501,5.3501,5.3501,5.3501,5.3501,5.3653,5.4008,5.3721,5.3805,5.4532,5.3923,5.3805,5.455,5.46,5.4921,5.5665,5.5699,5.5699,5.57,5.5699,5.5344,5.46,5.4228,5.4245,5.4583,5.4228,5.4448,0.0,0.0,0.0,0.0,0.0,4.7833,0.0,0.0,0.0,0.0,0.0,0.0,0.0,0.0,0.0,5.0586,0.0,0.0,0.0,5.312,0.0,5.4374,5.4754,5.5087,5.5478,5.5518,5.5787,5.6434,5.6318,5.6259,5.6311,5.7057,5.6951,5.572,5.7191,5.7721,5.719,5.817,5.8702,5.8685,5.9015,5.8827,5.8183,5.7631,5.7006,5.6303,5.563,5.5039,5.4582,5.4317,5.4011,5.3651,5.3551,5.3501,5.3501,5.3501,5.3501,5.3501,5.3501,5.3501,5.3501,5.3501,5.3602,5.3721,5.3721,5.3822,5.3923,5.3923,5.4448,5.5006,5.5006,5.548,5.575,5.5158,5.482,5.4448,5.3839,5.3602,5.3501,5.3501,5.3501,5.3501,5.3501,5.3501,5.3501,5.3501,5.3501,5.3501,5.3501,5.3501,5.3551,5.3704,5.3585,5.3856,5.4735,5.4008,5.3873,5.4752,5.4803,5.5141,5.5885,5.6037,5.5852,5.526,5.553,5.5175,5.4143,5.3721,5.3501,5.3501,5.3501,5.3822,0.0,0.0,0.0,0.0,4.7164,0.0,0.0,0.0,0.0,0.0,0.0,0.0,0.0,0.0,0.0,0.0,0.0,0.0,5.0433,5.1006,5.2301,5.4563,5.6042,5.6626,5.5987,5.5927,5.6259,5.7033,5.6431,5.6106,5.6289,5.7057,5.7153,5.6398,5.7872,5.8647,5.8568,5.8139,5.7926,5.7909,5.6748,5.613,5.6045,5.5975,5.5874,5.5739,5.5009,5.4956,5.5276,5.4105,5.3881,5.4234,5.3718,5.3501,5.3501,5.3501,5.3501,5.3501,5.3501,5.3501,5.3501,5.3501,5.394,5.4482,5.4482,5.4938,5.5445,5.5445,5.5987,5.6545,5.6545,5.6613,5.6664,5.6579,5.5547,5.4583,5.4499,5.3957,5.3501,5.3501,5.3501,5.3501,5.3501,5.3501,5.3501,5.3501,5.3501,5.3501,5.3501,5.3501,5.3754,5.4414,5.389,5.4076,5.5462,5.4295,5.4076,5.5479,5.5581,5.5902,5.6647,5.7289,5.7612,5.7544,5.6308,5.5936,5.6427,5.4465,5.3501,5.3501,5.3501,5.3551,0.0,0.0,0.0,0.0,0.0,0.0,0.0,0.0,4.7145,0.0,0.0,0.0,0.0,0.0,0.0,0.0,4.97,0.0,0.0,0.0,5.2414,0.0,0.0,0.0,5.4388,5.4416,5.5064,5.6568,5.5281,5.5179,5.6845,5.7735,5.8088,5.7842,5.9282,5.9895,5.9506,5.8777,5.8443,5.8426,5.7844,5.69,5.5716,5.6099,5.5604,5.4431,5.4462,5.4424,5.4325,5.4115,5.3962,5.3849,5.3601,5.3501,5.3501,5.3501,5.3501,5.3501,5.3501,5.3501,5.3501,5.3501,5.3704,5.3957,5.3957,5.4177,5.4414,5.4414,5.5259,5.6155,5.6155,5.6799,5.7323,5.69,5.6325,5.5632,5.4769,5.4346,5.4008,5.3585,5.3501,5.3501,5.3501,5.3501,5.3501,5.3501,5.3501,5.3501,5.3501,5.3501,5.3619,5.3923,5.3687,5.3923,5.4972,5.411,5.4143,5.5614,5.6088,5.6681,5.7408,5.7747,5.7714,5.7273,5.6664,5.6274,5.6155,5.4803,5.4363,5.4752,5.389,5.3737,4.7707,0.0,0.0,0.0,0.0,0.0,0.0,0.0,0.0,0.0,0.0,0.0,0.0,0.0,0.0,0.0,0.0,0.0,0.0,5.0777,0.0,0.0,0.0,0.0,0.0,5.304,5.3778,5.5833,5.4273,5.4442,5.7248,5.8046,5.8642,5.9058,6.032,6.0849,6.0547,5.9659,5.9092,5.8867,5.8496,5.7311,5.5429,5.5893,5.5262,5.3822,5.4048,5.4017,5.3805,5.4064,5.3898,5.3501,5.3501,5.3501,5.3501,5.3501,5.3501,5.3501,5.3501,5.3501,5.3501,5.3501,5.3501,5.3501,5.3501,5.3501,5.3501,5.3501,5.4549,5.5699,5.5699,5.6799,5.7781,5.7222,5.6951,5.6461,5.5175,5.4735,5.438,5.3653,5.3501,5.3501,5.3501,5.3501,5.3501,5.3501,5.3501,5.3501,5.3501,5.3501,5.3501,5.3501,5.3501,5.3805,5.4532,5.3923,5.4143,5.5614,5.6375,5.712,5.7883,5.79,5.7663,5.7103,5.69,5.6647,5.6291,5.5158,5.5074,5.5969,5.4499,5.4093,0.0,0.0,0.0,4.5725,0.0,0.0,0.0,0.0,4.6729,0.0,0.0,0.0,0.0,0.0,0.0,0.0,0.0,0.0,0.0,0.0,0.0,0.0,0.0,0.0,0.0,5.2393,5.2852,0.0,5.3843,5.4296,5.7245,5.7606,5.8356,5.9718,6.0576,6.1297,6.1923,6.0641,5.958,5.8792,5.7484,5.6072,5.4651,5.4668,5.4634,5.4533,5.3839,5.3907,5.4516,5.3822,5.3517,5.3501,5.3501,5.3501,5.3501,5.3501,5.3501,5.3501,5.3501,5.3501,5.3501,5.3501,5.3501,5.3501,5.3501,5.3501,5.3501,5.3501,5.4549,5.5699,5.5699,5.6799,5.79,5.7883,5.7306,5.6596,5.5834,5.5108,5.438,5.3653,5.3501,5.3501,5.3501,5.3501,5.3501,5.3501,5.3501,5.3501,5.3501,5.3501,5.3501,5.3501,5.3501,5.3805,5.4532,5.3923,5.4143,5.5614,5.6375,5.712,5.7883,5.79,5.79,5.7883,5.7154,5.7137,5.7832,5.5666,5.5344,5.6731,5.5243,5.4583,0.0,0.0,4.7435,4.6359,0.0,0.0,0.0,0.0,0.0,0.0,0.0,0.0,0.0,0.0,0.0,0.0,0.0,0.0,0.0,0.0,0.0,0.0,0.0,0.0,0.0,0.0,0.0,0.0,5.3067,0.0,0.0,5.6702,5.769,5.9097,6.0347,6.1311,6.1978,6.1122,6.0313,5.9578,5.8147,5.6713,5.531,5.482,5.4329,5.3873,5.4033,5.4001,5.3907,5.4499,5.4253,5.3551,5.393,5.3849,5.3501,5.3501,5.3501,5.3501,5.3501,5.3501,5.3501,5.3501,5.3501,5.3501,5.3501,5.3501,5.3501,5.3501,5.4211,5.5091,5.5564,5.6444,5.7289,5.7763,5.7695,5.7323,5.6596,5.6224,5.5835,5.509,5.4566,5.4228,5.4228,5.3822,5.3501,5.3501,5.3501,5.3501,5.3501,5.3501,5.3501,5.3501,5.3501,5.3602,5.3856,5.4093,5.4651,5.5631,5.6375,5.712,5.7883,5.79,5.79,5.79,5.7645,5.7663,5.79,5.6173,5.5852,5.6765,5.5277,5.46,4.7645,4.7738,0.0,4.6703,4.6106,0.0,4.6377,0.0,0.0,0.0,0.0,0.0,0.0,0.0,0.0,0.0,0.0,0.0,0.0,0.0,0.0,0.0,0.0,0.0,0.0,0.0,5.1616,5.3894,5.2483,0.0,0.0,0.0,5.6996,5.8391,5.9606,6.0572,6.1208,6.0546,5.9875,5.9157,5.7685,5.6388,5.5276,5.4549,5.3957,5.3534,5.4139,5.4187,5.3881,5.4705,5.4567,5.3832,5.401,5.3832,5.3501,5.3501,5.3501,5.3501,5.3501,5.3501,5.3501,5.3501,5.3501,5.3501,5.3501,5.3501,5.3501,5.3501,5.4025,5.4702,5.5192,5.5869,5.6596,5.7323,5.7306,5.7053,5.685,5.6393,5.5886,5.5412,5.4718,5.4211,5.4211,5.3805,5.3501,5.3501,5.3501,5.3501,5.3501,5.3501,5.3501,5.3501,5.3501,5.3501,5.3501,5.4177,5.4803,5.5294,5.6258,5.7019,5.7492,5.7764,5.79,5.79,5.79,5.79,5.79,5.6427,5.5936,5.6358,5.4905,5.4211]}]]